[[{"header":{"parameterUnit":"m.s-1","parameterCategory":1,"la1":30.6,"la2":28.766,"lo1":-90.7593,"lo2":-88.6598,"dy":0.0162,"dx":0.0183,"nx":116,"ny":114,"refTime":"2024-03-15T06:00:00:Z","depth":0,"parameterNumber":2,"parameterNumberName":"U-component_of_WINDS"},"data":[0.0,0.0,0.0,0.0,0.0,0.0,0.0,0.0,0.0,0.0,0.0,0.0,0.0,0.0,0.0,0.0,0.0,0.0,0.0,0.0,0.0,0.0,0.0,0.0,0.0,0.0,0.0,0.0,0.0,0.0,0.0,0.0,0.0,0.0,0.0,0.0,0.0,0.0,0.0,0.0,0.0,0.0,0.0,0.0,0.0,0.0,0.0,0.0,0.0,0.0,0.0,0.0,0.0,0.0,0.0,0.0,0.0,0.0,0.0,0.0,0.0,0.0,0.0,0.0,0.0,0.0,0.0,0.0,0.0,0.0,0.0,0.0,0.0,0.0,0.0,0.0,0.0,0.0,0.0,0.0,0.0,0.0,0.0,0.0,0.0,0.0,0.0,0.0,0.0,0.0,0.0,0.0,0.0,0.0,0.0,0.0,0.0,0.0,0.0,0.0,0.0,0.0,0.0,0.0,0.0,0.0,0.0,0.0,0.0,0.0,0.0,0.0,0.0,0.0,0.0,0.0,0.0,0.0,0.0,0.0,0.0,0.0,0.0,0.0,0.0,0.0,0.0,0.0,0.0,0.0,0.0,0.0,0.0,0.0,0.0,0.0,0.0,0.0,0.0,0.0,0.0,0.0,0.0,0.0,0.0,0.0,0.0,0.0,0.0,0.0,0.0,0.0,0.0,0.0,0.0,0.0,0.0,0.0,0.0,0.0,0.0,0.0,0.0,0.0,0.0,0.0,0.0,0.0,0.0,0.0,0.0,0.0,0.0,0.0,0.0,0.0,0.0,0.0,0.0,0.0,0.0,0.0,0.0,0.0,0.0,0.0,0.0,0.0,0.0,0.0,0.0,0.0,0.0,0.0,0.0,0.0,0.0,0.0,0.0,0.0,0.0,0.0,0.0,0.0,0.0,0.0,0.0,0.0,0.0,0.0,0.0,0.0,0.0,0.0,0.0,0.0,0.0,0.0,0.0,0.0,0.0,0.0,0.0,0.0,0.0,0.0,0.0,0.0,0.0,0.0,0.0,0.0,0.0,0.0,0.0,0.0,0.0,0.0,0.0,0.0,0.0,0.0,0.0,0.0,0.0,0.0,0.0,0.0,0.0,0.0,0.0,0.0,0.0,0.0,0.0,0.0,0.0,0.0,0.0,0.0,0.0,0.0,0.0,0.0,0.0,0.0,0.0,0.0,0.0,0.0,0.0,0.0,0.0,0.0,0.0,0.0,0.0,0.0,0.0,0.0,0.0,0.0,0.0,0.0,0.0,0.0,0.0,0.0,0.0,0.0,0.0,0.0,0.0,0.0,0.0,0.0,0.0,0.0,0.0,0.0,0.0,0.0,0.0,0.0,0.0,0.0,0.0,0.0,0.0,0.0,0.0,0.0,0.0,0.0,0.0,0.0,0.0,0.0,0.0,0.0,0.0,0.0,0.0,0.0,0.0,0.0,0.0,0.0,0.0,0.0,0.0,0.0,0.0,0.0,0.0,0.0,0.0,0.0,0.0,0.0,0.0,0.0,0.0,0.0,0.0,0.0,0.0,0.0,0.0,0.0,0.0,0.0,0.0,0.0,0.0,0.0,0.0,0.0,0.0,0.0,0.0,0.0,0.0,0.0,0.0,0.0,0.0,0.0,0.0,0.0,0.0,0.0,0.0,0.0,0.0,0.0,0.0,0.0,0.0,0.0,0.0,0.0,0.0,0.0,0.0,0.0,0.0,0.0,0.0,0.0,0.0,0.0,0.0,0.0,0.0,0.0,0.0,0.0,0.0,0.0,0.0,0.0,0.0,0.0,0.0,0.0,0.0,0.0,0.0,0.0,0.0,0.0,0.0,0.0,0.0,0.0,0.0,0.0,0.0,0.0,0.0,0.0,0.0,0.0,0.0,0.0,0.0,0.0,0.0,0.0,0.0,0.0,0.0,0.0,0.0,0.0,0.0,0.0,0.0,0.0,0.0,0.0,0.0,0.0,0.0,0.0,0.0,0.0,0.0,0.0,0.0,0.0,0.0,0.0,0.0,0.0,0.0,0.0,0.0,0.0,0.0,0.0,0.0,0.0,0.0,0.0,0.0,0.0,0.0,0.0,0.0,0.0,0.0,0.0,0.0,0.0,0.0,0.0,0.0,0.0,0.0,0.0,0.0,0.0,0.0,0.0,0.0,0.0,0.0,0.0,0.0,0.0,0.0,0.0,0.0,0.0,0.0,0.0,0.0,0.0,0.0,0.0,0.0,0.0,0.0,0.0,0.0,0.0,0.0,0.0,0.0,0.0,0.0,0.0,0.0,0.0,0.0,0.0,0.0,0.0,0.0,0.0,0.0,0.0,0.0,0.0,0.0,0.0,0.0,0.0,0.0,0.0,0.0,0.0,0.0,0.0,0.0,0.0,0.0,0.0,0.0,0.0,0.0,0.0,0.0,0.0,0.0,0.0,0.0,0.0,0.0,0.0,0.0,0.0,0.0,0.0,0.0,0.0,0.0,0.0,0.0,0.0,0.0,0.0,0.0,0.0,0.0,0.0,0.0,0.0,0.0,0.0,0.0,0.0,0.0,0.0,0.0,0.0,0.0,0.0,0.0,0.0,0.0,0.0,0.0,0.0,0.0,0.0,0.0,0.0,0.0,0.0,0.0,0.0,0.0,0.0,0.0,0.0,0.0,0.0,0.0,0.0,0.0,0.0,0.0,0.0,0.0,0.0,0.0,0.0,0.0,0.0,0.0,0.0,0.0,0.0,0.0,0.0,0.0,0.0,0.0,0.0,0.0,0.0,0.0,0.0,0.0,0.0,0.0,0.0,0.0,0.0,0.0,0.0,0.0,0.0,0.0,0.0,0.0,0.0,0.0,0.0,0.0,0.0,0.0,0.0,0.0,0.0,0.0,0.0,0.0,0.0,0.0,0.0,0.0,0.0,0.0,0.0,0.0,0.0,0.0,0.0,0.0,0.0,0.0,0.0,0.0,0.0,0.0,0.0,0.0,0.0,0.0,0.0,0.0,0.0,0.0,0.0,0.0,0.0,0.0,0.0,0.0,0.0,0.0,0.0,0.0,0.0,0.0,0.0,0.0,0.0,0.0,0.0,0.0,0.0,0.0,0.0,0.0,0.0,0.0,0.0,0.0,0.0,0.0,0.0,0.0,0.0,0.0,0.0,0.0,0.0,0.0,0.0,0.0,0.0,0.0,0.0,0.0,0.0,0.0,0.0,0.0,0.0,0.0,0.0,0.0,0.0,0.0,0.0,0.0,0.0,0.0,0.0,0.0,0.0,0.0,0.0,0.0,0.0,0.0,0.0,0.0,0.0,0.0,0.0,0.0,0.0,0.0,0.0,0.0,0.0,0.0,0.0,0.0,0.0,0.0,0.0,0.0,0.0,0.0,0.0,0.0,0.0,0.0,0.0,0.0,0.0,0.0,0.0,0.0,0.0,0.0,0.0,0.0,0.0,0.0,0.0,0.0,0.0,0.0,0.0,0.0,0.0,0.0,0.0,0.0,0.0,0.0,0.0,0.0,0.0,0.0,0.0,0.0,0.0,0.0,0.0,0.0,0.0,0.0,0.0,0.0,0.0,0.0,0.0,0.0,0.0,0.0,0.0,0.0,0.0,0.0,0.0,0.0,0.0,0.0,0.0,0.0,0.0,0.0,0.0,0.0,0.0,0.0,0.0,0.0,0.0,0.0,0.0,0.0,0.0,0.0,0.0,0.0,0.0,0.0,0.0,0.0,0.0,0.0,0.0,0.0,0.0,0.0,0.0,0.0,0.0,0.0,0.0,0.0,0.0,0.0,0.0,0.0,0.0,0.0,0.0,0.0,0.0,0.0,0.0,0.0,0.0,0.0,0.0,0.0,0.0,0.0,0.0,0.0,0.0,0.0,0.0,0.0,0.0,0.0,0.0,0.0,0.0,0.0,0.0,0.0,0.0,0.0,0.0,0.0,0.0,0.0,0.0,0.0,0.0,0.0,0.0,0.0,0.0,0.0,0.0,0.0,0.0,0.0,0.0,0.0,0.0,0.0,0.0,0.0,0.0,0.0,0.0,0.0,0.0,0.0,0.0,0.0,0.0,0.0,0.0,0.0,0.0,0.0,0.0,0.0,0.0,0.0,0.0,0.0,0.0,0.0,0.0,0.0,0.0,0.0,0.0,0.0,0.0,0.0,0.0,0.0,0.0,0.0,0.0,0.0,0.0,0.0,0.0,0.0,0.0,0.0,0.0,0.0,0.0,0.0,0.0,0.0,0.0,0.0,0.0,0.0,0.0,0.0,0.0,0.0,0.0,0.0,0.0,0.0,0.0,0.0,0.0,0.0,0.0,0.0,0.0,0.0,0.0,0.0,0.0,0.0,0.0,0.0,0.0,0.0,0.0,0.0,0.0,0.0,0.0,0.0,0.0,0.0,0.0,0.0,0.0,0.0,0.0,0.0,0.0,0.0,0.0,0.0,0.0,0.0,0.0,0.0,0.0,0.0,0.0,0.0,0.0,0.0,0.0,0.0,0.0,0.0,0.0,0.0,0.0,0.0,0.0,0.0,0.0,0.0,0.0,0.0,0.0,0.0,0.0,0.0,0.0,0.0,0.0,0.0,0.0,0.0,0.0,0.0,0.0,0.0,0.0,0.0,0.0,0.0,0.0,0.0,0.0,0.0,0.0,0.0,0.0,0.0,0.0,0.0,0.0,0.0,0.0,0.0,0.0,0.0,0.0,0.0,0.0,0.0,0.0,0.0,0.0,0.0,0.0,0.0,0.0,0.0,0.0,0.0,0.0,0.0,0.0,0.0,0.0,0.0,0.0,0.0,0.0,0.0,0.0,0.0,0.0,0.0,0.0,0.0,0.0,0.0,0.0,0.0,0.0,0.0,0.0,0.0,0.0,0.0,0.0,0.0,0.0,0.0,0.0,0.0,0.0,0.0,0.0,0.0,0.0,0.0,0.0,0.0,0.0,0.0,0.0,0.0,0.0,0.0,0.0,0.0,0.0,0.0,0.0,0.0,0.0,0.0,0.0,0.0,0.0,0.0,0.0,0.0,0.0,0.0,0.0,0.0,0.0,0.0,0.0,0.0,0.0,0.0,0.0,0.0,0.0,0.0,0.0,0.0,0.0,0.0,0.0,0.0,0.0,0.0,0.0,0.0,0.0,0.0,0.0,0.0,0.0,0.0,0.0,0.0,0.0,0.0,0.0,0.0,0.0,0.0,0.0,0.0,0.0,0.0,0.0,0.0,0.0,0.0,0.0,0.0,0.0,0.0,0.0,0.0,0.0,0.0,0.0,0.0,0.0,0.0,0.0,0.0,0.0,0.0,0.0,0.0,0.0,0.0,0.0,0.0,0.0,0.0,0.0,0.0,0.0,0.0,0.0,0.0,0.0,0.0,0.0,0.0,0.0,0.0,0.0,0.0,0.0,0.0,0.0,0.0,0.0,0.0,0.0,0.0,0.0,0.0,0.0,0.0,0.0,0.0,0.0,0.0,0.0,0.0,0.0,0.0,0.0,0.0,0.0,0.0,0.0,0.0,0.0,0.0,0.0,0.0,0.0,0.0,0.0,0.0,0.0,0.0,0.0,0.0,0.0,0.0,0.0,0.0,0.0,0.0,0.0,0.0,0.0,0.0,0.0,0.0,0.0,0.0,0.0,0.0,0.0,0.0,0.0,0.0,0.0,0.0,0.0,0.0,0.0,0.0,0.0,0.0,0.0,0.0,0.0,0.0,0.0,0.0,0.0,0.0,0.0,0.0,0.0,0.0,0.0,0.0,0.0,0.0,0.0,0.0,0.0,0.0,0.0,0.0,0.0,0.0,0.0,0.0,0.0,0.0,0.0,0.0,0.0,0.0,0.0,0.0,0.0,0.0,0.0,0.0,0.0,0.0,0.0,0.0,0.0,0.0,0.0,0.0,0.0,0.0,0.0,0.0,0.0,0.0,0.0,0.0,0.0,0.0,0.0,0.0,0.0,0.0,0.0,0.0,0.0,0.0,0.0,0.0,0.0,0.0,0.0,0.0,0.0,0.0,0.0,0.0,0.0,0.0,0.0,0.0,0.0,0.0,0.0,0.0,0.0,0.0,0.0,0.0,0.0,0.0,0.0,0.0,0.0,0.0,0.0,0.0,0.0,0.0,0.0,0.828,0.0,0.0,0.0,0.0,0.0,0.0,0.0,0.0,0.0,0.0,0.0,0.0,0.0,0.0,0.0,0.0,0.0,0.0,0.0,0.0,0.0,0.0,0.0,0.0,0.0,0.0,0.0,0.0,0.0,0.0,0.0,0.0,0.0,0.0,0.0,-0.8166,-0.839,-0.8669,-0.9072,-0.936,-1.0002,-1.0939,-0.9875,-0.8804,-0.7875,0.0,0.0,0.0,0.0,0.0,0.0,0.0,0.0,0.0,0.0,0.0,0.0,0.0,0.0,0.0,0.0,0.0,0.0,0.0,0.0,0.0,0.0,0.0,0.0,0.0,0.0,0.0,0.0,0.0,0.0,0.0,0.0,0.0,0.0,0.0,0.0,0.0,0.0,0.0,0.0,0.0,0.0,0.0,0.0,0.0,0.0,0.0,0.0,0.0,0.0,0.0,0.0,0.0,0.0,0.0,0.0,0.0,0.0,0.0,0.0,0.0,0.0,0.0,0.0,0.0,0.0,0.0,0.0,0.0,0.0,0.0,0.8064,0.0,0.0,0.0,0.0,0.0,0.0,0.0,0.0,0.0,0.0,0.0,0.0,0.0,0.0,0.0,0.0,0.0,0.0,0.0,0.0,0.0,0.0,0.0,-0.2685,-0.3594,-0.4143,-0.518,-0.6092,-0.6766,-0.7804,-0.8514,-0.881,-0.8947,-0.9027,-0.9098,-0.9428,-0.9836,-1.0312,-1.1404,-1.2589,-1.384,-1.4383,-1.3412,-1.1284,-1.2036,0.0,0.0,0.0,0.0,0.0,0.0,0.0,0.0,0.0,0.0,0.0,0.0,0.0,0.0,0.0,0.0,0.0,0.0,0.0,0.0,0.0,0.0,0.0,0.0,0.0,0.0,0.0,0.0,0.0,0.0,0.0,0.0,0.0,0.0,0.0,0.0,0.0,0.0,0.0,0.0,0.0,0.0,0.0,0.0,0.0,0.0,0.0,0.0,0.0,0.0,0.0,0.0,0.0,0.0,0.0,0.0,0.0,0.0,0.0,0.0,0.0,0.0,0.0,0.4027,0.3376,0.1833,0.3134,0.3141,0.2317,0.5761,0.4026,-0.0817,0.0,0.0,0.0,0.0,0.0,0.0,0.0,0.0,0.0,0.0,0.0,0.0,0.0,0.0,0.0,0.0,0.0,0.0,0.0,0.0,0.0,0.0,-0.4784,-0.5392,-0.5772,-0.6353,-0.6902,-0.7282,-0.8481,-0.9309,-0.9609,-1.0264,-1.0774,-1.1111,-1.1148,-1.1578,-1.2313,-1.2613,-1.2735,-1.2797,-1.4029,-1.4735,-1.4897,-1.5254,-1.5684,-1.6242,0.0,0.0,0.0,0.0,0.0,0.0,0.0,0.0,0.0,0.0,0.0,0.0,0.0,0.0,0.0,0.0,0.0,0.0,0.0,0.0,0.0,0.0,0.0,0.0,0.0,0.0,0.0,0.0,0.0,0.0,0.0,0.0,0.0,0.0,0.0,0.0,0.0,0.0,0.0,0.0,0.0,1.4264,1.4691,0.0,0.0,0.0,0.0,0.0,0.0,0.0,0.0,0.0,0.0,0.0,0.0,0.0,1.1111,1.0943,0.7739,0.4789,0.2113,-0.1433,-0.4492,-0.6912,-0.3613,-0.241,-0.2932,-0.2895,0.0,0.1522,-0.231,0.0,0.0,0.0,0.0,0.0,0.0,0.0,0.0,0.0,0.0,0.0,0.0,0.0,0.0,0.0,0.0,0.0,0.0,0.0,0.0,0.0,-0.4924,-0.5549,-0.6121,-0.6399,-0.6944,-0.7885,-0.8807,-0.956,-1.0108,-1.0641,-1.0995,-1.1164,-1.1637,-1.2557,-1.395,-1.4019,-1.458,-1.5545,-1.6126,-1.6922,-1.7829,-1.7963,-1.815,-1.8377,-1.8747,0.0,0.0,0.0,0.0,0.0,0.0,0.0,0.0,0.0,0.0,0.0,0.0,0.0,0.0,0.0,0.0,0.0,0.0,0.0,0.0,0.0,0.0,0.0,0.0,0.0,0.0,0.0,0.0,0.0,0.0,0.0,0.0,0.0,0.0,0.0,0.0,0.0,0.0,0.0,1.5246,1.7841,1.435,1.5193,1.5739,0.0,0.0,0.0,0.0,0.0,0.0,0.0,0.0,0.0,0.914,0.8916,0.8166,0.6769,0.3544,0.0715,-0.1736,-0.5203,-0.7611,-0.8926,-0.7326,-0.5545,-0.4012,-0.8129,-0.7205,-0.2985,-0.5046,-0.769,-1.0113,0.0,0.0,0.0,0.0,-1.4243,-1.4401,0.0,0.0,0.0,0.0,0.0,0.0,0.0,0.0,0.0,0.0,0.0,0.0,-0.4665,-0.4865,-0.5379,-0.6225,-0.6307,-0.7055,-0.8645,-0.9128,-0.9762,-1.0621,-1.0937,-1.1099,-1.1212,-1.2092,-1.3358,-1.5083,-1.5286,-1.6115,-1.7586,-1.7931,-1.8487,-1.9211,-1.9763,-1.9926,-1.9737,-2.0106,-2.0753,-2.1486,0.0,0.0,0.0,0.0,0.0,0.0,0.0,0.0,0.0,0.0,0.0,0.0,0.0,0.0,0.0,0.0,0.0,0.0,0.0,0.0,0.0,0.0,0.0,0.0,0.0,0.0,0.0,0.0,0.0,0.0,0.0,0.0,0.0,0.0,0.0,0.0,0.0,1.4828,1.808,1.421,1.5707,1.6584,0.0,0.0,0.0,0.0,0.0,0.0,1.0654,1.0293,0.9289,0.7438,0.7028,0.5902,0.4065,0.109,-0.1527,-0.3694,-0.647,-0.8317,-0.9285,-0.9211,-0.7054,-0.369,-0.9894,-1.0299,-0.6678,-0.8181,-1.2443,-1.7596,-1.3337,-1.4423,-1.8374,-1.822,-1.8091,-1.7962,0.0,0.0,0.0,0.0,0.0,0.0,0.0,0.0,0.0,0.0,0.0,-0.5687,-0.5869,-0.5251,-0.5281,-0.6497,-0.6513,-0.7401,-0.9571,-0.9579,-1.0077,-1.1378,-1.1479,-1.1664,-1.2041,-1.2968,-1.4147,-1.5567,-1.6126,-1.6645,-1.7043,-1.8367,-1.8583,-1.8104,-2.033,-2.0792,-2.0034,-2.0716,-2.1503,-2.2264,-2.2475,0.0,0.0,0.0,0.0,0.0,0.0,0.0,0.0,0.0,0.0,0.0,0.0,0.0,0.0,0.0,0.0,0.0,0.0,0.0,0.0,0.0,0.0,0.0,0.0,0.0,0.0,0.0,0.0,0.0,0.0,0.0,0.0,0.0,0.0,0.0,0.0,0.0,0.0,1.6586,1.6405,0.0,0.0,0.0,0.0,1.0632,1.1465,1.1209,0.9234,0.8122,0.7953,0.8692,0.7274,0.6652,0.6876,0.3243,0.0427,-0.1477,-0.3996,-0.6744,-0.9585,-0.9299,-0.6724,-0.2609,-0.7045,-0.7723,-0.6232,-1.36,-1.6881,-1.7253,-1.7076,-1.7567,-1.843,-1.8748,-1.8532,-1.8186,0.0,0.0,0.0,0.0,0.0,0.0,0.0,0.0,-0.6234,-0.6319,-0.6152,-0.6168,-0.6582,-0.5801,-0.5558,-0.6324,-0.6245,-0.6818,-0.8553,-0.8921,-0.9753,-1.1184,-1.1405,-1.1774,-1.2396,-1.3624,-1.4849,-1.598,-1.664,-1.76,-1.8821,-1.9273,-2.003,-2.0952,-2.1799,-2.2719,-2.3601,-2.3214,-2.3412,-2.4051,-2.4249,-2.43,0.0,0.0,0.0,0.0,0.0,0.0,0.0,0.0,0.0,0.0,0.0,0.0,0.0,0.0,0.0,0.0,0.0,0.0,0.0,0.0,0.0,0.0,0.0,0.0,0.0,0.0,0.0,0.0,0.0,0.0,0.0,0.0,0.0,0.0,0.0,0.0,0.0,1.1809,1.1412,0.0,1.2106,1.1219,1.0223,0.947,0.9922,0.9731,0.8567,0.8262,0.7747,0.6879,0.6887,0.5891,0.3857,0.2264,-0.016,-0.347,-0.5963,-0.7541,-0.8231,-0.8502,-0.7628,-0.6175,-1.0761,-1.1969,-1.1058,-1.5858,-1.7324,-1.6638,-1.7269,-1.7663,-1.8006,-1.899,-1.9157,-1.8979,0.0,0.0,0.0,0.0,0.0,0.0,0.0,0.0,-0.7061,-0.7049,-0.6591,-0.6404,-0.6715,-0.6006,-0.5839,-0.6712,-0.6458,-0.6978,-0.8622,-0.9128,-0.9917,-1.1283,-1.1861,-1.248,-1.315,-1.4485,-1.5657,-1.6639,-1.7482,-1.8522,-1.9836,-2.0303,-2.1161,-2.2323,-2.3324,-2.45,-2.5743,-2.5737,-2.5735,-2.5794,-2.5613,-2.5485,-2.518,0.0,0.0,0.0,0.0,0.0,0.0,0.0,0.0,0.0,0.0,0.0,0.0,0.0,0.0,0.0,0.0,0.0,0.0,0.0,0.0,0.0,0.0,0.0,0.0,0.0,0.0,0.0,0.0,0.0,0.0,0.0,0.0,0.0,0.0,0.0,0.3919,0.6681,0.6801,0.7092,0.8167,0.792,0.7666,0.7569,0.8304,0.8244,0.7128,0.7203,0.681,0.5677,0.5238,0.4142,0.2333,-0.0215,-0.242,-0.4304,-0.6833,-0.7828,-0.7486,-0.7763,-0.8203,-0.8936,-1.2086,-1.3803,-1.4549,-1.699,-1.7523,-1.6923,-1.741,-1.7603,-1.7742,-1.8981,-1.9408,-1.9408,0.0,0.0,0.0,0.0,0.0,0.0,0.0,-0.7273,-0.7213,-0.7134,-0.6789,-0.647,-0.6289,-0.5884,-0.6196,-0.7672,-0.7381,-0.7961,-1.0052,-1.0231,-1.0709,-1.1793,-1.2857,-1.371,-1.4319,-1.5498,-1.6622,-1.7557,-1.87,-1.9424,-1.9915,-2.1381,-2.197,-2.1973,-2.4838,-2.6107,-2.6301,-2.8196,-2.8446,-2.7494,-2.643,-2.6871,-2.8004,0.0,0.0,0.0,0.0,0.0,0.0,0.0,0.0,0.0,0.0,0.0,0.0,0.0,0.0,0.0,0.0,0.0,0.0,0.0,0.0,0.0,0.0,0.0,0.0,0.0,0.0,0.0,0.0,0.0,0.0,0.0,0.0,0.0,-0.5413,-0.3091,-0.0921,0.1759,0.298,0.4023,0.5012,0.5452,0.5409,0.4785,0.6374,0.6572,0.4738,0.4678,0.4823,0.5148,0.2325,0.1431,0.2682,-0.4005,-0.6185,-0.3839,-0.6236,-0.7413,-0.7427,-0.7132,-0.8196,-1.0346,-1.053,-1.2676,-1.6076,-1.7135,-1.7848,-1.8237,-1.7848,-1.7698,-1.7781,-1.8788,-1.9261,-1.9465,0.0,0.0,0.0,0.0,0.0,0.0,0.0,-0.7724,-0.7884,-0.8085,-0.7577,-0.7328,-0.7625,-0.7589,-0.7731,-0.8178,-0.8808,-0.9473,-1.0205,-1.084,-1.1675,-1.2692,-1.3912,-1.4591,-1.4665,-1.6244,-1.7608,-1.88,-1.9482,-2.0503,-2.202,-2.2911,-2.3999,-2.5314,-2.7083,-2.8807,-3.0371,-3.0867,-3.1452,-3.1828,-2.9255,-2.8314,-2.8161,0.0,0.0,0.0,0.0,0.0,0.0,0.0,0.0,0.0,0.0,0.0,0.0,0.0,0.0,0.0,0.0,0.0,0.0,0.0,0.0,0.0,0.0,0.0,0.0,0.0,0.0,0.0,0.0,0.0,0.0,0.0,0.0,-1.2009,-0.8312,-0.8334,-0.7374,-0.3638,-0.3036,-0.1943,0.05,0.0834,0.1053,0.1512,0.1823,0.1804,0.1509,0.2078,0.2106,0.1494,0.0055,-0.1212,-0.2237,-0.5692,-0.6998,-0.6152,-0.661,-0.6635,-0.6273,-0.6367,-0.6634,-0.7262,-1.1131,-1.3258,-1.4262,-1.7478,-1.9254,-1.9942,-2.0134,-1.9815,-1.9403,-2.0448,-2.0934,-2.1003,0.0,0.0,0.0,0.0,0.0,0.0,0.0,-0.8456,-0.8432,-0.8431,-0.8304,-0.8166,-0.8196,-0.8632,-0.9055,-0.94,-1.0015,-1.0517,-1.0883,-1.1588,-1.2587,-1.3936,-1.4746,-1.5429,-1.594,-1.7357,-1.869,-1.9914,-2.0601,-2.1811,-2.3526,-2.4648,-2.5997,-2.7461,-2.9103,-3.0784,-3.2464,-3.2747,-3.3517,-3.4321,-3.2419,-3.1474,-3.0972,-2.9087,-2.8172,-2.7505,-2.4891,-2.3936,-2.3452,-2.0425,0.0,0.0,0.0,0.0,0.0,0.0,0.0,0.0,0.0,0.0,0.0,0.0,0.0,0.0,0.0,0.0,0.0,0.0,0.0,0.0,0.0,0.0,0.0,0.0,-1.4584,-1.373,-1.2014,-1.1537,-1.0531,-0.8254,-0.7089,-0.5837,-0.4077,-0.2887,-0.1921,-0.1196,-0.0874,-0.0737,-0.0657,-0.0355,-0.0582,-0.1478,-0.2847,-0.41,-0.523,-0.7231,-0.8131,-0.7929,-0.8072,-0.79,-0.746,-0.8172,-0.8918,-0.9845,-1.3016,-1.4888,-1.5947,-1.9155,-2.0528,0.0,0.0,0.0,0.0,0.0,-2.1826,-2.2154,0.0,0.0,0.0,0.0,0.0,0.0,0.0,-0.9279,-0.8923,-0.861,-0.8928,-0.8977,-0.8421,-0.9291,-1.0157,-1.0798,-1.0954,-1.1306,-1.1946,-1.2511,-1.3561,-1.5297,-1.5542,-1.6314,-1.7715,-1.8796,-1.9973,-2.1146,-2.2126,-2.3417,-2.4913,-2.6672,-2.8017,-2.8951,-3.1005,-3.2512,-3.355,-3.448,-3.5368,-3.6131,-3.6039,-3.5602,-3.487,-3.3739,-3.3488,-3.3236,-2.9484,-2.737,-2.6048,-2.3846,0.0,0.0,0.0,0.0,0.0,0.0,0.0,0.0,0.0,0.0,0.0,0.0,0.0,0.0,0.0,0.0,0.0,0.0,0.0,0.0,0.0,0.0,0.0,0.0,-1.5558,-1.5595,-1.5926,-1.3596,-1.1825,-1.1897,-0.9819,-0.8292,-0.8035,-0.5942,-0.4382,-0.3886,-0.2947,-0.2505,-0.2729,0.0,0.0,0.0,0.0,-0.7095,-0.7095,-0.8759,-0.9466,-0.9285,-1.0008,-1.0215,-0.9973,-1.1162,-1.2759,-1.4726,-1.5135,-1.6571,-1.8873,-2.0998,-2.154,-2.0962,-2.0475,-2.0721,-2.1399,-2.1642,-2.2246,-2.2942,0.0,0.0,0.0,0.0,0.0,0.0,0.0,-0.9408,-0.9273,-0.9579,-0.9694,-0.9684,-0.9503,-1.0196,-1.0772,-1.097,-1.1571,-1.2341,-1.3203,-1.4075,-1.4908,-1.5844,-1.6704,-1.776,-1.9076,-2.0438,-2.1786,-2.3138,-2.4595,-2.5925,-2.7195,-2.9244,-3.0428,-3.1037,-3.3425,-3.5178,-3.649,-3.7773,-3.9061,-4.0228,-4.0671,-3.8742,-3.5562,-3.4946,-3.4659,-3.4507,-3.4056,-3.35,-3.2328,-2.8249,-2.5441,-2.2914,-1.8564,0.0,0.0,0.0,0.0,0.0,0.0,0.0,0.0,0.0,0.0,0.0,0.0,0.0,0.0,0.0,0.0,0.0,0.0,0.0,0.0,-1.7938,-1.8176,-1.8316,-1.8246,-1.6857,-1.5102,-1.3154,-1.1914,-1.062,-0.9093,-0.8798,-0.8446,-0.7871,-0.7833,-0.8073,-0.856,-0.8634,-0.8693,-0.8706,-0.9315,-0.9683,-0.9683,-1.0236,-1.0492,-1.0492,0.0,0.0,-1.1312,-1.1493,-1.1569,-1.1774,-1.4222,-1.541,-1.5886,-1.9201,-2.1484,-2.2878,-2.2775,-2.26,-2.2424,-2.2538,-2.2776,-2.3067,0.0,0.0,0.0,0.0,0.0,0.0,0.0,-0.9883,-0.9817,-1.0056,-1.0241,-1.0293,-1.0235,-1.0857,-1.1336,-1.1509,-1.2341,-1.3225,-1.4108,-1.4879,-1.5877,-1.7108,-1.8301,-1.9559,-2.1002,-2.2159,-2.3647,-2.5491,-2.6564,-2.7855,-2.9456,-3.1162,-3.2352,-3.3155,-3.5166,-3.6911,-3.836,-3.9494,-4.0683,-4.1889,-4.2185,-4.1147,-3.9428,-3.9133,-3.8429,-3.763,-3.75,-3.6485,-3.4834,-3.2074,-2.924,-2.6288,-2.3043,-1.9221,-1.618,0.0,0.0,0.0,0.0,0.0,0.0,0.0,0.0,0.0,0.0,0.0,0.0,0.0,0.0,-1.7276,-1.6792,0.0,-1.8058,-1.7666,-1.8151,-1.8528,-1.8415,-1.7144,-1.5802,-1.4622,-1.3339,-1.2128,-1.1169,-1.0683,-1.0305,-0.9951,-1.014,-1.045,-1.1041,-1.1141,-1.1301,-1.1572,-1.1866,-1.2049,-1.2049,-1.2298,-1.2364,-1.224,-1.2646,-1.2975,-1.3235,-1.4395,-1.4794,-1.4669,-1.6676,-1.7042,-1.6374,-1.7684,-1.9014,-2.0306,-2.0306,-2.1604,-2.3492,-2.3341,-2.3472,-2.3693,0.0,0.0,0.0,0.0,0.0,0.0,0.0,-1.0361,-1.043,-1.0428,-1.0711,-1.0883,-1.0899,-1.1387,-1.1804,-1.2003,-1.3079,-1.3997,-1.4669,-1.5572,-1.6868,-1.8582,-1.9977,-2.1446,-2.3031,-2.4162,-2.5705,-2.7745,-2.8606,-2.9797,-3.1438,-3.2772,-3.3977,-3.5077,-3.656,-3.8245,-3.9959,-4.073,-4.182,-4.2942,-4.3005,-4.3167,-4.3382,-4.3308,-4.2247,-4.0651,-3.958,-3.7695,-3.5573,-3.4526,-3.1464,-2.7964,-2.7141,-2.3014,-1.8689,-1.9767,-1.8987,0.0,0.0,0.0,0.0,0.0,0.0,0.0,0.0,0.0,-1.7897,-1.7946,-1.802,-1.7881,-1.7417,-1.8112,-1.8496,-1.762,-1.8086,-1.8552,-1.8361,-1.7056,-1.603,-1.5882,-1.4196,-1.3045,-1.2801,-1.1866,-1.1301,-1.1425,-1.1487,-1.1804,-1.2565,-1.2724,-1.3097,-1.3683,-1.3923,-1.4043,-1.4043,-1.4172,-1.4172,-1.4043,-1.4706,-1.5059,-1.5225,-1.7124,-1.7958,-1.8058,-1.8995,-1.8969,-1.8272,-1.7536,-1.7508,-1.793,-1.7808,-1.9984,-2.3235,-2.3181,-2.3415,-2.3848,0.0,0.0,0.0,0.0,0.0,0.0,0.0,0.0,-1.0889,-1.0972,-1.1287,-1.1531,-1.1581,-1.1674,-1.1814,-1.2167,-1.3655,-1.4653,-1.4844,-1.6435,-1.8178,-1.9927,-2.1542,-2.3145,-2.4807,-2.6688,-2.822,-2.9417,-3.1242,-3.2367,-3.29,-3.4313,-3.5474,-3.6516,-3.7717,-3.9532,-4.1757,-4.2504,-4.358,-4.4819,-4.5129,-4.492,-4.4439,-4.454,-4.3452,-4.1528,-3.9234,-3.7299,-3.5528,-3.3901,-3.0534,-2.696,-2.632,-2.3876,-2.1335,-2.1696,0.0,-1.9595,-1.9923,-1.8493,-1.6921,-1.7053,-1.68,-1.6895,0.0,0.0,-1.8241,-1.8448,-1.8713,-1.8934,-1.9101,-1.9549,-2.0111,-2.076,-2.085,-2.0648,-2.0127,-1.8855,-1.7501,-1.6115,-1.4499,-1.307,-1.222,-1.2166,-1.2413,-1.3009,-1.313,-1.3674,-1.4784,-1.4843,-1.4951,-1.5177,-1.5177,-1.5235,-1.5235,-1.5235,-1.5235,-1.5235,-1.5294,-1.5911,-1.6922,-1.6754,-1.6818,-1.6983,-1.7715,-1.8945,-2.0457,-2.0782,-2.0774,-2.0535,-1.9984,-1.9628,-1.953,-2.0515,-2.1336,-2.2237,0.0,0.0,0.0,0.0,0.0,0.0,0.0,0.0,0.0,-1.0923,-1.1129,-1.1308,-1.1456,-1.194,-1.2343,-1.2647,-1.3835,-1.4856,-1.542,-1.6922,-1.8635,-2.0617,-2.2501,-2.4497,-2.6556,-2.8259,-3.0004,-3.1805,-3.291,-3.3991,-3.5032,-3.6024,-3.6935,-3.7789,-3.89,-4.0443,-4.2291,-4.3151,-4.4306,-4.5544,-4.5163,-4.4948,-4.4611,-4.2685,-4.1145,-3.9881,-3.8764,-3.6575,0.0,-3.2842,-3.0914,-2.889,-2.8182,-2.5348,-2.2346,-2.271,-2.0959,0.0,-1.9376,-1.8258,0.0,0.0,-1.7651,-1.7951,-1.8788,-1.8882,-1.8871,-1.9227,-1.9389,-1.9543,-1.9854,-2.0476,-2.0854,0.0,-2.0443,-2.0183,-1.9156,-1.7997,-1.6981,-1.6246,-1.5248,-1.4163,-1.2964,-1.2964,-1.3177,-1.3704,-1.3517,-1.3848,-1.4888,-1.4726,-1.4834,-1.5254,-1.5362,-1.5362,-1.5254,-1.5254,-1.5137,-1.4883,-1.5235,-1.54,-1.5381,-1.6032,-1.6629,-1.7165,-1.6744,-1.7035,-1.7786,-1.6855,-1.6017,-1.5341,-1.5083,-1.4352,-1.3933,-1.7846,-1.9547,-2.0001,0.0,0.0,0.0,0.0,0.0,0.0,0.0,0.0,0.0,0.0,-1.1409,-1.1729,-1.1947,-1.266,-1.3179,-1.3234,-1.4132,-1.5039,-1.5813,-1.7222,-1.9092,-2.1508,-2.3497,-2.5766,-2.8357,-2.9706,-3.135,-3.3371,-3.4122,-3.5143,-3.6468,-3.7183,-3.8044,-3.9013,-3.9798,-4.1022,-4.2544,-4.3235,-4.4176,-4.5142,-4.4277,-4.3786,-4.3247,-4.0281,-3.8176,-3.6753,-3.6657,-3.4663,-3.1944,-3.1015,-3.0146,-2.9363,-2.8909,-2.6569,-2.3959,-2.3938,-2.1749,-1.9248,-1.8841,0.0,0.0,-1.7537,-1.8088,-1.867,-1.9279,-1.9441,-1.9551,-1.9806,-1.9715,-1.973,-2.0099,-2.0511,0.0,-2.0079,-1.9931,-1.9581,-1.8585,-1.7626,-1.6819,-1.6327,-1.5713,-1.5001,-1.3872,-1.3812,-1.3926,-1.4144,-1.3848,-1.3995,-1.4839,-1.4625,-1.4647,-1.5156,-1.5254,-1.5254,-1.5156,-1.5156,-1.5029,-1.4834,-1.5245,-1.5235,-1.4874,-1.5861,-1.6714,-1.7378,-1.6263,-1.5941,-1.6138,-1.4483,-1.322,-1.2316,-1.1956,-1.1231,-1.0797,-1.4905,-1.7006,-1.7977,0.0,0.0,0.0,0.0,0.0,0.0,0.0,0.0,0.0,0.0,0.0,0.0,0.0,-1.416,-1.4369,-1.3893,-1.4668,-1.5367,-1.5794,-1.7369,-1.9669,-2.2802,-2.4754,-2.7165,-3.0164,-3.1303,-3.2429,-3.3571,-3.4772,-3.5784,-3.66,-3.7408,-3.8682,-4.0265,-4.0278,-4.1193,-4.2698,-4.2787,-4.3083,-4.3415,-4.2603,-4.1345,-3.9765,-3.7966,-3.5176,-3.2198,-3.2115,-3.0986,-2.9327,-2.8128,-2.7326,-2.6871,-2.7093,-2.7174,0.0,-2.5832,-2.386,-2.1509,0.0,0.0,-1.7484,-1.6945,-1.7567,-1.8521,-1.9233,-1.9812,-2.0153,-2.0031,-1.9587,-1.9364,-1.9732,-1.9383,-1.9379,-2.0686,-2.0031,-1.9441,-1.9377,-1.8676,-1.7638,-1.6253,-1.569,-1.5177,0.0,-1.4597,-1.4656,-1.4666,-1.4538,-1.4666,-1.5176,-1.5039,-1.5039,-1.5215,-1.5098,-1.5029,-1.5039,-1.5039,-1.5205,-1.5672,-1.5672,-1.6124,-1.6888,-1.6673,-1.6832,-1.7191,-1.6465,-1.6738,-1.7571,-1.6481,-1.5616,-1.4883,-1.3618,-1.2736,-1.2049,-1.1566,-1.334,-1.6447,0.0,0.0,0.0,0.0,0.0,0.0,0.0,0.0,0.0,0.0,0.0,0.0,0.0,0.0,0.0,0.0,-1.5421,-1.6154,-1.701,-1.7544,-1.9224,-2.2338,-2.3801,-2.5889,-2.8697,-3.0141,-3.1591,-3.3138,-3.3539,-3.4194,-3.5084,-3.5479,-3.6396,-3.7719,-3.7942,-3.8959,-4.0513,-4.0621,-4.0782,-4.0828,-3.9392,-3.8176,-3.6825,-3.33,-3.1191,-2.9892,0.0,-2.7024,-2.6443,-2.538,-2.4694,-2.4429,-2.5094,-2.4911,-2.4283,-2.3433,-2.0678,-1.7862,-1.7804,0.0,-1.6762,-1.697,-1.8476,-2.0172,-2.0878,-2.0891,-2.0848,-2.1188,-2.019,-1.9282,-1.9393,-1.8869,-1.859,-1.8962,-1.8714,-1.8358,-1.8163,-1.7632,-1.7043,-1.6384,-1.6056,0.0,0.0,0.0,0.0,-1.4653,-1.4255,-1.4288,-1.5055,-1.4676,-1.4656,-1.5029,-1.4784,-1.4606,-1.4488,-1.4666,-1.4656,-1.4419,-1.4547,-1.4893,-1.5468,-1.5267,-1.5511,-1.594,-1.4878,-1.5153,-1.6234,-1.5148,-1.4232,-1.3553,-1.3111,-1.24,-1.1584,-1.0897,-1.2816,-1.5894,0.0,0.0,0.0,0.0,0.0,0.0,0.0,0.0,0.0,0.0,0.0,0.0,0.0,0.0,0.0,0.0,0.0,-1.6834,-1.8025,-1.8267,-1.9715,-2.2765,-2.3893,-2.5537,-2.7843,-2.8769,-2.9787,-3.0894,-3.1346,-3.1967,-3.2749,-3.3486,-3.4486,-3.5707,-3.5931,-3.6837,-3.8167,-3.7909,-3.763,-3.7187,-3.5449,-3.4198,-3.2978,-2.9519,-2.8136,0.0,-2.5267,-2.4431,-2.4423,-2.4024,-2.3785,-2.3636,-2.388,-2.3436,-2.2721,-2.2417,-1.9597,-1.6717,-1.7254,-1.6904,-1.636,-1.6728,-1.9021,-2.1341,-2.1831,-2.1861,-2.172,-2.1443,-2.0192,-1.8974,-1.8473,-1.7831,-1.747,-1.7688,-1.7577,-1.7467,-1.7399,-1.7045,-1.6768,-1.6659,-1.6485,0.0,0.0,0.0,0.0,-1.5037,-1.4744,-1.4735,-1.5098,-1.4906,-1.4883,-1.5264,-1.501,-1.4834,-1.4725,-1.4893,-1.4899,-1.4759,-1.499,-1.5229,-1.5467,-1.5102,-1.5037,-1.5107,-1.4118,-1.4171,-1.4878,-1.4081,-1.3513,-1.3032,-1.2602,-1.2016,-1.1316,-1.0431,-1.2118,-1.4985,0.0,0.0,0.0,0.0,0.0,0.0,0.0,0.0,0.0,0.0,0.0,0.0,0.0,0.0,0.0,0.0,0.0,0.0,-1.8831,-1.9409,-2.1038,-2.4036,-2.4871,-2.5995,-2.7549,-2.7342,-2.7218,-2.7232,-2.8465,-2.9257,-2.9684,-3.1283,-3.2744,-3.401,-3.4114,-3.472,-3.5589,-3.4745,-3.3793,-3.2725,-3.1031,-2.9656,-2.8456,-2.6713,-2.5998,-2.569,-2.3911,-2.3263,-2.3336,-2.4004,-2.4352,-2.4355,-2.3499,-2.2929,-2.2604,-2.2942,-2.076,-1.818,-1.7848,-1.7173,-1.6533,-1.6539,-1.9274,-2.2008,-2.213,-2.2658,-2.2612,-2.0845,-1.956,-1.8331,0.0,0.0,-1.6231,-1.6975,-1.6768,-1.6688,-1.7157,-1.703,-1.6937,0.0,0.0,0.0,0.0,0.0,0.0,-1.5918,0.0,-1.5978,-1.5498,-1.5673,-1.58,-1.58,-1.5673,-1.5663,-1.5742,-1.5547,-1.5812,-1.6538,-1.6838,-1.6878,-1.6717,-1.5969,-1.5312,-1.4684,-1.4156,-1.3847,-1.3657,-1.339,-1.3424,-1.3468,-1.2287,-1.1713,-1.1342,-1.0072,-1.1207,-1.3828,0.0,0.0,0.0,0.0,0.0,0.0,0.0,0.0,0.0,0.0,0.0,0.0,0.0,0.0,0.0,0.0,0.0,0.0,-2.051,-2.0223,-2.1101,-2.3569,-2.3594,-2.4306,-2.5947,-2.6005,-2.62,-2.6551,-2.6872,-2.6818,-2.6407,-2.6937,-2.7719,-2.8683,-2.9355,-3.0101,-3.0876,-3.1246,-3.0814,-2.9805,-2.8647,-2.7607,-2.6517,-2.4667,-2.4309,-2.4645,-2.343,-2.3345,0.0,0.0,0.0,0.0,0.0,-2.3947,-2.4425,-2.4814,-2.2631,-2.0344,-2.1341,-2.0631,-1.9661,-1.9719,-2.1401,-2.3121,-2.3275,-2.239,-2.1614,-2.1705,-1.9503,-1.7424,0.0,0.0,0.0,-1.6713,-1.6873,0.0,-1.7763,-1.8086,0.0,0.0,0.0,-1.8905,-1.8616,-1.9059,0.0,0.0,-1.7399,-1.6877,-1.6582,-1.6869,-1.6992,-1.688,-1.6562,-1.6377,-1.6387,-1.6243,-1.6488,-1.6999,-1.6854,-1.6429,-1.576,-1.5285,-1.4953,-1.4603,-1.3438,-1.3178,-1.3451,-1.3439,-1.3338,-1.3081,-1.2539,-1.2404,-1.2307,-1.0791,-1.1778,-1.4303,0.0,0.0,0.0,0.0,0.0,0.0,0.0,0.0,0.0,0.0,0.0,0.0,0.0,0.0,0.0,0.0,0.0,0.0,0.0,-2.1816,-2.2387,-2.4219,-2.409,-2.4252,-2.483,-2.4957,-2.4762,-2.4235,-2.4625,-2.4391,-2.3593,-2.4042,-2.4722,-2.5577,-2.6097,-2.6928,-2.7919,-2.7995,-2.7595,0.0,0.0,-2.5144,-2.4484,-2.3395,-2.3492,-2.41,-2.3508,0.0,0.0,0.0,0.0,-2.4617,-2.4646,-2.4912,-2.5255,-2.5697,0.0,-2.1191,-2.2243,-2.148,-2.0447,-2.0856,-2.2258,-2.3459,-2.3039,-2.2356,-2.1486,-2.0385,-1.8865,0.0,0.0,0.0,0.0,0.0,0.0,0.0,-1.8235,-1.8385,-1.8519,0.0,-1.9459,0.0,-1.9599,-1.996,-1.9878,0.0,-1.8417,-1.7905,-1.7585,-1.7688,-1.775,-1.7698,-1.7523,-1.7336,-1.7211,-1.7266,-1.7276,-1.7169,-1.7519,-1.6891,-1.5401,-1.5482,-1.4917,-1.381,0.0,-1.2822,-1.2915,-1.303,-1.3144,-1.3182,-1.247,-1.2295,-1.2271,-1.0793,-1.2488,-1.5552,0.0,0.0,0.0,0.0,0.0,0.0,0.0,0.0,0.0,0.0,0.0,0.0,0.0,0.0,0.0,0.0,0.0,0.0,0.0,0.0,-2.4107,-2.5274,-2.5284,-2.4953,-2.4305,-2.4297,-2.3506,-2.1925,-2.2691,-2.2589,-2.1678,-2.2419,-2.3163,-2.3884,-2.4038,-2.48,-2.5931,-2.5265,-2.4777,-2.4369,-2.3531,-2.3106,-2.2936,0.0,0.0,0.0,0.0,0.0,0.0,0.0,-2.4764,-2.4991,-2.5643,-2.5825,-2.5848,-2.6165,-2.4277,-2.2247,-2.2748,-2.1862,-2.0955,-2.1616,-2.277,-2.3396,-2.2264,-2.2192,-2.1456,-1.844,0.0,-1.7893,-1.6271,0.0,-1.6378,-1.6991,0.0,-1.7047,-1.8738,-1.8588,-1.8748,-1.9952,-2.0104,-2.0284,-2.059,-2.0486,-2.0249,-1.9933,-1.9394,-1.8901,-1.8516,-1.8433,-1.8433,-1.8382,-1.8588,-1.8505,-1.8184,-1.8375,-1.8154,-1.7409,-1.8333,-1.7688,-1.5515,-1.6086,-1.5102,-1.3009,-1.307,0.0,-1.2451,-1.2696,-1.3109,-1.3584,-1.2389,-1.1946,-1.189,-1.0516,-1.3002,-1.664,0.0,0.0,0.0,0.0,0.0,0.0,0.0,0.0,0.0,0.0,-2.4098,-2.3275,0.0,0.0,0.0,0.0,0.0,0.0,0.0,0.0,0.0,-2.5421,-2.4838,-2.4726,-2.5242,-2.4563,-2.4044,0.0,0.0,-2.3412,-2.2485,-2.2594,-2.269,-2.2805,-2.3362,-2.3674,-2.3787,-2.4244,-2.43,-2.408,-2.3855,-2.3739,-2.3697,-2.3569,0.0,0.0,0.0,0.0,0.0,0.0,-2.5887,-2.6313,-2.6103,-2.6874,-2.7756,-2.7097,-2.7,-2.7203,-2.7895,-2.6965,-2.5857,-2.6016,-2.481,-2.3336,-2.2248,-2.0627,0.0,0.0,0.0,-1.73,-1.7437,-1.7262,0.0,-1.8106,0.0,0.0,0.0,0.0,-2.0361,0.0,0.0,0.0,0.0,0.0,0.0,0.0,0.0,-2.0018,-1.9425,-1.963,-1.963,-1.936,-1.9371,-1.9308,-1.9089,-1.9091,-1.8824,-1.828,-1.8366,-1.7624,-1.6156,-1.5965,-1.5191,-1.3965,-1.3846,0.0,-1.3199,-1.3863,-1.4118,-1.3983,-1.2819,-1.2586,-1.2572,-1.047,-1.2103,-1.5223,0.0,0.0,0.0,0.0,0.0,0.0,0.0,-2.5377,-2.5362,-2.5302,-2.4892,-2.4365,-2.3669,-2.4325,-2.4498,0.0,0.0,0.0,0.0,0.0,0.0,0.0,0.0,0.0,0.0,0.0,0.0,0.0,0.0,0.0,0.0,0.0,0.0,0.0,0.0,0.0,-2.3065,-2.3418,-2.3673,-2.3831,-2.381,-2.3747,0.0,0.0,0.0,0.0,0.0,0.0,0.0,0.0,-2.4567,-2.5917,-2.6772,-2.7494,-2.7947,-2.7389,-2.7734,-2.8232,-2.7875,-2.7153,-2.6377,-2.5805,-2.4288,-2.2511,-2.086,0.0,0.0,0.0,0.0,-1.7839,-1.7487,0.0,0.0,0.0,0.0,0.0,0.0,0.0,0.0,0.0,0.0,0.0,0.0,0.0,0.0,0.0,0.0,-2.073,-2.014,-2.0064,-1.9944,-1.9736,-1.9922,-1.9998,-1.9885,-1.982,-1.9555,-1.8992,-1.8944,-1.7954,-1.6155,-1.6397,-1.5602,-1.4085,-1.4034,0.0,-1.3199,-1.3623,-1.3914,-1.399,-1.3208,-1.2946,-1.3042,-1.3182,-1.4854,-1.6889,0.0,0.0,0.0,0.0,0.0,0.0,0.0,-2.5236,-2.5214,-2.508,-2.5126,-2.5008,-2.4477,-2.5051,-2.5229,0.0,0.0,0.0,0.0,0.0,0.0,0.0,0.0,0.0,0.0,0.0,0.0,0.0,0.0,0.0,0.0,0.0,0.0,0.0,0.0,0.0,0.0,-2.3107,-2.3335,0.0,0.0,0.0,0.0,0.0,0.0,0.0,0.0,0.0,0.0,0.0,-2.3187,-2.4729,-2.6479,-2.7134,-2.7215,-2.687,-2.7394,-2.7833,-2.6863,-2.6442,-2.6006,-2.5016,-2.3561,-2.1909,-1.9821,-1.9695,0.0,0.0,-1.7452,-1.8296,-1.7388,0.0,0.0,0.0,0.0,0.0,0.0,0.0,0.0,0.0,0.0,0.0,0.0,0.0,0.0,0.0,0.0,0.0,-2.0669,-2.0324,-2.0129,-2.0194,-2.0366,-2.0364,-2.0317,-2.0437,-2.0113,-1.9361,-1.9608,-1.8594,-1.6493,-1.6994,-1.6197,-1.4451,-1.4451,0.0,0.0,-1.3554,-1.3855,-1.4145,-1.3399,-1.3186,-1.3507,-1.5002,-1.7228,-1.9211,0.0,0.0,0.0,0.0,0.0,0.0,0.0,-2.5041,-2.5069,-2.4948,-2.508,-2.5107,-2.4858,-2.517,-2.541,0.0,0.0,0.0,0.0,0.0,0.0,0.0,0.0,0.0,0.0,0.0,0.0,0.0,0.0,0.0,0.0,0.0,0.0,0.0,0.0,0.0,0.0,0.0,0.0,0.0,0.0,0.0,0.0,0.0,0.0,0.0,0.0,0.0,0.0,0.0,0.0,-2.311,-2.3929,-2.4966,-2.5778,-2.5261,0.0,0.0,-2.7582,-2.7352,-2.6814,-2.6036,-2.4327,-2.2373,-2.0593,0.0,0.0,-1.7404,-1.7511,-1.7788,-1.7652,-1.7421,0.0,0.0,0.0,0.0,0.0,0.0,0.0,0.0,0.0,0.0,0.0,0.0,0.0,0.0,0.0,0.0,-2.0862,-2.0839,-2.0955,-2.1262,-2.0688,-2.0262,-2.0031,-2.0852,-2.0582,-1.9313,-1.9807,-1.9344,-1.8063,-1.7632,-1.6873,-1.5874,-1.5778,0.0,0.0,-1.497,-1.497,-1.4756,-1.3368,-1.3471,-1.4187,-1.2621,-1.5927,-2.0758,0.0,0.0,0.0,0.0,0.0,0.0,-2.4712,-2.4655,-2.4588,-2.4551,-2.4617,-2.4659,-2.4662,-2.4777,-2.4954,-2.5185,0.0,0.0,0.0,0.0,0.0,0.0,0.0,0.0,0.0,0.0,0.0,0.0,0.0,0.0,0.0,0.0,0.0,0.0,0.0,0.0,0.0,0.0,0.0,0.0,0.0,0.0,0.0,0.0,0.0,0.0,0.0,0.0,0.0,0.0,0.0,0.0,-2.0754,-2.1496,0.0,0.0,-2.4896,-2.5884,-2.5873,-2.6172,-2.6222,-2.5318,-2.378,-2.1991,-2.0161,0.0,-1.8252,-1.7256,-1.7381,-1.7747,-1.7867,-1.7679,-1.7348,0.0,0.0,0.0,0.0,0.0,0.0,0.0,0.0,0.0,0.0,0.0,0.0,0.0,0.0,0.0,-2.2313,-2.1307,-2.0944,-2.1502,-2.1491,-2.1385,-2.1287,-2.1608,-2.1484,-2.0972,-2.0323,-1.9495,-1.8532,-1.7828,-1.6942,-1.5961,-1.5856,0.0,0.0,-1.5662,-1.5362,-1.4796,-1.4492,-1.3942,-1.3637,-1.6473,-1.8929,-2.0992,0.0,0.0,0.0,0.0,0.0,-2.4351,-2.4336,-2.4282,-2.4229,-2.4192,-2.4266,-2.4302,-2.4283,-2.4317,-2.4433,-2.4601,-2.4595,0.0,0.0,0.0,0.0,0.0,0.0,0.0,0.0,0.0,0.0,-2.3835,0.0,0.0,0.0,0.0,0.0,0.0,0.0,0.0,0.0,0.0,0.0,0.0,0.0,0.0,0.0,0.0,0.0,0.0,0.0,0.0,0.0,0.0,0.0,0.0,0.0,0.0,0.0,0.0,-2.3264,-2.4265,-2.4375,-2.5033,-2.5518,-2.4642,-2.3288,-2.1688,0.0,0.0,-1.8342,-1.7238,-1.7434,-1.7841,-1.7946,-1.7625,-1.7144,-1.6522,0.0,-1.6023,0.0,0.0,0.0,0.0,0.0,0.0,0.0,0.0,0.0,0.0,0.0,0.0,0.0,-2.2197,-2.1602,-2.2002,-2.2051,-2.2113,-2.2051,-2.2272,-2.2219,-2.1896,-2.0724,-1.9667,-1.8873,-1.7893,-1.6884,-1.5914,-1.574,0.0,0.0,-1.5652,-1.5342,-1.4805,-1.4914,-1.4734,-1.48,-1.8866,-2.1099,-2.2488,0.0,0.0,0.0,0.0,0.0,0.0,-2.3735,-2.3941,-2.4058,-2.3917,-2.4191,-2.4229,-2.3756,-2.3901,-2.3923,-2.3735,-2.4192,0.0,0.0,0.0,0.0,0.0,0.0,0.0,0.0,0.0,-2.3141,-2.3212,-2.3146,-2.3122,0.0,0.0,0.0,0.0,0.0,0.0,0.0,0.0,0.0,0.0,0.0,0.0,0.0,0.0,0.0,0.0,0.0,0.0,0.0,0.0,0.0,0.0,0.0,-1.9148,-1.8132,0.0,-2.1063,-2.2463,-2.3603,-2.4513,-2.4972,-2.4337,-2.3186,-2.1692,0.0,0.0,-1.8508,-1.7504,-1.7664,-1.7988,-1.7988,-1.7173,-1.6479,-1.6392,-1.6175,0.0,0.0,0.0,0.0,0.0,0.0,0.0,0.0,0.0,0.0,0.0,0.0,0.0,0.0,-2.3722,-2.3182,-2.309,-2.2433,-2.2051,-2.1877,-2.258,-2.2396,-2.1376,-2.0888,-2.0197,-1.9264,-1.8056,-1.6884,0.0,0.0,0.0,0.0,-1.4784,-1.4843,-1.4911,-1.4249,-1.5884,-1.8569,-1.8016,-2.1278,-2.5956,0.0,0.0,0.0,0.0,0.0,0.0,0.0,-2.3576,-2.3598,-2.3747,-2.3725,-2.3685,-2.3649,-2.3606,-2.3473,-2.3242,-2.3361,0.0,0.0,0.0,0.0,0.0,0.0,0.0,0.0,0.0,-2.3025,-2.2859,-2.3017,-2.2892,-2.2544,-2.2747,0.0,0.0,0.0,0.0,0.0,0.0,0.0,0.0,0.0,0.0,0.0,0.0,0.0,0.0,0.0,0.0,0.0,0.0,0.0,0.0,0.0,0.0,0.0,-1.8694,-1.9437,-2.0482,-2.1305,-2.1889,-2.2247,-2.2064,-2.1276,-2.0194,-1.8779,0.0,-1.7605,-1.7672,-1.7612,-1.7669,-1.8163,-1.7706,-1.7034,-1.6362,-1.578,0.0,0.0,0.0,0.0,0.0,0.0,0.0,0.0,0.0,0.0,0.0,0.0,0.0,0.0,-2.4626,-2.4329,-2.4406,-2.3331,-2.2936,-2.3331,-2.2985,-2.242,-2.1753,-2.0885,-1.9881,-1.8722,-1.7904,-1.7117,0.0,0.0,0.0,0.0,-1.6187,-1.5728,-1.5216,-1.4904,-1.5818,-1.7632,-1.9393,-2.22,-2.5391,0.0,0.0,0.0,0.0,0.0,0.0,0.0,-2.3319,-2.336,-2.3499,-2.3476,-2.3435,-2.3376,-2.3218,-2.3,-2.2773,-2.2608,0.0,0.0,0.0,0.0,0.0,0.0,0.0,0.0,-2.2493,-2.233,-2.2169,-2.233,-2.2248,-2.1915,-2.2101,-2.2124,-2.2051,-2.2153,0.0,0.0,0.0,0.0,0.0,0.0,0.0,-2.0644,0.0,0.0,0.0,0.0,0.0,0.0,0.0,0.0,0.0,0.0,0.0,0.0,0.0,-1.8397,-1.8972,0.0,-2.0502,-2.0795,-2.0749,-2.0096,0.0,0.0,0.0,-1.7685,-1.8053,-1.7941,-1.7906,-1.8317,-1.7706,-1.6993,-1.6479,-1.5957,0.0,0.0,0.0,0.0,0.0,0.0,0.0,0.0,0.0,0.0,0.0,0.0,0.0,0.0,-2.4908,-2.4607,-2.4936,-2.3728,-2.3314,-2.3665,-2.3083,-2.2627,-2.2293,-2.1009,-1.9887,-1.8918,-1.7846,-1.7073,0.0,0.0,0.0,0.0,-1.6595,-1.613,-1.5507,-1.5381,-1.6739,-1.8988,-2.0776,-2.3534,-2.6651,0.0,0.0,0.0,0.0,0.0,0.0,0.0,-2.3144,-2.3265,-2.3193,-2.3342,-2.3342,-2.3003,-2.273,-2.2485,-2.2258,0.0,0.0,0.0,0.0,0.0,0.0,0.0,0.0,-2.1751,-2.1462,-2.1308,-2.1308,-2.1308,-2.1308,-2.1291,-2.1291,-2.1213,-2.1102,-2.1385,-2.1565,-2.1608,-2.0883,-2.0662,-2.0684,-1.9243,-1.9946,0.0,0.0,0.0,0.0,0.0,0.0,0.0,0.0,0.0,0.0,0.0,0.0,0.0,0.0,0.0,0.0,0.0,-1.9942,-2.023,-2.0101,-1.9396,-1.8537,0.0,0.0,0.0,-1.8547,-1.853,-1.8474,-1.8444,-1.7353,-1.6522,-1.6723,0.0,0.0,0.0,0.0,0.0,0.0,0.0,0.0,0.0,0.0,0.0,0.0,0.0,0.0,0.0,-2.4645,-2.423,-2.4745,-2.3703,-2.309,-2.3128,-2.2982,-2.2896,-2.2834,-2.1233,-2.0181,-1.9633,-1.8035,-1.6931,0.0,0.0,0.0,0.0,-1.6265,-1.6161,-1.5788,-1.573,-1.8303,-2.1994,-2.2013,-2.5056,-2.9156,0.0,0.0,0.0,0.0,0.0,0.0,0.0,0.0,0.0,0.0,-2.2952,-2.2884,-2.2652,-2.2422,-2.2136,0.0,0.0,0.0,0.0,0.0,0.0,0.0,0.0,0.0,-2.1432,-2.1339,-2.1308,-2.1308,-2.1308,-2.126,-2.1134,-2.1134,-2.1086,-2.0942,-2.1276,-2.142,-2.14,-2.1368,-2.1127,-2.0771,-2.042,-2.0262,0.0,0.0,0.0,0.0,-2.0674,-2.0327,0.0,0.0,0.0,0.0,0.0,0.0,0.0,0.0,-1.8211,-1.7978,-1.8211,0.0,-1.7876,-1.7867,-1.7476,-1.7235,0.0,0.0,0.0,0.0,0.0,-1.839,-1.8717,-1.7921,-1.7227,0.0,0.0,0.0,0.0,0.0,0.0,0.0,0.0,0.0,0.0,0.0,0.0,0.0,0.0,0.0,0.0,-2.4582,-2.4117,-2.4305,-2.3502,-2.3351,-2.3791,-2.3181,-2.2698,-2.2288,-2.1426,-2.0463,-1.9432,-1.8691,-1.8148,0.0,0.0,0.0,-1.8018,-1.7268,-1.6877,-1.6673,-1.6171,-1.8425,-2.1932,-2.1976,-2.4961,-2.8989,0.0,0.0,0.0,0.0,0.0,0.0,0.0,0.0,0.0,0.0,0.0,-2.2747,-2.2607,-2.2375,0.0,0.0,0.0,0.0,0.0,0.0,0.0,0.0,0.0,-2.1462,-2.1479,-2.126,-2.1197,-2.1245,-2.1103,-2.1023,-2.1055,-2.0942,-2.0926,-2.0926,-2.1291,-2.1562,-2.1654,-2.1609,-2.1236,-2.0638,-2.0394,0.0,0.0,0.0,0.0,0.0,-1.9921,-1.9502,0.0,-1.9132,-1.893,-1.8545,0.0,0.0,0.0,0.0,-1.8353,-1.8048,-1.8336,-1.8098,-1.7741,-1.7597,-1.7416,-1.7449,-1.8042,0.0,0.0,0.0,0.0,0.0,-1.8873,0.0,0.0,0.0,0.0,0.0,0.0,0.0,0.0,0.0,0.0,0.0,0.0,0.0,0.0,0.0,0.0,0.0,-2.5247,-2.4205,-2.3664,-2.386,-2.3435,-2.3409,-2.3737,-2.3314,-2.3,-2.2698,-2.2095,-2.1387,-2.057,-1.973,-1.9116,0.0,0.0,0.0,-1.8356,-1.7501,-1.7279,-1.7346,-1.6446,-1.8065,-2.09,-2.0585,-2.276,-2.6004,0.0,0.0,0.0,0.0,0.0,0.0,0.0,0.0,0.0,0.0,0.0,0.0,0.0,0.0,0.0,0.0,0.0,0.0,0.0,0.0,0.0,0.0,-2.157,-2.1448,-2.1587,-2.1197,-2.1039,-2.1103,-2.081,-2.0728,-2.0812,-2.0628,-2.0662,-2.0893,-2.1291,-2.1702,-2.2074,-2.1798,-2.1288,-2.0616,-2.0044,0.0,0.0,0.0,0.0,0.0,0.0,0.0,0.0,-1.8957,-1.8968,-1.8679,-1.866,0.0,0.0,0.0,0.0,0.0,-1.8834,-1.8877,-1.8676,-1.8231,-1.8173,-1.8317,-1.8625,0.0,0.0,0.0,0.0,0.0,0.0,0.0,0.0,0.0,0.0,0.0,0.0,0.0,0.0,0.0,0.0,0.0,0.0,0.0,0.0,0.0,0.0,0.0,-2.4695,-2.3703,-2.321,-2.339,-2.3463,-2.3463,-2.3463,-2.3463,-2.3463,-2.345,-2.2949,-2.2493,-2.2055,-2.099,-2.0092,-1.9364,0.0,0.0,-1.8267,-1.7678,-1.7623,-1.7897,-1.6832,-1.7859,-1.9869,-1.9141,-2.0344,-2.2712,0.0,0.0,0.0,0.0,0.0,0.0,0.0,0.0,0.0,0.0,0.0,0.0,0.0,0.0,0.0,0.0,0.0,0.0,0.0,0.0,0.0,-2.1634,-2.1495,-2.1308,-2.1103,-2.1039,-2.0878,-2.0628,-2.0561,-2.0357,-1.9995,-1.994,-2.0254,-2.0827,-2.0877,-2.1354,-2.2096,-2.2062,-2.1788,-2.1371,-2.0657,0.0,0.0,0.0,0.0,0.0,0.0,0.0,0.0,-1.8461,-1.8612,-1.8734,-1.8825,0.0,0.0,0.0,0.0,0.0,-1.8484,-1.9018,-1.9306,-1.8418,-1.8529,-1.8844,0.0,0.0,0.0,0.0,0.0,0.0,0.0,0.0,0.0,0.0,0.0,0.0,0.0,0.0,0.0,0.0,0.0,0.0,0.0,0.0,0.0,0.0,0.0,0.0,-2.4117,-2.3624,-2.339,-2.3569,-2.3569,-2.3641,-2.3832,-2.3628,-2.3569,-2.3569,-2.3301,-2.2968,-2.2498,-2.202,-2.1573,-2.1059,0.0,-1.9684,-1.9914,-1.8857,-1.8375,-1.8363,-1.8104,-1.9054,-2.0553,-1.9869,-2.1072,-2.3341,0.0,0.0,0.0,0.0,0.0,0.0,0.0,0.0,0.0,0.0,0.0,0.0,0.0,0.0,0.0,0.0,0.0,0.0,0.0,0.0,-2.1071,-2.1261,-2.1433,-2.1509,-2.1477,-2.1276,-2.1087,-2.0974,-2.0974,-2.0877,-2.0613,-2.0795,-2.1055,-2.1355,-2.1355,-2.1554,-2.194,-2.2039,-2.1786,-2.1233,0.0,0.0,0.0,0.0,0.0,0.0,0.0,0.0,0.0,0.0,-1.8505,-1.8752,-1.8734,0.0,0.0,0.0,0.0,0.0,-1.9447,-1.9331,-1.8983,-1.8482,-1.9149,-1.9854,0.0,0.0,0.0,0.0,0.0,0.0,0.0,0.0,0.0,0.0,0.0,0.0,0.0,0.0,0.0,0.0,0.0,0.0,0.0,0.0,0.0,0.0,0.0,0.0,-2.4227,-2.3755,-2.3582,-2.376,-2.4118,-2.4394,-2.4593,-2.4894,-2.461,-2.3865,-2.3984,-2.385,-2.351,-2.3499,-2.3075,-2.2285,0.0,-2.1265,-2.1121,-1.9965,-1.9977,-2.0522,-1.9233,-1.9774,-2.1134,-2.0469,-2.2001,-2.4566,0.0,0.0,0.0,0.0,0.0,0.0,0.0,0.0,0.0,0.0,0.0,0.0,0.0,0.0,0.0,0.0,0.0,0.0,0.0,0.0,-2.1087,-2.1023,-2.1277,-2.1526,-2.1735,-2.154,-2.1402,-2.1402,-2.1402,-2.1309,-2.1183,-2.1448,-2.1601,-2.1678,-2.1678,-2.1738,-2.1811,-2.1814,-2.1541,-2.1039,0.0,0.0,0.0,0.0,0.0,0.0,0.0,0.0,0.0,0.0,0.0,0.0,0.0,0.0,0.0,-2.0263,-1.9842,-1.95,-2.0219,-1.9521,-1.8593,-1.8483,0.0,0.0,0.0,0.0,0.0,0.0,0.0,0.0,0.0,0.0,0.0,0.0,0.0,0.0,0.0,0.0,0.0,0.0,0.0,0.0,0.0,0.0,0.0,0.0,0.0,0.0,-2.4137,-2.3772,-2.3716,-2.3961,-2.4565,-2.5053,-2.5481,-2.6065,-2.57,-2.4434,-2.4786,-2.4799,-2.4376,-2.469,-2.4361,-2.3585,-2.3001,-2.263,-2.2348,-2.1254,-2.1456,-2.2345,-2.0661,-2.0702,-2.1707,-2.1264,-2.2971,-2.5474,0.0,0.0,0.0,0.0,0.0,0.0,0.0,0.0,0.0,0.0,0.0,0.0,0.0,0.0,0.0,0.0,0.0,0.0,0.0,0.0,-2.1103,-2.1087,-2.0925,-2.1023,-2.134,-2.1617,-2.1617,-2.1325,-2.1325,-2.1151,-2.0827,-2.086,-2.1055,-2.134,-2.134,-2.1495,-2.1777,-2.1284,-2.114,-2.1216,-2.0729,0.0,0.0,0.0,0.0,0.0,0.0,0.0,0.0,0.0,0.0,0.0,0.0,0.0,-1.9352,-2.008,-1.9469,-1.881,-1.9844,-1.9434,-1.8622,-1.8383,-1.9269,0.0,-2.0134,-2.0958,0.0,0.0,0.0,0.0,0.0,0.0,0.0,0.0,0.0,0.0,0.0,0.0,0.0,0.0,0.0,0.0,0.0,0.0,0.0,0.0,0.0,0.0,-2.3311,-2.3358,-2.3655,-2.4245,-2.4542,-2.5258,-2.6289,-2.6634,-2.6279,-2.5287,-2.5914,-2.5628,-2.4601,-2.5032,-2.529,-2.5265,-2.3936,-2.36,-2.3966,-2.2812,-2.2388,-2.2523,-2.26,-2.2454,-2.2265,-2.2536,-2.3768,-2.5358,0.0,0.0,0.0,0.0,0.0,0.0,0.0,0.0,0.0,0.0,0.0,0.0,0.0,0.0,0.0,0.0,0.0,0.0,0.0,-2.086,-2.086,-2.0728,-2.0893,-2.1023,-2.1119,-2.1245,-2.1229,-2.1119,-2.1246,-2.134,-2.1417,-2.1417,-2.1479,-2.1617,-2.1617,-2.1678,-2.1811,-2.1587,-2.1597,-2.168,-2.1139,-2.1019,0.0,0.0,0.0,0.0,0.0,0.0,0.0,0.0,-1.9075,-1.8968,-1.936,-1.9665,-1.9973,-2.0622,-2.0446,-2.0209,-2.0921,-2.0449,-1.9706,-1.9469,-1.9596,0.0,0.0,-2.123,0.0,0.0,0.0,0.0,0.0,0.0,0.0,0.0,0.0,0.0,0.0,0.0,0.0,0.0,0.0,0.0,0.0,0.0,0.0,0.0,0.0,0.0,0.0,-2.3566,-2.3994,-2.5062,-2.5149,-2.5619,-2.6683,-2.6962,-2.6749,-2.6054,-2.6683,-2.6512,-2.5634,-2.635,-2.6436,-2.5986,-2.5415,-2.5098,-2.492,-2.4486,-2.4467,-2.4752,-2.4946,-2.451,-2.3851,-2.4398,-2.536,-2.6363,0.0,0.0,0.0,0.0,0.0,0.0,0.0,0.0,0.0,0.0,0.0,0.0,0.0,0.0,0.0,0.0,0.0,0.0,-2.0958,-2.086,-2.0728,-2.0595,-2.086,-2.0974,-2.0958,-2.0991,-2.1103,-2.126,-2.1386,-2.1587,-2.1797,-2.1797,-2.1797,-2.1781,-2.1869,-2.1882,-2.1882,-2.1764,-2.1894,-2.2158,-2.1617,-2.1422,0.0,0.0,0.0,0.0,0.0,0.0,0.0,0.0,-1.9021,-1.8932,-1.9272,-1.9613,-2.0101,-2.096,-2.0945,-2.0817,-2.1708,-2.1108,-2.026,0.0,0.0,0.0,-2.1171,0.0,0.0,0.0,0.0,0.0,0.0,0.0,0.0,0.0,0.0,0.0,0.0,0.0,0.0,0.0,0.0,0.0,0.0,0.0,0.0,0.0,0.0,0.0,0.0,-2.3652,-2.412,-2.536,-2.5405,-2.591,-2.6964,-2.7284,-2.7105,-2.6482,-2.7255,-2.7056,-2.6078,-2.6926,-2.6999,-2.6486,-2.6292,-2.6073,-2.5843,-2.5728,-2.5941,-2.635,-2.6252,-2.5792,-2.5257,-2.5587,-2.6166,-2.6702,0.0,0.0,0.0,0.0,0.0,0.0,0.0,0.0,0.0,0.0,0.0,0.0,0.0,0.0,0.0,0.0,0.0,0.0,-2.1309,-2.099,-2.0794,-2.0794,-2.0794,-2.0794,-2.0794,-2.099,-2.134,-2.1797,-2.1797,-2.1797,-2.1797,-2.1797,-2.1797,-2.1811,-2.2027,-2.2096,-2.2074,-2.1669,-2.1962,-2.266,-2.2052,-2.1757,-2.1621,0.0,0.0,0.0,0.0,0.0,0.0,0.0,-1.9317,-1.8802,-2.0011,-1.9791,-1.9413,-2.1025,-2.0689,-2.0205,-2.1995,-2.1185,-2.0136,0.0,0.0,0.0,0.0,0.0,0.0,0.0,0.0,0.0,0.0,0.0,0.0,0.0,0.0,0.0,0.0,0.0,0.0,0.0,0.0,0.0,0.0,0.0,0.0,0.0,0.0,0.0,0.0,-2.363,-2.399,-2.4879,-2.5241,-2.5983,-2.7195,-2.7531,-2.7324,-2.662,-2.7594,-2.7259,-2.5743,-2.6446,-2.6847,-2.688,-2.6192,-2.6274,-2.6847,-2.6471,-2.6555,-2.6858,-2.6236,-2.6126,-2.6243,-2.5853,-2.5825,-2.6039,0.0,0.0,0.0,0.0,0.0,0.0,0.0,0.0,0.0,0.0,0.0,0.0,0.0,0.0,0.0,0.0,0.0,0.0,-2.1309,-2.099,-2.0794,-2.0794,-2.1023,-2.1119,-2.099,-2.1294,-2.1511,-2.1664,-2.1768,-2.1797,-2.1797,-2.1797,-2.1797,-2.1827,-2.1969,-2.201,-2.2039,-2.205,-2.2238,-2.2535,-2.2365,-2.2022,-2.1599,0.0,0.0,0.0,0.0,0.0,0.0,0.0,0.0,0.0,-1.9272,-1.9217,-1.9111,-1.9921,-2.0392,-2.0849,-2.1743,-2.2237,0.0,0.0,0.0,0.0,0.0,0.0,0.0,0.0,0.0,0.0,0.0,0.0,0.0,0.0,0.0,0.0,0.0,0.0,0.0,0.0,0.0,0.0,0.0,0.0,0.0,0.0,0.0,0.0,0.0,-2.4449,-2.4833,-2.6052,-2.5679,-2.6011,-2.7118,-2.6949,-2.6733,-2.6538,-2.6825,-2.6875,-2.6704,-2.7118,-2.7304,-2.7291,-2.6609,-2.6445,-2.6683,-2.6724,-2.6859,-2.697,-2.631,-2.5976,-2.5807,-2.5711,-2.5924,-2.6232,0.0,0.0,0.0,0.0,0.0,0.0,0.0,0.0,0.0,0.0,-2.2525,-2.246,0.0,0.0,0.0,0.0,0.0,0.0,0.0,-2.1135,-2.0926,-2.099,-2.1183,-2.1246,-2.1199,-2.1433,-2.1617,-2.1768,-2.1869,-2.1899,-2.1781,-2.2003,-2.2003,-2.1899,-2.2158,-2.2101,-2.1803,-2.199,-2.1909,-2.1696,-2.1661,-2.1267,-2.0629,0.0,0.0,0.0,0.0,0.0,0.0,0.0,0.0,0.0,-1.8878,-1.8896,-1.9021,-1.9891,-2.0541,-2.1207,-2.2433,0.0,0.0,0.0,0.0,0.0,0.0,0.0,0.0,0.0,0.0,0.0,0.0,0.0,0.0,0.0,0.0,0.0,0.0,0.0,0.0,0.0,0.0,0.0,0.0,0.0,0.0,0.0,0.0,0.0,0.0,-2.4942,-2.5289,-2.6221,-2.595,-2.6081,-2.6759,-2.6597,-2.6485,-2.6485,-2.652,-2.6668,-2.6961,-2.7088,-2.7194,-2.7229,-2.6877,-2.6742,-2.6792,-2.6925,-2.7055,-2.7147,-2.6446,-2.6109,-2.5976,-2.5798,-2.5924,-2.6204,0.0,0.0,-2.3795,-2.3795,0.0,0.0,0.0,0.0,0.0,0.0,-2.2659,-2.2659,0.0,0.0,0.0,-2.2515,-2.1969,-2.1688,-2.1738,-2.1385,-2.1229,-2.134,-2.1356,-2.134,-2.1371,-2.1462,-2.1688,-2.2027,-2.2068,-2.1998,-2.1827,-2.222,-2.226,-2.1998,-2.2436,-2.2254,-2.161,-2.165,-2.1267,-2.0593,-2.0446,-1.9917,-1.919,-1.9121,0.0,0.0,0.0,0.0,0.0,0.0,0.0,0.0,-1.8695,-1.8751,-1.8999,-2.0362,-2.0756,-2.1211,0.0,0.0,0.0,0.0,0.0,0.0,0.0,0.0,0.0,0.0,0.0,0.0,0.0,0.0,0.0,0.0,0.0,0.0,0.0,0.0,0.0,0.0,0.0,0.0,0.0,0.0,0.0,0.0,0.0,0.0,0.0,-2.5291,-2.5465,-2.5775,-2.6082,-2.6241,-2.6241,-2.6434,-2.652,-2.6554,-2.6623,-2.6657,-2.6725,-2.6742,-2.6792,-2.6926,-2.6975,-2.7023,-2.7103,-2.7103,-2.7215,-2.7338,-2.6596,-2.644,-2.6566,-2.6098,-2.6025,-2.6165,0.0,0.0,-2.3795,-2.3795,0.0,0.0,0.0,0.0,0.0,0.0,0.0,0.0,0.0,-2.2596,0.0,-2.2515,-2.2226,-2.2079,-2.2096,-2.1807,-2.1661,-2.1691,-2.1691,-2.1751,-2.1853,-2.1882,-2.2015,-2.2237,-2.2101,-2.194,-2.1797,-2.1814,-2.1814,-2.184,-2.2056,-2.2186,-2.2268,-2.1799,-2.1487,-2.1214,-2.0646,-1.9893,-1.9121,-1.9115,-1.8569,0.0,0.0,0.0,0.0,0.0,0.0,0.0,-1.8211,-1.8252,-1.8322,-1.8683,-1.9204,-1.9836,0.0,0.0,0.0,0.0,0.0,0.0,0.0,0.0,0.0,0.0,0.0,0.0,0.0,0.0,0.0,0.0,0.0,0.0,0.0,0.0,0.0,0.0,0.0,0.0,0.0,0.0,0.0,0.0,0.0,0.0,-2.6222,-2.6206,-2.6241,-2.6329,-2.6434,-2.6555,-2.659,-2.6742,-2.6859,0.0,-2.6909,-2.6909,-2.6942,-2.6876,-2.6909,-2.6992,-2.6975,-2.7023,-2.7085,-2.7166,-2.7279,-2.7338,-2.669,-2.6606,-2.6836,-2.6774,-2.6932,-2.7266,0.0,0.0,0.0,0.0,0.0,0.0,0.0,0.0,0.0,0.0,0.0,0.0,0.0,-2.2605,0.0,0.0,-2.2186,-2.2068,-2.2096,-2.1969,-2.1911,-2.1998,-2.1998,-2.201,-2.2096,-2.2096,-2.2141,-2.226,-2.2084,-2.194,-2.1797,-2.1781,-2.1811,-2.1869,-2.201,-2.1837,-2.1387,-2.107,-2.0511,-1.9801,-1.9384,-1.8904,-1.8478,-1.8563,-1.8263,-1.7856,-1.7961,0.0,0.0,0.0,0.0,0.0,0.0,0.0,-1.8277,-1.865,-1.8965,-1.9435,0.0,0.0,0.0,0.0,0.0,0.0,0.0,0.0,0.0,0.0,0.0,0.0,0.0,0.0,0.0,0.0,0.0,0.0,0.0,0.0,0.0,0.0,0.0,0.0,0.0,0.0,0.0,0.0,0.0,-2.6485,-2.6485,-2.652,-2.6554,-2.6554,-2.6589,-2.6691,-2.6792,-2.6876,-2.6926,-2.7007,-2.7007,-2.7007,-2.7055,-2.7023,-2.704,-2.7154,-2.7186,-2.7201,-2.7247,-2.7341,-2.7404,-2.7478,-2.7239,-2.7254,-2.7449,-2.7594,-2.7777,-2.8008,0.0,0.0,0.0,0.0,0.0,0.0,0.0,0.0,0.0,0.0,0.0,0.0,0.0,-2.2632,-2.2432,0.0,0.0,0.0,-2.2113,-2.2113,-2.2141,-2.2164,-2.2237,-2.2265,-2.2192,-2.2265,-2.2292,-2.2292,-2.2124,-2.1969,-2.1869,-2.1882,-2.1882,-2.1869,-2.2068,-2.1501,-2.0396,-2.026,-1.9423,-1.8154,-1.7973,-1.7878,-1.7833,-1.7939,-1.7966,-1.7983,-1.8267,-1.8319,-1.8263,-1.8331,0.0,0.0,0.0,0.0,-1.8347,-1.8918,-1.8916,-1.9154,0.0,0.0,0.0,0.0,0.0,0.0,0.0,0.0,0.0,0.0,0.0,0.0,0.0,0.0,0.0,0.0,0.0,0.0,0.0,0.0,0.0,0.0,0.0,0.0,0.0,0.0,0.0,0.0,0.0,-2.6554,-2.6554,-2.6606,-2.6674,-2.6674,-2.6725,-2.6808,-2.6942,-2.6942,-2.6975,-2.704,-2.704,-2.7105,-2.7135,-2.7166,-2.7215,-2.733,-2.7376,-2.7407,-2.7438,-2.7496,-2.7557,-2.763,-2.776,-2.7922,-2.8099,-2.83,-2.8406,-2.8458,0.0,0.0,0.0,0.0,0.0,0.0,0.0,0.0,0.0,0.0,-2.314,-2.2799,0.0,-2.2668,-2.2422,-2.2377,-2.2405,-2.2443,-2.2525,0.0,0.0,-2.2124,-2.2381,-2.2436,-2.222,-2.2473,-2.2642,-2.2642,-2.232,-2.2164,-2.2136,-2.1705,-2.157,-2.1738,-2.194,-2.1742,-2.1191,-2.0499,-1.9689,-1.8807,-1.811,-1.7878,-1.7961,-1.7922,-1.7988,-1.8177,-1.8834,-1.899,-1.8881,-1.8904,-1.8858,0.0,0.0,0.0,0.0,-1.7844,-1.7832,-1.79,0.0,0.0,0.0,0.0,0.0,0.0,0.0,0.0,0.0,0.0,0.0,0.0,0.0,0.0,0.0,0.0,0.0,0.0,0.0,0.0,0.0,0.0,0.0,0.0,0.0,0.0,0.0,0.0,-2.6759,-2.6859,-2.6859,-2.6926,-2.6942,-2.6942,-2.6942,-2.699,-2.707,-2.707,-2.712,-2.7267,-2.7313,-2.7345,-2.7376,-2.7404,-2.7421,-2.7376,-2.7452,-2.7496,-2.7496,-2.7557,-2.7659,-2.7806,-2.794,-2.8136,-2.8353,-2.8398,-2.8458,-2.8587,0.0,0.0,0.0,0.0,0.0,0.0,0.0,0.0,0.0,0.0,0.0,-2.296,0.0,-2.2642,-2.2338,-2.2338,-2.2366,-2.2432,-2.2542,-2.2525,-2.2497,-2.2381,-2.2497,-2.2497,-2.2354,-2.2525,-2.2497,-2.2298,-2.2153,-2.201,0.0,-2.1735,-2.1751,-2.1869,-2.1969,-2.1473,-2.0577,-2.0238,-1.9423,-1.8297,-1.8036,-1.8194,-1.8614,-1.8753,-1.9078,-1.9497,-1.9956,-1.997,-1.9791,-1.9878,-1.951,-1.8977,-1.8722,0.0,0.0,0.0,0.0,0.0,0.0,0.0,0.0,0.0,0.0,0.0,0.0,0.0,0.0,0.0,0.0,0.0,0.0,0.0,0.0,0.0,0.0,0.0,0.0,0.0,0.0,0.0,0.0,0.0,0.0,0.0,0.0,0.0,-2.6926,-2.6959,-2.6959,-2.6975,-2.7007,-2.7007,-2.7007,-2.7023,-2.7103,-2.7103,-2.7184,-2.7362,-2.7421,-2.7452,-2.7452,-2.7526,-2.7526,-2.7452,-2.7526,-2.76,-2.7689,-2.7795,-2.7893,-2.8035,-2.8164,-2.8318,-2.8406,-2.8536,-2.8612,-2.8687,0.0,0.0,0.0,0.0,0.0,0.0,0.0,0.0,0.0,0.0,0.0,0.0,0.0,0.0,0.0,0.0,-2.231,-2.2338,-2.2432,-2.246,-2.2515,-2.2569,-2.2515,-2.2487,-2.2525,-2.2515,-2.2388,-2.213,-2.213,0.0,-2.1764,-2.1957,-2.2073,0.0,-2.2073,-2.1423,-2.0272,-2.0086,-1.9376,-1.8329,-1.8274,-1.8717,-1.9423,-1.9681,-2.01,-2.0627,-2.099,-2.097,0.0,0.0,0.0,0.0,0.0,0.0,0.0,0.0,0.0,0.0,0.0,0.0,0.0,0.0,0.0,0.0,0.0,0.0,0.0,0.0,0.0,0.0,0.0,0.0,0.0,0.0,0.0,0.0,0.0,0.0,0.0,0.0,0.0,0.0,0.0,0.0,0.0,0.0,-2.7007,-2.704,-2.704,-2.704,-2.7089,-2.7089,-2.7089,-2.7105,-2.7152,-2.7184,-2.7247,-2.7407,-2.7483,-2.7526,-2.7526,-2.76,-2.7647,-2.7617,-2.7677,-2.7748,-2.7864,-2.7996,-2.8136,-2.8273,-2.8353,-2.8406,-2.8458,-2.8637,-2.8687,-2.8718,0.0,0.0,0.0,0.0,0.0,0.0,0.0,0.0,0.0,0.0,0.0,0.0,-2.2712,-2.246,-2.231,-2.231,-2.231,-2.231,-2.231,-2.2366,-2.2432,-2.2515,-2.2432,0.0,-2.2579,-2.2525,-2.2487,-2.247,0.0,0.0,-2.246,-2.246,-2.2432,-2.2377,-2.2293,-2.187,-2.1075,0.0,0.0,0.0,-1.9188,-1.9461,-2.0247,0.0,0.0,0.0,0.0,0.0,0.0,0.0,0.0,0.0,0.0,0.0,0.0,0.0,0.0,0.0,0.0,0.0,0.0,0.0,0.0,0.0,0.0,0.0,0.0,0.0,0.0,0.0,0.0,0.0,0.0,0.0,0.0,0.0,0.0,0.0,0.0,0.0,0.0,0.0,0.0,0.0,0.0,0.0,-2.7055,-2.7103,-2.7103,-2.7201,-2.7299,-2.7299,-2.7299,-2.7299,-2.7282,-2.7345,-2.7376,-2.7407,-2.7544,-2.7587,-2.7587,-2.7642,-2.7806,-2.7968,-2.7986,-2.7968,-2.7996,-2.8119,-2.8273,-2.838,-2.8398,-2.8476,-2.8587,-2.8612,-2.8662,-2.8694,0.0,0.0,0.0,0.0,0.0,0.0,0.0,0.0,0.0,0.0,0.0,0.0,0.0,-2.296,-2.2747,-2.2579,-2.2405,-2.231,-2.2366,-2.2338,-2.2366,-2.2432,-2.2366,-2.2366,-2.2422,-2.2432,-2.2405,-2.2366,0.0,-2.2405,-2.2366,-2.2366,-2.2095,-2.1654,-2.2146,-2.1627,-2.0416,-2.0111,0.0,0.0,0.0,0.0,0.0,0.0,0.0,0.0,0.0,0.0,0.0,0.0,0.0,0.0,0.0,0.0,0.0,0.0,0.0,0.0,0.0,0.0,0.0,0.0,0.0,0.0,0.0,0.0,0.0,0.0,0.0,0.0,0.0,0.0,0.0,0.0,0.0,0.0,0.0,0.0,0.0,0.0,0.0,0.0,0.0,0.0,0.0,0.0,0.0,-2.7233,-2.7233,-2.7282,-2.7299,-2.7299,-2.7299,-2.733,-2.7345,-2.7483,-2.7544,-2.7544,-2.763,-2.7642,-2.7642,-2.7701,-2.7806,-2.7996,-2.8081,-2.8191,-2.8246,-2.83,-2.8406,-2.8536,-2.8536,-2.8562,-2.8612,-2.8662,-2.8712,-2.8785,0.0,0.0,0.0,0.0,0.0,0.0,0.0,0.0,0.0,-2.3689,0.0,0.0,0.0,0.0,-2.2876,-2.2579,-2.2405,-2.231,-2.2349,-2.2338,-2.2338,-2.2394,-2.2338,-2.231,-2.2338,-2.2366,-2.2338,-2.231,-2.2338,-2.2338,0.0,-2.2057,-2.1667,-2.1221,-2.1484,-2.1136,0.0,0.0,0.0,-2.0002,0.0,0.0,-2.1978,0.0,0.0,0.0,0.0,0.0,0.0,0.0,0.0,0.0,0.0,0.0,0.0,0.0,0.0,0.0,0.0,0.0,0.0,0.0,0.0,0.0,0.0,0.0,0.0,0.0,0.0,0.0,0.0,0.0,0.0,0.0,0.0,0.0,0.0,0.0,0.0,0.0,0.0,0.0,0.0,0.0,0.0,0.0,0.0,0.0,-2.7299,-2.7299,-2.733,-2.7313,-2.7313,-2.7393,-2.7421,-2.7526,-2.7587,-2.7587,-2.7689,-2.773,-2.7806,-2.7806,-2.7922,-2.8136,-2.8219,-2.8327,-2.8406,-2.845,-2.851,-2.8587,-2.8587,-2.8587,-2.8612,-2.8687,-2.8737,-2.881,0.0,0.0,0.0,0.0,0.0,0.0,0.0,0.0,0.0,-2.3504,0.0,0.0,0.0,0.0,0.0,-2.2338,-2.231,-2.231,-2.231,-2.231,-2.2338,-2.2405,-2.2366,-2.2338,-2.2422,-2.2338,-2.231,-2.231,-2.231,-2.231,-2.2293,-2.1532,-2.1204,-2.1136,-2.0331,-2.0416,-2.1136,0.0,-2.0906,-2.2303,0.0,-2.2039,-2.2877,0.0,0.0,0.0,-2.3154,-2.3112,0.0,0.0,0.0,0.0,0.0,0.0,0.0,0.0,0.0,0.0,0.0,0.0,0.0,0.0,0.0,0.0,0.0,0.0,0.0,0.0,0.0,0.0,0.0,0.0,0.0,0.0,0.0,0.0,0.0,0.0,0.0,0.0,0.0,0.0,0.0,0.0,0.0,0.0,-2.7282,-2.7299,-2.7299,-2.7299,-2.733,-2.7407,-2.7407,-2.7438,-2.7496,-2.7557,-2.7617,-2.7617,-2.7672,-2.7806,-2.8014,-2.8014,-2.8154,-2.8398,-2.8398,-2.8406,-2.8424,-2.8536,-2.8587,-2.8587,-2.8587,-2.8587,-2.8612,-2.8687,-2.8761,-2.881,0.0,0.0,0.0,0.0,0.0,0.0,-2.3795,-2.3753,-2.371,0.0,0.0,0.0,-2.3394,-2.2977,-2.2659,-2.2596,-2.2405,-2.2394,-2.2596,-2.2579,-2.2668,-2.2884,-2.2694,-2.2605,-2.2623,-2.246,-2.2366,-2.231,-2.2366,-2.2366,-2.2293,-2.1532,-2.0873,-2.0314,-1.9706,-1.987,-2.0597,-2.0326,0.0,0.0,-2.1749,-2.2586,0.0,0.0,0.0,0.0,0.0,-2.3593,0.0,0.0,-2.2558,-2.1917,0.0,0.0,0.0,0.0,0.0,0.0,-1.8524,0.0,0.0,0.0,0.0,0.0,0.0,-1.8702,0.0,0.0,0.0,0.0,0.0,0.0,0.0,0.0,0.0,0.0,0.0,0.0,0.0,0.0,0.0,0.0,0.0,0.0,0.0,0.0,-2.7091,-2.7434,-2.7434,-2.7434,-2.7434,-2.7465,-2.7513,-2.7557,-2.7557,-2.763,-2.7672,-2.7672,-2.7701,-2.7806,-2.8014,-2.8014,-2.8154,-2.8398,-2.8398,-2.8476,-2.8536,-2.8587,-2.8587,-2.8587,-2.8587,-2.8637,-2.8669,-2.8694,-2.8887,-2.9079,0.0,0.0,-2.3795,-2.3795,0.0,-2.3795,-2.3795,-2.3795,-2.3795,0.0,0.0,0.0,-2.3508,-2.3206,-2.3003,-2.2876,-2.2721,-2.2694,-2.2876,-2.2876,-2.2935,-2.3091,-2.285,-2.2712,-2.2712,-2.2487,-2.2338,-2.231,-2.2338,-2.2394,-2.2443,-2.1702,-2.1165,-2.0766,-2.0131,-2.0286,0.0,0.0,0.0,0.0,-2.2443,0.0,0.0,-2.426,-2.4304,0.0,0.0,0.0,-2.4007,-2.3665,-2.3098,0.0,0.0,0.0,0.0,0.0,0.0,0.0,0.0,0.0,0.0,0.0,0.0,0.0,-1.8022,-1.8729,-1.9728,0.0,0.0,0.0,0.0,0.0,0.0,0.0,0.0,0.0,0.0,0.0,0.0,0.0,0.0,0.0,0.0,-2.5062,-2.5924,-2.6219,-2.67,-2.7148,-2.7478,-2.7496,-2.7526,-2.7526,-2.7587,-2.76,-2.763,-2.7672,-2.7701,-2.7701,-2.7701,-2.7818,-2.8081,-2.8081,-2.8219,-2.8484,-2.8484,-2.8587,-2.8712,-2.8637,-2.8587,-2.8612,-2.8637,-2.8718,-2.8845,-2.8892,-2.9101,-2.9336,0.0,0.0,-2.3795,-2.3795,-2.3795,-2.3795,-2.3795,-2.3795,-2.3795,0.0,-2.3774,-2.3689,-2.3526,-2.3463,-2.3348,-2.3116,-2.3067,-2.3084,-2.314,-2.3133,-2.3116,-2.3164,-2.291,-2.279,-2.279,-2.2542,-2.2377,-2.2377,-2.2377,-2.2515,-2.2747,-2.1994,-2.1718,-2.1861,-2.115,-2.126,-2.1965,0.0,0.0,-2.4239,-2.3538,-2.3802,0.0,0.0,-2.454,0.0,-2.5261,-2.5419,-2.5173,-2.4532,-2.334,0.0,0.0,0.0,0.0,0.0,-1.9889,0.0,0.0,0.0,0.0,0.0,0.0,0.0,-1.9272,-1.9443,-1.98,0.0,0.0,0.0,0.0,0.0,0.0,0.0,0.0,0.0,0.0,0.0,0.0,0.0,0.0,0.0,-2.4007,-2.4669,-2.5411,-2.6057,-2.6237,-2.669,-2.7474,-2.7509,-2.7557,-2.7617,-2.7617,-2.763,-2.7701,-2.773,-2.773,-2.773,-2.776,-2.7904,-2.8201,-2.8201,-2.8362,-2.8637,-2.8637,-2.8743,-2.891,-2.8761,-2.8687,-2.8669,-2.8718,-2.8874,-2.9064,-2.9191,-2.9377,-2.9551,-2.3795,-2.3795,-2.3795,-2.3795,-2.3795,-2.3795,-2.3795,-2.3795,-2.3795,-2.3795,-2.3664,-2.3531,-2.3504,-2.3301,-2.3157,-2.3091,-2.2884,-2.2977,-2.3394,-2.323,-2.3283,-2.3646,-2.3463,-2.3324,-2.3324,-2.3084,-2.296,-2.296,-2.296,-2.2985,-2.3017,-2.2212,-2.185,-2.1884,-2.1306,-2.1479,-2.225,0.0,0.0,-2.4802,-2.4444,0.0,-2.6601,-2.6276,-2.5897,-2.5582,-2.6151,-2.5577,-2.4497,0.0,-2.3946,-2.3345,0.0,0.0,0.0,0.0,0.0,0.0,0.0,0.0,0.0,0.0,0.0,0.0,-1.9744,-2.0237,-2.0954,0.0,0.0,0.0,0.0,0.0,0.0,0.0,0.0,0.0,0.0,0.0,0.0,0.0,0.0,0.0,-2.3453,-2.4173,-2.4686,-2.4827,-2.5885,-2.6854,-2.7636,-2.7672,-2.7672,-2.7672,-2.7672,-2.7701,-2.7701,-2.7864,-2.794,-2.794,-2.8063,-2.8201,-2.8353,-2.8353,-2.8536,-2.8858,-2.8858,-2.8915,-2.906,-2.9144,-2.9166,-2.9144,-2.8993,-2.9129,-2.9418,-2.9437,-2.9607,-2.982,-2.3795,-2.3795,-2.3795,-2.3795,-2.3795,-2.3795,-2.3795,-2.3795,-2.3795,-2.3795,-2.371,-2.3664,-2.3664,-2.3535,-2.345,-2.345,-2.333,-2.3307,-2.3504,-2.3371,-2.3399,-2.3642,-2.344,-2.3371,-2.3504,-2.323,-2.3091,-2.3091,-2.3091,-2.3182,-2.3283,-2.2876,-2.2794,0.0,-2.262,-2.2736,0.0,0.0,-2.4476,-2.5461,-2.5023,0.0,-2.67,-2.6809,-2.6754,-2.6655,-2.7028,-2.642,-2.5208,-2.3689,-2.3578,0.0,0.0,-2.2342,-2.2886,0.0,-2.3214,-2.29,0.0,0.0,0.0,-2.1932,0.0,0.0,0.0,-2.1036,-2.139,0.0,0.0,0.0,0.0,0.0,0.0,0.0,0.0,0.0,0.0,0.0,0.0,0.0,0.0,0.0,-2.3535,-2.428,-2.4861,-2.5134,-2.6499,-2.7293,-2.7157,-2.749,-2.776,-2.7836,-2.7836,-2.7893,-2.7933,-2.8128,-2.8192,-2.8192,-2.836,-2.8515,-2.8658,-2.8658,-2.8779,-2.8989,-2.8989,-2.9101,-2.9251,-2.9293,-2.9415,-2.9589,-2.9338,-2.9399,-2.9643,-2.9697,-2.9853,-3.0049,-2.3795,-2.3795,-2.3795,-2.3795,-2.3795,-2.3795,-2.3795,-2.3795,-2.3795,-2.3795,-2.3795,-2.3795,-2.3795,-2.3795,-2.3795,-2.3795,-2.3753,-2.3689,0.0,0.0,0.0,-2.3553,-2.3353,-2.333,-2.3553,-2.3353,-2.3236,-2.3236,-2.3236,-2.3353,-2.3553,-2.3553,0.0,0.0,0.0,0.0,0.0,0.0,0.0,-2.6103,0.0,-2.5958,-2.6499,-2.7119,-2.727,-2.7163,-2.7391,-2.721,-2.642,-2.3769,0.0,-2.4382,-2.2177,-2.2353,0.0,0.0,0.0,0.0,0.0,0.0,0.0,0.0,0.0,-2.2358,0.0,0.0,0.0,0.0,0.0,0.0,0.0,0.0,0.0,0.0,0.0,0.0,0.0,0.0,0.0,0.0,0.0,0.0,0.0,-2.4351,-2.5041,-2.5577,-2.6905,-2.7397,-2.6687,-2.7384,-2.7876,-2.8025,-2.8025,-2.8081,-2.8201,-2.8216,-2.8283,-2.8446,-2.8506,-2.8672,-2.8952,-2.8952,-2.902,-2.9169,-2.9172,-2.9275,-2.9492,-2.9455,-2.9644,-2.9905,-2.9662,-2.9678,-2.9886,-2.9937,-3.0049,-3.0204,-2.3795,-2.3795,-2.3795,-2.3795,-2.3795,-2.3795,-2.3795,-2.3795,-2.3795,-2.3795,-2.3795,-2.3795,0.0,0.0,0.0,0.0,0.0,0.0,-2.3753,0.0,0.0,-2.3753,-2.3732,-2.3732,-2.3774,-2.3732,-2.3732,-2.3732,-2.3732,-2.3732,-2.3774,-2.3774,0.0,0.0,-2.1641,0.0,0.0,0.0,-2.3742,0.0,-2.7382,-2.7523,0.0,-2.799,-2.7389,-2.6206,-2.6604,-2.7087,-2.742,0.0,-2.6274,-2.6197,0.0,-2.4098,0.0,0.0,0.0,0.0,0.0,0.0,0.0,0.0,-2.2704,0.0,0.0,0.0,0.0,0.0,0.0,0.0,0.0,0.0,0.0,0.0,0.0,0.0,0.0,0.0,0.0,0.0,0.0,0.0,0.0,-2.373,-2.4417,-2.496,-2.5763,-2.6405,-2.6764,-2.7654,-2.8146,-2.8191,-2.8191,-2.8174,-2.8201,-2.7734,-2.7901,-2.8651,-2.8205,-2.8378,-2.9064,-2.9064,-2.9169,-2.9373,-2.9436,-2.957,-2.9773,-2.9943,-3.0038,-3.0072,-2.9853,-2.9918,-3.0157,-3.0157,-3.0171,-3.0204,-2.3795,-2.3795,-2.3795,-2.3795,-2.3795,-2.3795,-2.3795,-2.3795,-2.3795,-2.3795,-2.3795,0.0,0.0,0.0,0.0,0.0,0.0,-2.3664,0.0,0.0,0.0,0.0,0.0,0.0,0.0,-2.3795,-2.3795,-2.3795,-2.3795,-2.3795,-2.3795,-2.3795,0.0,0.0,-2.3431,0.0,-2.5269,0.0,0.0,0.0,0.0,0.0,0.0,-2.8356,-2.813,-2.7253,-2.7549,-2.7667,-2.7385,0.0,-2.5552,0.0,0.0,0.0,0.0,0.0,0.0,0.0,0.0,0.0,0.0,0.0,0.0,0.0,-2.2859,0.0,-2.2917,0.0,0.0,0.0,0.0,0.0,0.0,0.0,0.0,0.0,0.0,0.0,0.0,0.0,0.0,0.0,0.0,0.0,0.0,0.0,-2.5202,-2.5447,-2.4974,-2.6634,-2.7635,-2.7601,-2.8049,-2.8406,-2.8594,-2.8456,-2.864,-2.9097,-2.8998,-2.9117,-2.9453,-2.9453,-2.9531,-2.9626,-2.9663,-2.9753,-2.9874,-3.0022,-3.0102,-3.0102,-3.0049,-3.0094,-3.0204,-3.0204,-3.0204,-3.0204,-2.3795,0.0,0.0,0.0,0.0,-2.3795,-2.3795,-2.3795,0.0,0.0,0.0,0.0,-2.3795,-2.3795,0.0,0.0,0.0,-2.3732,0.0,0.0,-2.3576,0.0,0.0,0.0,0.0,0.0,-2.3795,-2.3795,-2.3795,-2.3795,-2.3795,-2.3795,-2.3876,0.0,0.0,-2.4629,-2.5815,0.0,0.0,-2.7485,-2.7911,-2.7843,-2.7581,-2.8359,-2.8518,-2.8316,-2.8326,-2.8128,-2.7511,-2.5253,-2.5702,0.0,-2.4802,0.0,0.0,0.0,0.0,0.0,-2.4771,0.0,0.0,0.0,0.0,0.0,0.0,0.0,0.0,0.0,0.0,0.0,0.0,0.0,0.0,0.0,0.0,0.0,0.0,0.0,0.0,0.0,0.0,0.0,0.0,0.0,0.0,0.0,0.0,-2.4574,-2.4082,-2.5922,-2.7206,-2.7651,-2.8178,-2.8612,-2.8905,-2.8813,-2.8987,-2.9412,-2.9364,-2.9476,-2.9701,-2.9719,-2.9737,-2.9808,-2.9859,-2.9926,-2.9956,-3.0068,-3.0132,-3.0132,-3.019,-3.0204,-3.0204,-3.0204,-3.0204,-3.0204,-2.3795,-2.3795,0.0,0.0,0.0,0.0,0.0,0.0,0.0,0.0,0.0,0.0,0.0,0.0,0.0,0.0,0.0,-2.3795,-2.3795,0.0,-2.3795,0.0,0.0,-2.3795,0.0,0.0,0.0,0.0,0.0,-2.3795,-2.3795,-2.3795,-2.3795,0.0,0.0,-2.2699,-2.6313,-2.4042,-2.5485,-2.9318,-2.9336,-2.9415,-2.9361,0.0,-2.8057,-2.8718,-2.8344,0.0,0.0,-2.8066,-2.8166,0.0,0.0,0.0,0.0,0.0,0.0,0.0,0.0,0.0,0.0,-2.3567,0.0,0.0,0.0,0.0,-2.3504,0.0,0.0,0.0,0.0,0.0,0.0,0.0,0.0,0.0,0.0,0.0,0.0,0.0,0.0,0.0,0.0,0.0,0.0,0.0,0.0,0.0,-2.5159,-2.599,-2.7173,-2.879,-2.8669,-2.8687,-2.8905,-2.8257,-2.8429,-2.9394,-2.8746,-2.8894,-2.9701,-2.9755,-2.9808,-2.9808,-3.001,-3.0087,-3.0102,-3.0176,-3.0204,-3.0204,-3.0204,-3.0204,-3.0204,-3.0204,-3.0204,-3.0204,0.0,0.0,0.0,0.0,0.0,0.0,0.0,-2.4592,0.0,0.0,0.0,0.0,0.0,0.0,-2.4375,0.0,0.0,-2.3795,-2.3795,-2.4302,0.0,0.0,0.0,-2.4882,0.0,0.0,0.0,0.0,0.0,0.0,0.0,0.0,0.0,0.0,0.0,-2.4756,0.0,0.0,0.0,0.0,0.0,-2.8446,-2.8071,0.0,0.0,-2.8766,-2.8601,-2.8388,0.0,-2.8201,-2.83,-2.8344,-2.7924,-2.7582,-2.729,-2.6939,-2.6339,0.0,0.0,0.0,-2.5252,-2.5275,0.0,0.0,0.0,0.0,0.0,0.0,0.0,0.0,0.0,0.0,0.0,0.0,0.0,0.0,0.0,0.0,0.0,0.0,0.0,0.0,0.0,0.0,0.0,0.0,0.0,0.0,0.0,-2.4912,-2.6408,-2.7414,-2.8415,-2.9034,-2.9246,-2.901,-2.9133,-2.9607,-2.9383,-2.9401,-2.9701,-2.9755,-2.9823,-2.9874,-3.0022,-3.0132,-3.0176,-3.0204,-3.0204,-3.0204,-3.0204,-3.0204,-3.0204,-3.0204,-3.0204,-3.0185,-2.4592,0.0,0.0,0.0,0.0,0.0,0.0,0.0,0.0,0.0,-2.6204,0.0,-2.5099,0.0,-2.4683,0.0,-2.3795,-2.3922,-2.4212,-2.4701,0.0,-2.4664,-2.566,0.0,0.0,0.0,0.0,0.0,0.0,-2.3795,0.0,0.0,0.0,0.0,0.0,0.0,0.0,0.0,-2.7902,0.0,0.0,-2.8034,0.0,0.0,-2.8698,-2.8494,0.0,-2.8536,-2.8335,-2.8335,-2.8406,-2.8458,-2.838,-2.8098,-2.7809,-2.7709,-2.7199,-2.6747,-2.7272,-2.6549,0.0,-2.5746,-2.5104,0.0,-2.3901,0.0,0.0,0.0,0.0,0.0,0.0,0.0,0.0,0.0,0.0,0.0,0.0,-2.0688,0.0,0.0,0.0,0.0,0.0,0.0,0.0,0.0,0.0,0.0,0.0,0.0,-2.5875,-2.719,-2.8463,-2.9209,-2.9412,-2.9412,-2.9511,-2.9701,-2.9701,-2.9701,-2.9738,-2.9789,-2.9874,-2.9972,-3.0083,-3.0161,-3.0204,-3.0204,-3.0204,-3.0204,-3.0204,-3.0204,-3.0204,-3.0204,-3.0204,-3.0185,0.0,0.0,0.0,0.0,-2.5751,0.0,0.0,0.0,-2.6276,0.0,-2.6331,-2.6005,-2.5153,-2.5063,-2.4719,-2.3868,-2.3795,0.0,-2.4882,-2.4972,0.0,0.0,-2.6204,-2.586,-2.5027,0.0,0.0,0.0,0.0,0.0,0.0,0.0,0.0,0.0,-2.3795,0.0,-2.5541,-2.6392,-2.7381,-2.837,-2.8297,-2.822,-2.8163,-2.8077,-2.7975,-2.7948,-2.8427,-2.8612,-2.8587,-2.8587,-2.8587,-2.8587,-2.8587,-2.8587,-2.8587,-2.8587,-2.8069,-2.7471,-2.7471,-2.6312,-2.5117,-2.5117,-2.4502,0.0,0.0,0.0,-2.3967,0.0,0.0,0.0,0.0,0.0,0.0,0.0,0.0,0.0,0.0,0.0,0.0,0.0,0.0,0.0,0.0,0.0,0.0,0.0,0.0,0.0,0.0,0.0,-2.5632,-2.8071,-2.8785,-2.923,-2.9412,-2.9412,-2.9511,-2.9701,-2.9701,-2.9738,-2.9808,-2.9874,-2.9972,-3.0102,-3.0176,-3.0204,-3.0204,-3.0204,-3.0204,-3.0204,-3.0204,-3.0204,-3.0204,-3.0204,-3.0204,-3.0204,-2.6168,-2.6693,-2.7236,0.0,-2.6874,-2.6403,0.0,0.0,0.0,0.0,-2.7997,-2.7453,-2.6041,-2.5896,-2.5335,-2.3922,-2.3795,0.0,0.0,0.0,0.0,-2.4429,-2.6131,-2.6439,-2.5027,-2.5588,0.0,-2.4683,0.0,0.0,-2.3795,0.0,0.0,0.0,0.0,0.0,-2.5504,-2.5725,-2.6767,-2.8315,-2.8873,-2.8643,0.0,0.0,-2.826,-2.7775,-2.8547,-2.8737,-2.8587,-2.8587,-2.8587,-2.8587,-2.8587,-2.8587,-2.8587,-2.8587,-2.8442,-2.8279,-2.8279,-2.7562,-2.6783,-2.6783,-2.6186,-2.5466,0.0,0.0,0.0,0.0,0.0,0.0,0.0,0.0,0.0,0.0,0.0,0.0,0.0,0.0,0.0,-2.1966,0.0,0.0,0.0,0.0,0.0,0.0,0.0,0.0,0.0,0.0,0.0,-2.7396,-2.8821,-2.9569,-2.9626,-2.9626,-2.9645,-2.9701,-2.9701,-2.9738,-2.9808,-2.9874,-2.9972,-3.0102,-3.0176,-3.0204,-3.0204,-3.0204,-3.0204,-3.0204,-3.0204,-3.0204,-3.0204,-3.0204,-3.0204,-3.0204,-2.6729,0.0,0.0,-2.8442,0.0,0.0,-2.787,0.0,0.0,-2.8533,-2.8587,0.0,-2.6874,-2.6421,-2.5697,-2.4429,-2.3994,0.0,0.0,0.0,0.0,-2.4846,-2.6149,-2.6294,-2.5027,-2.5787,0.0,-2.4483,0.0,0.0,-2.3795,0.0,0.0,0.0,0.0,-2.4215,0.0,-2.5687,-2.6615,-2.7601,-2.8355,0.0,0.0,-2.8104,-2.816,-2.8106,-2.8579,-2.8712,-2.8587,-2.8587,-2.8587,-2.8587,-2.8587,-2.8587,-2.8587,-2.8587,-2.8587,-2.8587,-2.8587,-2.8008,-2.7417,-2.7417,-2.6872,-2.6235,-2.5884,-2.6245,-2.6532,0.0,0.0,0.0,0.0,0.0,0.0,0.0,0.0,0.0,0.0,0.0,0.0,0.0,0.0,0.0,0.0,0.0,0.0,0.0,0.0,0.0,0.0,0.0,0.0,-2.7148,-2.8462,-2.8969,-2.8612,-2.8986,-2.9173,-2.9229,-2.9245,-2.9502,-2.9926,-2.9975,-3.0053,-3.0147,-3.0171,-3.0204,-3.0204,-3.0204,-3.0204,-3.0204,-3.0204,-3.0204,-3.0204,-3.0204,-3.0204,-3.0204,0.0,0.0,0.0,0.0,0.0,0.0,0.0,-2.8587,0.0,-2.8732,0.0,-2.8279,-2.7508,-2.6693,-2.5878,-2.5063,0.0,-2.4103,-2.4791,-2.4936,-2.5316,-2.6023,-2.624,-2.5986,-2.5172,-2.595,0.0,0.0,0.0,0.0,0.0,0.0,0.0,0.0,0.0,0.0,0.0,-2.6056,-2.6799,-2.6964,-2.7647,-2.7852,-2.7762,-2.764,-2.7997,-2.8587,-2.8587,-2.8587,-2.8587,-2.8587,-2.8587,-2.8587,-2.8587,-2.8587,-2.8587,-2.8587,-2.8587,-2.8587,-2.8587,-2.808,-2.7562,-2.7586,-2.72,-2.6808,-2.6741,-2.694,-2.7155,-2.7177,-2.7177,-2.7213,0.0,0.0,0.0,0.0,0.0,0.0,0.0,0.0,0.0,0.0,0.0,0.0,0.0,0.0,0.0,0.0,0.0,0.0,0.0,0.0,0.0,-2.6998,-2.7919,-2.805,-2.7355,-2.8229,-2.8714,-2.8768,-2.8834,-2.9289,-3.0102,-3.0102,-3.0132,-3.0204,-3.0204,-3.0204,-3.0204,-3.0204,-3.0204,-3.0204,-3.0199,-3.0199,-3.0199,-3.0226,-3.0226,-3.0226,0.0,0.0,0.0,0.0,0.0,-2.8644,-2.8612,-2.8587,-2.8848,-2.95,-2.9011,-2.8279,-2.7508,-2.6693,-2.5878,-2.5063,-2.4248,0.0,0.0,0.0,0.0,-2.5208,-2.6493,-2.6819,-2.6023,-2.6783,-2.6403,0.0,0.0,0.0,0.0,0.0,0.0,0.0,0.0,0.0,-2.5337,-2.647,0.0,-2.8014,-2.8792,-2.8938,-2.8686,-2.8638,-2.8634,-2.8587,-2.8587,-2.8587,-2.8587,-2.8587,-2.8587,-2.8587,-2.8587,-2.8587,-2.8587,-2.8587,-2.8587,-2.8587,-2.8587,-2.8496,-2.842,-2.8591,-2.8552,-2.8393,-2.7988,-2.844,-2.8779,-2.8259,-2.8708,-2.8952,-2.8166,0.0,0.0,0.0,0.0,0.0,0.0,0.0,0.0,0.0,0.0,0.0,0.0,0.0,0.0,0.0,0.0,0.0,0.0,0.0,0.0,0.0,-2.7636,0.0,0.0,0.0,-2.9581,-2.9581,-2.9666,-2.9839,-3.0102,-3.0102,-3.0132,-3.0204,-3.0204,-3.0204,-3.0204,-3.0204,-3.0204,-3.0218,-3.0273,-3.0247,-3.0213,-3.0321,-3.0356,-3.0352,0.0,0.0,0.0,0.0,0.0,0.0,0.0,-2.8884,0.0,-2.9137,-2.8848,-2.8442,-2.8044,-2.6928,-2.6041,-2.566,-2.4502,-2.3976,-2.4393,-2.4773,-2.519,-2.5606,-2.6765,0.0,-2.6838,-2.7616,-2.7453,-2.624,0.0,0.0,0.0,0.0,0.0,0.0,0.0,-2.4634,0.0,0.0,0.0,-2.8732,-2.9015,-2.9048,-2.8905,-2.8785,-2.8687,-2.8587,-2.8587,-2.8662,-2.8737,-2.8637,-2.8587,-2.8587,-2.8587,-2.8587,-2.8587,-2.8587,-2.8587,-2.8587,-2.8587,-2.8587,-2.8637,-2.8858,-2.8938,-2.8964,-2.8849,-2.9193,-2.9457,-2.9139,-2.9401,-2.9401,-2.8484,-2.7642,0.0,0.0,0.0,0.0,0.0,0.0,0.0,0.0,0.0,0.0,0.0,0.0,0.0,0.0,0.0,0.0,0.0,0.0,0.0,0.0,0.0,0.0,-2.7167,0.0,-2.873,-2.7948,-2.8878,-2.9372,-2.9499,-2.9937,-3.0176,-3.0204,-3.0204,-3.0204,-3.0199,-3.0234,-3.0247,-3.026,-3.0321,-3.0333,-3.0309,-3.037,-3.0413,-3.0442,0.0,-2.7282,0.0,0.0,-2.8612,0.0,-2.9445,-2.9011,-2.8641,-2.8848,-2.8696,-2.8587,-2.8587,-2.7327,-2.6475,-2.6475,-2.5135,-2.4574,-2.5208,-2.5425,-2.5787,-2.6439,-2.7399,-2.7761,-2.7417,-2.8522,-2.8467,0.0,0.0,0.0,0.0,0.0,0.0,0.0,0.0,0.0,0.0,0.0,-2.7849,-2.9163,-2.9026,-2.8934,-2.8881,-2.8737,-2.8637,-2.8587,-2.8587,-2.8737,-2.8881,-2.8712,-2.8662,-2.8662,-2.8612,-2.8587,-2.8587,-2.8587,-2.8587,-2.8587,-2.8587,-2.8637,-2.8712,-2.891,-2.9056,-2.923,-2.9433,-2.9588,-2.9701,-2.9701,-2.9701,-2.9495,-2.8782,-2.8519,0.0,0.0,0.0,0.0,0.0,0.0,0.0,0.0,0.0,0.0,0.0,0.0,0.0,0.0,0.0,0.0,0.0,0.0,0.0,0.0,0.0,-2.6749,-2.6296,0.0,-2.8058,-2.7049,-2.8436,-2.9122,-2.9197,-2.9898,-3.0199,-3.0226,-3.0226,-3.024,-3.0247,-3.0304,-3.0321,-3.0333,-3.0422,-3.0423,-3.0413,-3.0443,-3.0492,-3.0548,0.0,0.0,0.0,0.0,0.0,0.0,-2.8721,-2.8641,-2.8866,-2.959,-2.9047,-2.8587,-2.8587,-2.7815,-2.729,-2.729,-2.6493,-2.6023,-2.6077,-2.6783,-2.7218,-2.729,-2.8757,-2.8884,-2.7435,-2.9626,-2.93,0.0,0.0,0.0,0.0,0.0,0.0,0.0,0.0,0.0,0.0,-2.8379,-2.8838,-2.9104,-2.9104,-2.9012,-2.8905,-2.8881,-2.8761,-2.8587,-2.8587,-2.8737,-2.8905,-2.8881,-2.8863,-2.8858,-2.8662,-2.8587,-2.8587,-2.8587,-2.8587,-2.8587,-2.8587,-2.8737,-2.891,-2.9056,-2.923,-2.9433,-2.9626,-2.9701,-2.9701,-2.9701,-2.9701,-2.9683,-2.9589,-2.8932,-2.8125,0.0,0.0,0.0,0.0,0.0,0.0,0.0,0.0,0.0,0.0,-2.5139,0.0,0.0,0.0,0.0,0.0,0.0,0.0,-2.6075,-2.6177,-2.651,-2.7185,-2.8233,-2.9102,-2.9745,-2.9952,-3.007,-3.007,-3.0166,-3.0221,-3.0292,-3.0292,-3.0321,-3.0381,-3.0392,-3.0392,-3.0402,-3.052,-3.0511,-3.0423,-3.0599,-3.0649,-3.0727,0.0,0.0,0.0,0.0,0.0,0.0,0.0,-2.9735,-2.9807,-2.9156,-2.8811,-2.8587,-2.8587,-2.7863,-2.7417,-2.7417,-2.6675,-2.6403,-2.6892,-2.7236,-2.7634,-2.808,-2.9663,-3.0206,-2.9572,-3.0496,-3.0369,0.0,0.0,0.0,0.0,0.0,0.0,0.0,0.0,-2.8773,-2.9844,-2.9692,-3.0013,-3.0563,-2.9926,-2.9379,-2.8881,-2.8761,-2.8662,-2.8587,-2.8587,-2.8773,-2.9012,-2.8934,-2.8938,-2.9012,-2.892,-2.8897,-2.8897,-2.8897,-2.8897,-2.8897,-2.8897,-2.8966,-2.9056,-2.923,-2.9332,-2.9453,-2.9645,-2.9701,-2.9701,-2.9701,-2.9701,-2.9701,-2.9701,-2.942,-2.8913,-2.8068,0.0,0.0,0.0,0.0,0.0,0.0,0.0,0.0,0.0,0.0,0.0,0.0,0.0,0.0,0.0,0.0,0.0,-2.6695,0.0,-2.6752,-2.8123,-2.8506,-2.8673,-2.867,-2.9186,-2.9461,-2.9532,-2.9594,-2.989,-3.0348,-3.0348,-3.037,-3.0413,-3.0501,-3.052,-3.052,-3.061,-3.0626,-3.0649,-3.1258,-3.1455,-3.1657,-2.8294,0.0,-2.994,0.0,-3.0604,-3.0803,-3.0224,-3.0622,-3.0496,-2.9137,-2.8956,-2.8866,-2.8623,-2.808,-2.7737,-2.7737,-2.7236,-2.7164,-2.7725,-2.7737,-2.8015,-2.8569,-2.9916,0.0,-3.0296,-3.0749,-3.0767,-3.0296,-2.9391,0.0,0.0,0.0,0.0,0.0,-2.93,-3.0231,-3.117,-3.0852,-3.0984,-3.1329,-3.0399,-2.9667,-2.912,-2.8753,-2.8587,-2.8587,-2.8587,-2.8797,-2.9034,-2.8984,-2.9056,-2.9169,-2.9126,-2.9086,-2.9086,-2.9086,-2.9086,-2.9086,-2.9086,-2.9148,-2.923,-2.9353,-2.9433,-2.9531,-2.9664,-2.9701,-2.9701,-2.9701,-2.9701,-2.9701,-2.9701,-2.9701,-2.9401,-2.8538,0.0,0.0,0.0,0.0,0.0,0.0,0.0,-2.7185,-2.7024,0.0,0.0,0.0,0.0,0.0,0.0,0.0,0.0,0.0,0.0,0.0,-2.8398,-2.8398,-2.8444,-2.8495,-2.9058,-2.939,-2.9486,-2.9562,-2.9912,-3.0462,-3.0482,-3.0492,-3.0501,-3.0593,-3.0629,-3.0649,-3.0967,-3.0923,-3.0846,-3.1972,-3.222,-3.2247,-2.9755,-2.9893,-3.014,-3.0867,-3.0985,-3.0985,-3.0985,-3.0985,-3.0695,-2.988,-2.9771,-2.9481,-2.8677,-2.8587,-2.8587,-2.8587,-2.8569,-2.8569,-2.8569,-2.8587,-2.8587,0.0,0.0,-2.9427,-2.8641,-3.0188,-3.0224,-2.8623,0.0,0.0,-2.624,0.0,-2.8667,-3.0985,-3.1799,-3.1727,-3.1039,-3.1836,-3.1709,-3.0957,-3.0142,-2.9816,-2.9707,-2.8902,-2.8587,-2.8587,-2.8587,-2.8737,-2.891,-2.9038,-2.923,-2.9353,-2.9169,-2.9086,-2.9086,-2.9086,-2.9086,-2.9086,-2.9086,-2.9251,-2.9392,-2.9412,-2.955,-2.9701,-2.9701,-2.9701,-2.9701,-2.9701,-2.9701,-2.9701,-2.9701,-2.9701,-2.9401,-2.8538,0.0,0.0,0.0,0.0,0.0,0.0,-2.6873,-2.7058,-2.6195,0.0,0.0,0.0,0.0,0.0,0.0,0.0,0.0,-2.6282,-2.5608,0.0,-2.7697,-2.7843,-2.8741,-3.0378,-3.0392,-3.0383,-3.0383,-3.053,-3.0595,-3.0604,-3.0668,-3.069,-3.069,-3.069,-3.069,-3.0787,-3.1661,-3.1467,-3.0904,-3.2652,-3.2749,-3.2252,-2.9813,-3.0704,-3.1537,-3.1763,-3.227,-3.2451,-3.189,-3.1818,-3.1528,-3.0713,-3.0133,-2.9681,-2.9445,-2.8938,-2.8587,0.0,-2.8587,-2.8587,0.0,-2.8587,-2.8587,-2.8587,-2.9373,-2.9663,-2.9409,-2.9916,-2.9916,-2.9409,0.0,0.0,0.0,-2.9481,-3.026,-3.1021,-3.1836,-3.1745,-3.1039,-3.1854,-3.1727,-3.1021,-3.131,-3.0767,-2.9779,-2.9518,-2.9083,-2.8587,-2.8587,-2.8737,-2.891,-2.906,-2.923,-2.9412,-2.9492,-2.9512,-2.9512,-2.9512,-2.9512,-2.9512,-2.9512,-2.955,-2.9589,-2.9589,-2.9645,-2.9701,-2.9701,-2.9701,-2.9701,-2.9701,-2.9701,-2.9701,-2.9701,-2.9701,-2.9401,-2.8538,-2.9032,0.0,0.0,0.0,0.0,0.0,-2.7382,-2.7695,0.0,-2.6797,0.0,0.0,0.0,0.0,0.0,0.0,0.0,0.0,-2.7404,0.0,-2.9531,-2.8959,-2.9272,-3.053,-2.994,-2.9677,-2.9738,-3.0382,-3.0668,-3.0668,-3.0683,-3.069,-3.069,-3.069,-3.104,-3.1545,-3.1234,-3.1661,-3.2536,-3.3099,-3.3468,-3.3884,-3.0142,-3.1057,-3.1926,-3.2542,-3.3067,-3.323,-3.2723,-3.2651,-3.2252,-3.1129,-3.055,-3.0007,-2.9409,-2.8902,0.0,-2.8587,-2.8884,-2.9047,-2.9047,-2.9047,-2.9192,-2.95,-2.9681,-2.9934,-3.0224,-3.0242,0.0,-3.0242,-2.9445,-2.93,-2.9816,-3.0296,-3.0695,-3.1021,-3.1528,-3.1636,-3.1473,-3.1981,-3.2071,-3.1908,-3.2125,-3.1419,-3.0242,-3.0242,-2.9554,-2.8677,-2.9282,-2.9196,-2.887,-2.9333,-2.9403,-2.9332,-2.9531,-2.9645,-2.9701,-2.9701,-2.9701,-2.9701,-2.9701,-2.9701,-2.9701,-2.9701,-2.9701,-2.9701,-2.9701,-2.9701,-2.9701,-2.9701,-2.9701,-2.9701,-2.9701,-2.9701,-2.9514,-2.8988,-2.9498,-2.9505,-2.8113,0.0,0.0,0.0,0.0,0.0,0.0,-2.7596,-2.7193,0.0,0.0,0.0,0.0,0.0,0.0,-2.8571,-2.8184,-2.8626,-3.0018,-2.9448,-2.9651,-3.0621,-3.0086,-2.9858,-2.9913,-3.0457,-3.069,-3.069,-3.069,-3.069,-3.069,-3.069,-3.1215,-3.1992,-3.1759,-3.2341,-3.3371,-3.4034,-3.4384,-3.4671,-3.0631,-3.0976,-3.1519,0.0,-3.3357,0.0,-3.3393,-3.3357,-3.2795,-3.1347,-3.1057,-3.0441,-2.9003,-2.8786,-2.8775,-2.8775,0.0,0.0,0.0,-2.9699,-3.0043,-3.0785,-3.0115,-3.0061,-3.0803,-3.0876,-3.093,-3.0985,-3.0242,-2.9898,-2.9979,-2.9979,-3.0351,-3.1075,-3.1075,-3.1473,-3.2125,-3.218,-3.2632,-3.3266,-3.256,-3.1799,-3.1075,-3.1075,-3.0115,-2.8949,-3.0459,-3.0043,-2.8909,-2.9874,-2.9774,-2.9314,-2.95,-2.9699,-2.9833,-2.972,-2.9701,-2.9701,-2.9701,-2.9701,-2.9701,-2.9758,-2.9833,-2.987,-2.987,-2.987,-2.9852,-2.9795,-2.9777,-2.9758,-2.9701,-2.9701,-2.9683,-2.9701,-2.9934,-2.9803,-2.8943,0.0,0.0,0.0,0.0,0.0,-2.8076,-2.7941,-2.7962,0.0,0.0,0.0,0.0,0.0,-2.8144,-2.8272,-2.8276,-2.8679,-2.9486,-2.9489,-2.9911,-3.07,-3.0703,-3.069,-3.069,-3.069,-3.069,-3.069,-3.069,-3.069,-3.069,-3.069,-3.1254,-3.2166,-3.2924,-3.3313,-3.367,-3.5223,-3.5334,-3.4795,0.0,0.0,-3.1374,-3.2409,-3.3081,-3.3452,-3.3411,-3.2886,-3.256,-3.2795,-3.1763,-3.1075,-3.1329,-3.0803,-3.0423,-3.0423,-2.9481,-2.8884,-2.8884,-2.8884,-2.8974,-2.9174,-2.8993,-2.8974,-2.9174,-2.9771,-3.0369,-3.0985,-3.0803,-3.1021,-3.1618,-3.1618,-3.1727,-3.1908,-3.1908,-3.1673,-3.131,-3.1926,-3.2306,-3.2524,-3.294,-3.2632,-3.1908,-3.1908,-3.1292,-3.0477,-3.0858,-3.0749,-3.0486,-3.087,-3.1023,-3.103,-3.1191,-3.1362,-3.1278,-3.0058,-2.9701,-2.9701,-2.9701,-2.9701,-2.9852,-3.0471,-3.1091,-3.1523,-3.1523,-3.1523,-3.1354,-3.0753,-3.0621,-3.0434,-2.9814,-2.9701,-2.9738,-2.9841,-2.9996,-2.9863,-2.9128,-2.935,0.0,0.0,-2.9139,-2.9429,-2.9893,-2.9332,-2.8955,0.0,0.0,0.0,-2.8315,-2.9367,-2.9976,-3.0014,-3.0056,-3.0188,-3.0382,-3.0389,-3.0494,-3.0703,-3.069,-3.069,-3.069,-3.069,-3.069,-3.069,-3.069,-3.069,-3.069,-3.069,-3.1603,-3.2943,-3.2497,-3.3507,-3.5177,-3.4921,-3.5115,-3.5551,-2.9799,-3.0574,-3.1238,-3.1665,-3.2391,-3.278,-3.2343,-3.1926,-3.1673,-3.1745,-3.131,-3.1021,-3.1093,-3.1039,-3.0985,-3.0985,-3.0532,-3.026,-3.026,-2.9898,-2.9862,-3.0242,-2.9554,-2.9318,-2.9699,-3.0115,-3.0369,-3.0441,-3.0441,-3.0659,-3.1093,-3.1093,-3.1093,-3.1111,-3.1473,-3.1401,-3.1039,-3.1854,-3.2415,-3.2795,-3.323,-3.2922,-3.2234,-3.2614,-3.2017,-3.1093,-3.1818,-3.1618,-3.1066,-3.1556,-3.1605,-3.1477,-3.1649,-3.1834,-3.1815,-3.1034,-3.079,-3.079,-3.079,-3.079,-3.0903,-3.1335,-3.1785,-3.2105,-3.2105,-3.2105,-3.1973,-3.1541,-3.1447,-3.1203,-3.0396,-3.0246,-3.017,-2.9948,-2.9669,-2.9404,-2.9125,-2.9216,0.0,-2.9302,-2.965,-3.0075,-3.0559,-3.0172,-2.9882,-2.9882,-2.9534,0.0,-2.9186,-2.9705,-3.0012,-3.0051,-3.0459,-3.0695,-3.0695,-3.0695,-3.0703,-3.069,-3.069,-3.069,-3.069,-3.069,-3.069,-3.069,-3.069,-3.069,-3.0729,-3.1137,-3.2089,-3.3293,-3.3177,-3.4225,-3.576,-3.5298,-3.5441,-3.5857,-2.971,-3.0443,-3.0956,-3.0929,-3.1529,-3.1809,-3.1093,-3.0985,-3.0749,-3.0087,-3.0677,-3.0912,-3.0224,-3.0876,-3.1347,-3.1347,-3.1981,-3.227,-3.2035,-3.1365,-3.1292,-3.1981,-3.0586,-3.017,-3.0966,-3.1111,-3.084,-3.0152,-3.0152,-3.0097,-2.997,-3.0097,-3.0152,-3.0188,-3.0985,-3.1347,-3.1401,-3.2089,-3.2777,-3.3393,-3.3393,-3.2995,-3.2451,-3.314,-3.2542,-3.1528,-3.2904,-3.2524,-3.1455,-3.2144,-3.2065,-3.1686,-3.1894,-3.2066,-3.2229,-3.242,-3.248,-3.2424,-3.2161,-3.2198,-3.2292,-3.2292,-3.2386,-3.248,-3.248,-3.248,-3.2443,-3.2311,-3.2198,-3.186,-3.1053,-3.0809,-3.049,-2.9848,-2.9208,-2.883,-2.8929,0.0,-2.9302,-2.9302,-3.0075,-3.0598,-3.0598,-3.0714,-3.0733,-3.0617,-3.0037,-2.9882,-3.0385,-2.9831,-2.9469,-2.9389,-3.0241,-3.071,-3.069,-3.069,-3.069,-3.069,-3.069,-3.069,-3.069,-3.069,-3.0768,-3.0884,-3.0749,-3.0846,-3.1137,-3.1759,-3.2594,-3.3546,-3.4225,-3.5022,-3.5818,-3.5857,-3.5872,-3.5898,-2.9051,-2.9704,-3.0227,-3.0177,-3.0826,-3.1265,-3.1048,-3.0985,-3.0948,-3.0822,-3.151,-3.1962,-3.1836,-3.2542,-3.3031,-3.3031,-3.314,-3.2632,-3.1274,-3.1057,-3.1057,-3.1166,-3.0296,-3.017,-3.0966,-3.1673,-3.1944,-3.1818,-3.1818,-3.1473,-3.0822,-3.151,-3.1818,-3.1854,-3.2669,-3.3031,-3.3049,-3.3158,-3.3284,-3.3393,-3.3393,-3.3339,-3.323,-3.3357,-3.3248,-3.3067,-3.3302,-3.3248,-3.3049,-3.3176,-3.3247,-3.3359,-3.3552,-3.3777,-3.3967,-3.4145,-3.4207,-3.3888,-3.248,-3.2649,-3.3212,-3.3212,-3.3719,-3.4207,-3.4207,-3.4207,-3.402,-3.3344,-3.2611,-3.186,-3.1053,-3.034,-2.9697,-2.9074,-2.8878,-2.8657,-2.8232,0.0,-2.9302,-2.9302,-3.0075,-3.0598,-3.0598,-3.1217,-3.1333,-3.0656,-3.1101,-3.0849,-2.9573,-3.0064,-3.0081,-2.9345,-3.0219,-3.0695,-3.069,-3.069,-3.069,-3.069,-3.069,-3.069,-3.069,-3.069,-3.1098,-3.1759,-3.102,-3.1545,-3.2846,-3.2244,-3.2905,-3.4323,-3.4439,-3.5022,-3.5799,-3.5807,-3.5826,-3.5815,-2.8952,-2.9569,-2.9942,-2.943,-3.0006,-3.0337,-2.9849,-2.9751,-2.9751,-2.9751,-3.0485,-3.1002,-3.0966,-3.2101,-3.2845,-3.2817,-3.3198,-3.3125,-3.2343,-3.189,-3.1636,-3.1636,-3.0876,-3.0604,-3.0985,-3.1347,-3.1546,-3.1546,-3.1546,-3.1582,-3.1636,-3.2035,-3.2198,-3.2234,-3.3049,-3.3158,-3.2777,-3.3212,-3.3393,-3.3393,-3.3393,-3.3393,-3.3393,-3.3393,-3.3393,-3.3393,-3.3393,-3.3393,-3.3393,-3.3393,-3.3452,-3.3577,-3.378,-3.3895,-3.4049,-3.434,-3.4517,-3.4433,-3.3663,-3.3738,-3.4057,-3.4057,-3.432,-3.4602,-3.4602,-3.4602,-3.4489,-3.4113,-3.3719,-3.3193,-3.2405,-3.1936,-3.1356,-3.0361,-2.9813,0.0,-2.9409,-2.9747,-3.0153,-3.0598,-3.1429,-3.1758,-3.1294,-3.1584,-3.1468,-3.0656,-3.1352,-3.1468,-3.0694,-3.1033,-3.109,-3.0711,-3.0696,-3.0921,-3.1409,-3.0923,-3.0943,-3.139,-3.0923,-3.0943,-3.1409,-3.1409,-3.1875,-3.2691,-3.2283,-3.2555,-3.3293,-3.3332,-3.3798,-3.4556,-3.5022,-3.5449,-3.5799,-3.5799,-3.5799,-3.5799,-2.8994,-2.9465,-2.9637,-2.8943,-2.9296,-2.9446,-2.8828,-2.8718,-2.8718,-2.8718,-2.9478,-2.997,-2.9937,-3.1237,-3.2092,-3.2038,-3.2629,-3.3019,-3.3161,-3.2418,-3.2117,-3.2451,-3.189,-3.1473,-3.1274,-3.1455,-3.1455,-3.1274,-3.1274,-3.1492,-3.1926,-3.2107,-3.2198,-3.2234,-3.3049,-3.3067,-3.2524,-3.314,-3.3393,-3.3393,-3.3393,-3.3393,-3.3393,-3.3393,-3.3393,-3.3393,-3.3393,-3.3422,-3.3481,-3.3481,-3.3509,-3.3577,-3.378,-3.3842,-3.3895,-3.4269,-3.4473,-3.4602,-3.4602,-3.4602,-3.4602,-3.4602,-3.4602,-3.4602,-3.4602,-3.4602,-3.4602,-3.4602,-3.4451,-3.4132,-3.3513,-3.3272,-3.277,-3.1581,0.0,-3.0554,-3.0839,-3.0888,-3.1178,-3.201,-3.2676,-3.2831,-3.2184,-3.23,-3.2068,-3.1236,-3.1952,-3.2319,-3.2106,-3.2126,-3.2048,-3.1911,-3.113,-3.1115,-3.1984,-3.1137,-3.1137,-3.1984,-3.1312,-3.1467,-3.2302,-3.2302,-3.2769,-3.3565,-3.3371,-3.3526,-3.3915,-3.4323,-3.4614,-3.4866,-3.5546,-3.5799,-3.5799,-3.5799,-3.5799,-3.5799,-2.8994,-2.903,-2.9025,-2.8905,-2.8942,-2.8912,-2.8828,-2.8785,-2.8785,-2.8785,-2.9503,-2.9995,-2.9995,-3.0779,-3.1308,-3.1263,-3.1336,-3.1682,-3.2429,-3.1719,-3.1883,-3.3248,-3.3248,-3.2868,-3.2125,-3.2832,-3.285,-3.2107,-3.2107,-3.1763,-3.1093,-3.1836,-3.2198,-3.2234,-3.3049,-3.3375,-3.3321,-3.3375,-3.3393,-3.3393,-3.3393,-3.3393,-3.3393,-3.3393,-3.3393,-3.3393,-3.3393,-3.352,-3.3671,-3.3671,-3.3788,-3.3998,-3.4197,-3.4245,-3.4293,-3.4517,-3.4602,-3.4602,-3.4602,-3.4602,-3.4602,-3.4602,-3.4602,-3.4602,-3.4602,-3.4602,-3.4602,-3.4602,-3.4001,-3.3475,-3.3419,-3.2883,-3.225,-3.1535,0.0,0.0,-3.168,-3.1719,-3.2029,-3.2889,-3.3063,-3.3063,-3.3005,-3.3731,-3.3847,-3.2966,-3.3712,-3.3866,-3.3044,-3.3064,-3.2733,-3.1942,-3.1127,-3.1115,-3.1984,-3.1137,-3.1137,-3.2004,-3.1933,-3.2361,-3.3196,-3.3196,-3.3643,-3.4361,-3.3623,-3.4187,-3.5566,-3.4808,-3.4983,-3.5721,-3.5779,-3.5799,-3.5799,-3.5799,-3.5799,-3.5799,-2.8994,-2.8994,-2.8994,-2.8905,-2.8905,-2.8905,-2.8881,-2.8858,-2.8858,-2.8858,-2.9161,-2.9362,-2.932,-3.0076,-3.057,-3.052,-3.0958,-3.1378,-3.1654,-3.1381,-3.1682,-3.2738,-3.3208,-3.3335,-3.2998,-3.3259,-3.3248,-3.294,-3.294,-3.2806,-3.2573,-3.2824,-3.2969,-3.3016,-3.3296,-3.3393,-3.3393,-3.3393,-3.3393,-3.3393,-3.3393,-3.3393,-3.3393,-3.3393,-3.3393,-3.3393,-3.3393,-3.3452,-3.352,-3.3661,-3.3753,-3.3842,-3.4049,-3.4124,-3.4148,-3.434,-3.4495,-3.4602,-3.4602,-3.4602,-3.4602,-3.4602,-3.4602,-3.4602,-3.4602,-3.4602,-3.4602,-3.4602,-3.4358,-3.4132,-3.4132,-3.3932,-3.3601,-3.3045,0.0,-3.3127,-3.3381,-3.3402,-3.3731,-3.4601,-3.4717,-3.4505,-3.3963,-3.4214,-3.404,-3.316,-3.3905,-3.4253,-3.3924,-3.3935,-3.3819,-3.3514,-3.2699,-3.2435,-3.2807,-3.2477,-3.273,-3.3546,-3.3041,-3.3235,-3.4031,-3.4031,-3.4517,-3.5294,-3.4983,-3.5216,-3.5779,-3.5449,-3.5507,-3.5799,-3.5799,-3.5799,-3.5799,-3.5799,-3.5799,-3.5799,-2.8994,-2.8994,-2.8994,-2.8929,-2.8929,-2.8929,-2.8929,-2.8929,-2.8929,-2.8929,-2.9195,-2.936,-2.9295,-3.0075,-3.0552,-3.0503,-3.0998,-3.1411,-3.1616,-3.1871,-3.2119,-3.2375,-3.313,-3.352,-3.352,-3.3481,-3.3452,-3.3422,-3.3452,-3.3452,-3.3481,-3.3452,-3.3452,-3.3481,-3.3422,-3.3393,-3.3422,-3.3393,-3.3393,-3.3422,-3.3393,-3.3393,-3.3393,-3.3393,-3.3393,-3.3393,-3.3393,-3.3452,-3.3538,-3.3643,-3.378,-3.3921,-3.4049,-3.4148,-3.4221,-3.434,-3.4495,-3.4602,-3.4602,-3.4602,-3.4602,-3.4602,-3.4602,-3.4602,-3.4602,-3.4602,-3.4602,-3.4602,-3.4602,-3.4602,-3.4602,-3.4647,-3.4603,-3.4323,-3.4324,-3.4477,-3.4773,-3.4814,-3.5027,-3.5626,-3.5704,-3.5472,-3.4872,-3.4814,-3.4563,-3.3963,-3.4466,-3.4805,-3.4816,-3.4817,-3.472,-3.4503,-3.4201,-3.3918,-3.3682,-3.3429,-3.3701,-3.4478,-3.3934,-3.4109,-3.4905,-3.4905,-3.5236,-3.5799,-3.5799,-3.5799,-3.5799,-3.5799,-3.5799,-3.5799,-3.5799,-3.5799,-3.5799,-3.5799,-3.5799,-3.5799,-2.8994,-2.8994,-2.8994,-2.8994,-2.8994,-2.8994,-2.8994,-2.8994,-2.8994,-2.8994,-2.9714,-3.021,-3.021,-3.0907,-3.1384,-3.1384,-3.1384,-3.1733,-3.254,-3.3348,-3.3359,-3.2456,-3.3168,-3.3605,-3.3605,-3.3605,-3.3577,-3.3509,-3.3577,-3.352,-3.3393,-3.3481,-3.3481,-3.3393,-3.3393,-3.3422,-3.3509,-3.3422,-3.3452,-3.3491,-3.3422,-3.3393,-3.3393,-3.3393,-3.3393,-3.3393,-3.3393,-3.352,-3.3698,-3.3698,-3.3972,-3.4293,-3.4293,-3.445,-3.4602,-3.4602,-3.4602,-3.4602,-3.4602,-3.4602,-3.4602,-3.4602,-3.4602,-3.4602,-3.4602,-3.4602,-3.4602,-3.4602,-3.4602,-3.4602,-3.4602,-3.4771,-3.4945,-3.5081,-3.5273,-3.5483,-3.5673,-3.5704,-3.5704,-3.5704,-3.5704,-3.5704,-3.5704,-3.5704,-3.5704,-3.5704,-3.5704,-3.5695,-3.5688,-3.5689,-3.533,-3.4542,-3.5355,-3.5391,-3.4517,-3.372,-3.372,-3.4517,-3.4517,-3.4964,-3.5799,-3.5799,-3.5799,-3.5799,-3.5799,-3.5799,-3.5799,-3.5799,-3.5799,-3.5799,-3.5799,-3.5799,-3.5799,-3.5799,-3.5799,-3.5799,-2.8994,-2.8994,-2.8994,-2.8994,-2.8994,-2.8994,-2.8994,-2.8994,-2.8994,-2.8994,-2.9714,-3.021,-3.021,-3.0907,-3.1384,-3.1384,-3.1384,-3.1494,-3.1733,-3.2504,-3.2826,-3.2554,-3.3277,-3.3671,-3.3671,-3.3615,-3.3605,-3.3577,-3.3605,-3.3605,-3.3605,-3.3577,-3.3577,-3.3605,-3.3549,-3.352,-3.3509,-3.3481,-3.3452,-3.3422,-3.3411,-3.3393,-3.3393,-3.3393,-3.3393,-3.3393,-3.3393,-3.3452,-3.3491,-3.3643,-3.3807,-3.3998,-3.4269,-3.4473,-3.4602,-3.4602,-3.4602,-3.4602,-3.4602,-3.4602,-3.4602,-3.4602,-3.4602,-3.4602,-3.4602,-3.4602,-3.4602,-3.4602,-3.4602,-3.4602,-3.4602,-3.5263,-3.5647,-3.5176,-3.5772,-3.6369,-3.6524,-3.6052,-3.5916,-3.6477,-3.6033,-3.5704,-3.5704,-3.6207,-3.6535,-3.6535,-3.6596,-3.6105,-3.4932,-3.5436,-3.5668,-3.5422,-3.5655,-3.5682,-3.541,-3.5177,-3.5177,-3.541,-3.541,-3.5546,-3.5799,-3.5799,-3.5799,-3.5799,-3.5799,-3.5799,-3.5799,-3.5799,-3.5799,-3.5799,-3.5799,-3.5799,-3.5799,-3.5799,-3.541,-3.4886,-2.9475,-2.9732,-2.9953,-2.9953,-2.9696,-2.9586,-2.9898,-2.9696,-2.9604,-2.9916,-3.065,-3.1164,-3.1164,-3.1861,-3.2339,-3.2339,-3.2339,-3.2339,-3.2339,-3.3109,-3.3421,-3.3091,-3.3808,-3.4055,-3.3753,-3.3387,-3.3332,-3.3643,-3.3671,-3.3524,-3.3186,-3.3497,-3.3478,-3.3205,-3.3487,-3.3605,-3.3577,-3.3549,-3.352,-3.3538,-3.3509,-3.3452,-3.3452,-3.3481,-3.3452,-3.3452,-3.3481,-3.3481,-3.3509,-3.3633,-3.3726,-3.3868,-3.4269,-3.445,-3.4495,-3.458,-3.4602,-3.4602,-3.4602,-3.4602,-3.4602,-3.4602,-3.4602,-3.4602,-3.4602,-3.4602,-3.4695,-3.5033,-3.5108,-3.5108,-3.5108,-3.5981,-3.6331,-3.5272,-3.6002,-3.6639,-3.6447,-3.6013,-3.5878,-3.6361,-3.5994,-3.5704,-3.5704,-3.6149,-3.6284,-3.5947,-3.5649,-3.5214,-3.4544,-3.4999,-3.5443,-3.5782,-3.5791,-3.5799,-3.5799,-3.5469,-3.5469,-3.5799,-3.5799,-3.5799,-3.5799,-3.5799,-3.5799,-3.5799,-3.5799,-3.5799,-3.5779,-3.543,-3.5488,-3.5779,-3.543,-3.5507,-3.576,-3.541,-3.4944,-3.4439,-3.032,-3.0834,-3.1329,-3.1476,-3.0834,-3.0577,-3.1366,-3.0889,-3.065,-3.1311,-3.21,-3.2614,-3.2614,-3.333,-3.3807,-3.3807,-3.3807,-3.3807,-3.3807,-3.4504,-3.4578,-3.3825,-3.4449,-3.4486,-3.3807,-3.3091,-3.302,-3.3698,-3.378,-3.3341,-3.2529,-3.3342,-3.3287,-3.2566,-3.3277,-3.3643,-3.3698,-3.3615,-3.3643,-3.3671,-3.3615,-3.3549,-3.3538,-3.3577,-3.3549,-3.3538,-3.3577,-3.3605,-3.3605,-3.3605,-3.3698,-3.3868,-3.4245,-3.4302,-3.4265,-3.452,-3.4545,-3.4526,-3.4677,-3.4714,-3.4733,-3.4808,-3.4808,-3.4789,-3.4733,-3.4771,-3.5033,-3.5747,-3.5897,-3.5878,-3.5803,-3.6682,-3.6939,-3.5463,-3.6189,-3.6723,-3.6021,-3.5916,-3.5916,-3.5916,-3.5839,-3.5839,-3.5916,-3.5994,-3.5676,-3.4807,-3.4139,-3.4061,-3.47,-3.4805,-3.5191,-3.5881,-3.5918,-3.5877,-3.5799,-3.5002,-3.5002,-3.5799,-3.5663,-3.5663,-3.5799,-3.5721,-3.5741,-3.5799,-3.5721,-3.5682,-3.5624,-3.475,-3.4905,-3.5605,-3.4808,-3.4991,-3.5593,-3.4797,-3.4416,-3.419,-3.1127,-3.076,-3.087,-3.2118,-3.1678,-3.1403,-3.2228,-3.2192,-3.1916,-3.1458,-3.21,-3.2614,-3.2614,-3.333,-3.3807,-3.3807,-3.3807,-3.3807,-3.3807,-3.3972,-3.399,-3.3807,-3.3366,-3.3348,-3.3788,-3.3623,-3.3623,-3.378,-3.3788,-3.3688,-3.3496,-3.3688,-3.3688,-3.3496,-3.368,-3.3726,-3.3698,-3.3671,-3.3661,-3.3633,-3.3605,-3.3605,-3.3577,-3.3605,-3.3605,-3.3577,-3.3605,-3.3605,-3.3605,-3.3605,-3.3698,-3.3842,-3.4099,-3.3794,-3.3515,-3.437,-3.4151,-3.3944,-3.5259,-3.5615,-3.5766,-3.6385,-3.6554,-3.6385,-3.5766,-3.6104,-3.6423,-3.5991,-3.5897,-3.5691,-3.5015,-3.6387,-3.7294,-3.6277,-3.7676,-3.86,-3.7773,-3.7657,-3.7657,-3.7657,-3.7058,-3.6903,-3.7599,-3.8276,-3.8338,-3.752,-3.7927,-3.7715,-3.6597,-3.7169,-3.7325,-3.682,-3.6828,-3.6498,-3.5818,-3.5605,-3.5605,-3.5779,-3.4478,-3.4536,-3.5779,-3.51,-3.5158,-3.576,-3.508,-3.4769,-3.4711,-3.3895,-3.4031,-3.475,-3.4575,-3.4652,-3.4841,-3.4652,-3.3746,-3.2592,-3.3128,-3.3109,-3.3385,-3.4229,-3.3678,-3.3275,-3.3697,-3.3421,-3.3018,-3.2596,-3.2908,-3.3183,-3.3183,-3.355,-3.3807,-3.3807,-3.3807,-3.3807,-3.3807,-3.4174,-3.4211,-3.3825,-3.377,-3.377,-3.3807,-3.3807,-3.3807,-3.3807,-3.3807,-3.3605,-3.3238,-3.3623,-3.3605,-3.3238,-3.3623,-3.3982,-3.4339,-3.4339,-3.4549,-3.4851,-3.4448,-3.4256,-3.4173,-3.3817,-3.3671,-3.3606,-3.325,-3.3211,-3.3379,-3.3857,-3.4012,-3.4074,-3.4269,-3.4298,-3.4279,-3.4539,-3.4864,-3.5277,-3.5766,-3.6179,-3.6573,-3.6986,-3.738,-3.7361,-3.6179,-3.6235,-3.6517,-3.6479,-3.646,-3.6441,-3.6385,-3.7754,-3.8456,-3.7175,-3.8397,-3.9204,-3.8315,-3.8199,-3.8063,-3.7638,-3.7174,-3.7077,-3.7541,-3.8017,-3.8128,-3.7714,-3.7754,-3.7579,-3.712,-3.7528,-3.7566,-3.712,-3.71,-3.6887,-3.642,-3.6012,-3.6226,-3.7023,-3.5313,-3.473,-3.5158,-3.4711,-3.4536,-3.4575,-3.4128,-3.3934,-3.3864,-3.3018,-3.3168,-3.3894,-3.349,-3.3614,-3.3984,-3.3988,-3.3438,-3.2736,-3.521,-3.5679,-3.6174,-3.645,-3.5789,-3.521,-3.521,-3.4669,-3.4119,-3.3844,-3.3917,-3.4009,-3.4009,-3.4009,-3.3954,-3.3807,-3.3807,-3.3862,-3.4009,-3.4504,-3.4578,-3.4027,-3.4523,-3.4486,-3.3807,-3.3807,-3.3807,-3.3807,-3.3807,-3.3458,-3.2834,-3.3495,-3.344,-3.2834,-3.3495,-3.4266,-3.499,-3.499,-3.5514,-3.6229,-3.5514,-3.521,-3.5062,-3.4458,-3.4202,-3.4055,-3.345,-3.3216,-3.3273,-3.3833,-3.4054,-3.4153,-3.4483,-3.4944,-3.5296,-3.5105,-3.5942,-3.6802,-3.6423,-3.6798,-3.7305,-3.7305,-3.7812,-3.7906,-3.6441,-3.6329,-3.6686,-3.7192,-3.7305,-3.7455,-3.8,-3.9117,-3.9452,-3.8056,-3.8869,-3.9373,-3.8547,-3.8547,-3.8315,-3.7444,-3.7483,-3.7502,-3.7367,-3.7525,-3.7644,-3.7656,-3.7027,-3.6977,-3.7702,-3.7741,-3.7683,-3.7547,-3.7547,-3.7469,-3.7314,-3.6615,-3.6964,-3.8382,-3.6925,-3.5799,-3.4944,-3.4789,-3.4361,-3.3701,-3.3425,-3.3374,-3.3439,-3.2274,-3.2489,-3.3448,-3.2625,-3.2812,-3.3539,-3.3543,-3.3449,-3.3452,-3.6119,-3.5624,-3.5642,-3.7074,-3.6652,-3.6119,-3.6119,-3.6028,-3.544,-3.399,-3.4412,-3.4825,-3.4825,-3.4825,-3.4578,-3.3862,-3.3807,-3.41,-3.477,-3.4302,-3.4229,-3.4807,-3.4284,-3.3917,-3.3807,-3.3807,-3.3807,-3.3807,-3.3807,-3.3733,-3.3642,-3.3752,-3.3733,-3.3642,-3.3752,-3.4266,-3.499,-3.499,-3.5514,-3.6285,-3.6174,-3.6119,-3.6101,-3.5991,-3.5973,-3.5954,-3.5844,-3.5016,-3.3759,-3.2442,-3.2525,-3.3347,-3.4301,-3.462,-3.4952,-3.6481,-3.6562,-3.6406,-3.7629,-3.8056,-3.815,-3.815,-3.8225,-3.8056,-3.7136,-3.8056,-3.8901,-3.8263,-3.815,-3.7962,-3.7361,-3.8096,-3.8802,-3.8726,-3.966,-4.0116,-3.9424,-3.9959,-4.0113,-3.9243,-3.9804,-3.9978,-3.9224,-3.9835,-4.0285,-4.0303,-4.0186,-4.0198,-4.0383,-4.0383,-4.0072,-3.9373,-3.9353,-3.8984,-3.8227,-3.811,-3.8169,-3.8402,-3.8149,-3.7586,-3.6712,-3.5974,-3.5566,-3.5371,-3.3939,-3.3729,-3.4247,-3.1913,-3.2338,-3.4332,-3.3473,-3.3701,-3.4512,-3.4506,-3.4031,-3.3621,-3.7643,-3.7331,-3.7312,-3.8046,-3.7881,-3.7496,-3.7037,-3.6578,-3.5862,-3.4633,-3.4394,-3.4339,-3.4339,-3.4339,-3.4376,-3.4468,-3.4486,-3.4835,-3.5679,-3.5385,-3.5349,-3.5716,-3.5385,-3.5202,-3.5202,-3.5202,-3.5202,-3.5202,-3.4266,-3.3807,-3.3807,-3.3807,-3.4045,-3.4486,-3.4486,-3.5202,-3.6395,-3.6395,-3.6872,-3.7606,-3.7147,-3.6964,-3.6909,-3.6468,-3.6303,-3.6313,-3.6417,-3.5944,-3.5208,-3.4905,-3.5077,-3.5536,-3.61,-3.6491,-3.6817,-3.7232,-3.7745,-3.8234,-3.8474,-3.8803,-3.8983,-3.8507,-3.8705,-3.8807,-3.7962,-3.8713,-3.9333,-3.8488,-3.83,-3.8338,-3.845,-3.8943,-3.9388,-3.9585,-4.0123,-4.0434,-4.0256,-4.0558,-4.0481,-3.9603,-3.9855,-3.9913,-3.9538,-4.0293,-4.082,-4.0848,-4.0867,-4.0868,-4.0907,-4.0907,-4.0538,-3.9742,-3.9703,-3.9528,-3.912,-3.912,-3.9353,-3.98,-3.9832,-3.8626,-3.6362,-3.6001,-3.5321,-3.4354,-3.3613,-3.3516,-3.3754,-3.2178,-3.2477,-3.3846,-3.2969,-3.3475,-3.47,-3.4691,-3.4764,-3.5037]},{"header":{"parameterUnit":"m.s-1","parameterCategory":1,"la1":30.6,"la2":28.766,"lo1":-90.7593,"lo2":-88.6598,"dy":0.0162,"dx":0.0183,"nx":116,"ny":114,"refTime":"2024-03-15T06:00:00:Z","depth":0,"parameterNumber":3,"parameterNumberName":"V-component_of_WINDS"},"data":[0.0,0.0,0.0,0.0,0.0,0.0,0.0,0.0,0.0,0.0,0.0,0.0,0.0,0.0,0.0,0.0,0.0,0.0,0.0,0.0,0.0,0.0,0.0,0.0,0.0,0.0,0.0,0.0,0.0,0.0,0.0,0.0,0.0,0.0,0.0,0.0,0.0,0.0,0.0,0.0,0.0,0.0,0.0,0.0,0.0,0.0,0.0,0.0,0.0,0.0,0.0,0.0,0.0,0.0,0.0,0.0,0.0,0.0,0.0,0.0,0.0,0.0,0.0,0.0,0.0,0.0,0.0,0.0,0.0,0.0,0.0,0.0,0.0,0.0,0.0,0.0,0.0,0.0,0.0,0.0,0.0,0.0,0.0,0.0,0.0,0.0,0.0,0.0,0.0,0.0,0.0,0.0,0.0,0.0,0.0,0.0,0.0,0.0,0.0,0.0,0.0,0.0,0.0,0.0,0.0,0.0,0.0,0.0,0.0,0.0,0.0,0.0,0.0,0.0,0.0,0.0,0.0,0.0,0.0,0.0,0.0,0.0,0.0,0.0,0.0,0.0,0.0,0.0,0.0,0.0,0.0,0.0,0.0,0.0,0.0,0.0,0.0,0.0,0.0,0.0,0.0,0.0,0.0,0.0,0.0,0.0,0.0,0.0,0.0,0.0,0.0,0.0,0.0,0.0,0.0,0.0,0.0,0.0,0.0,0.0,0.0,0.0,0.0,0.0,0.0,0.0,0.0,0.0,0.0,0.0,0.0,0.0,0.0,0.0,0.0,0.0,0.0,0.0,0.0,0.0,0.0,0.0,0.0,0.0,0.0,0.0,0.0,0.0,0.0,0.0,0.0,0.0,0.0,0.0,0.0,0.0,0.0,0.0,0.0,0.0,0.0,0.0,0.0,0.0,0.0,0.0,0.0,0.0,0.0,0.0,0.0,0.0,0.0,0.0,0.0,0.0,0.0,0.0,0.0,0.0,0.0,0.0,0.0,0.0,0.0,0.0,0.0,0.0,0.0,0.0,0.0,0.0,0.0,0.0,0.0,0.0,0.0,0.0,0.0,0.0,0.0,0.0,0.0,0.0,0.0,0.0,0.0,0.0,0.0,0.0,0.0,0.0,0.0,0.0,0.0,0.0,0.0,0.0,0.0,0.0,0.0,0.0,0.0,0.0,0.0,0.0,0.0,0.0,0.0,0.0,0.0,0.0,0.0,0.0,0.0,0.0,0.0,0.0,0.0,0.0,0.0,0.0,0.0,0.0,0.0,0.0,0.0,0.0,0.0,0.0,0.0,0.0,0.0,0.0,0.0,0.0,0.0,0.0,0.0,0.0,0.0,0.0,0.0,0.0,0.0,0.0,0.0,0.0,0.0,0.0,0.0,0.0,0.0,0.0,0.0,0.0,0.0,0.0,0.0,0.0,0.0,0.0,0.0,0.0,0.0,0.0,0.0,0.0,0.0,0.0,0.0,0.0,0.0,0.0,0.0,0.0,0.0,0.0,0.0,0.0,0.0,0.0,0.0,0.0,0.0,0.0,0.0,0.0,0.0,0.0,0.0,0.0,0.0,0.0,0.0,0.0,0.0,0.0,0.0,0.0,0.0,0.0,0.0,0.0,0.0,0.0,0.0,0.0,0.0,0.0,0.0,0.0,0.0,0.0,0.0,0.0,0.0,0.0,0.0,0.0,0.0,0.0,0.0,0.0,0.0,0.0,0.0,0.0,0.0,0.0,0.0,0.0,0.0,0.0,0.0,0.0,0.0,0.0,0.0,0.0,0.0,0.0,0.0,0.0,0.0,0.0,0.0,0.0,0.0,0.0,0.0,0.0,0.0,0.0,0.0,0.0,0.0,0.0,0.0,0.0,0.0,0.0,0.0,0.0,0.0,0.0,0.0,0.0,0.0,0.0,0.0,0.0,0.0,0.0,0.0,0.0,0.0,0.0,0.0,0.0,0.0,0.0,0.0,0.0,0.0,0.0,0.0,0.0,0.0,0.0,0.0,0.0,0.0,0.0,0.0,0.0,0.0,0.0,0.0,0.0,0.0,0.0,0.0,0.0,0.0,0.0,0.0,0.0,0.0,0.0,0.0,0.0,0.0,0.0,0.0,0.0,0.0,0.0,0.0,0.0,0.0,0.0,0.0,0.0,0.0,0.0,0.0,0.0,0.0,0.0,0.0,0.0,0.0,0.0,0.0,0.0,0.0,0.0,0.0,0.0,0.0,0.0,0.0,0.0,0.0,0.0,0.0,0.0,0.0,0.0,0.0,0.0,0.0,0.0,0.0,0.0,0.0,0.0,0.0,0.0,0.0,0.0,0.0,0.0,0.0,0.0,0.0,0.0,0.0,0.0,0.0,0.0,0.0,0.0,0.0,0.0,0.0,0.0,0.0,0.0,0.0,0.0,0.0,0.0,0.0,0.0,0.0,0.0,0.0,0.0,0.0,0.0,0.0,0.0,0.0,0.0,0.0,0.0,0.0,0.0,0.0,0.0,0.0,0.0,0.0,0.0,0.0,0.0,0.0,0.0,0.0,0.0,0.0,0.0,0.0,0.0,0.0,0.0,0.0,0.0,0.0,0.0,0.0,0.0,0.0,0.0,0.0,0.0,0.0,0.0,0.0,0.0,0.0,0.0,0.0,0.0,0.0,0.0,0.0,0.0,0.0,0.0,0.0,0.0,0.0,0.0,0.0,0.0,0.0,0.0,0.0,0.0,0.0,0.0,0.0,0.0,0.0,0.0,0.0,0.0,0.0,0.0,0.0,0.0,0.0,0.0,0.0,0.0,0.0,0.0,0.0,0.0,0.0,0.0,0.0,0.0,0.0,0.0,0.0,0.0,0.0,0.0,0.0,0.0,0.0,0.0,0.0,0.0,0.0,0.0,0.0,0.0,0.0,0.0,0.0,0.0,0.0,0.0,0.0,0.0,0.0,0.0,0.0,0.0,0.0,0.0,0.0,0.0,0.0,0.0,0.0,0.0,0.0,0.0,0.0,0.0,0.0,0.0,0.0,0.0,0.0,0.0,0.0,0.0,0.0,0.0,0.0,0.0,0.0,0.0,0.0,0.0,0.0,0.0,0.0,0.0,0.0,0.0,0.0,0.0,0.0,0.0,0.0,0.0,0.0,0.0,0.0,0.0,0.0,0.0,0.0,0.0,0.0,0.0,0.0,0.0,0.0,0.0,0.0,0.0,0.0,0.0,0.0,0.0,0.0,0.0,0.0,0.0,0.0,0.0,0.0,0.0,0.0,0.0,0.0,0.0,0.0,0.0,0.0,0.0,0.0,0.0,0.0,0.0,0.0,0.0,0.0,0.0,0.0,0.0,0.0,0.0,0.0,0.0,0.0,0.0,0.0,0.0,0.0,0.0,0.0,0.0,0.0,0.0,0.0,0.0,0.0,0.0,0.0,0.0,0.0,0.0,0.0,0.0,0.0,0.0,0.0,0.0,0.0,0.0,0.0,0.0,0.0,0.0,0.0,0.0,0.0,0.0,0.0,0.0,0.0,0.0,0.0,0.0,0.0,0.0,0.0,0.0,0.0,0.0,0.0,0.0,0.0,0.0,0.0,0.0,0.0,0.0,0.0,0.0,0.0,0.0,0.0,0.0,0.0,0.0,0.0,0.0,0.0,0.0,0.0,0.0,0.0,0.0,0.0,0.0,0.0,0.0,0.0,0.0,0.0,0.0,0.0,0.0,0.0,0.0,0.0,0.0,0.0,0.0,0.0,0.0,0.0,0.0,0.0,0.0,0.0,0.0,0.0,0.0,0.0,0.0,0.0,0.0,0.0,0.0,0.0,0.0,0.0,0.0,0.0,0.0,0.0,0.0,0.0,0.0,0.0,0.0,0.0,0.0,0.0,0.0,0.0,0.0,0.0,0.0,0.0,0.0,0.0,0.0,0.0,0.0,0.0,0.0,0.0,0.0,0.0,0.0,0.0,0.0,0.0,0.0,0.0,0.0,0.0,0.0,0.0,0.0,0.0,0.0,0.0,0.0,0.0,0.0,0.0,0.0,0.0,0.0,0.0,0.0,0.0,0.0,0.0,0.0,0.0,0.0,0.0,0.0,0.0,0.0,0.0,0.0,0.0,0.0,0.0,0.0,0.0,0.0,0.0,0.0,0.0,0.0,0.0,0.0,0.0,0.0,0.0,0.0,0.0,0.0,0.0,0.0,0.0,0.0,0.0,0.0,0.0,0.0,0.0,0.0,0.0,0.0,0.0,0.0,0.0,0.0,0.0,0.0,0.0,0.0,0.0,0.0,0.0,0.0,0.0,0.0,0.0,0.0,0.0,0.0,0.0,0.0,0.0,0.0,0.0,0.0,0.0,0.0,0.0,0.0,0.0,0.0,0.0,0.0,0.0,0.0,0.0,0.0,0.0,0.0,0.0,0.0,0.0,0.0,0.0,0.0,0.0,0.0,0.0,0.0,0.0,0.0,0.0,0.0,0.0,0.0,0.0,0.0,0.0,0.0,0.0,0.0,0.0,0.0,0.0,0.0,0.0,0.0,0.0,0.0,0.0,0.0,0.0,0.0,0.0,0.0,0.0,0.0,0.0,0.0,0.0,0.0,0.0,0.0,0.0,0.0,0.0,0.0,0.0,0.0,0.0,0.0,0.0,0.0,0.0,0.0,0.0,0.0,0.0,0.0,0.0,0.0,0.0,0.0,0.0,0.0,0.0,0.0,0.0,0.0,0.0,0.0,0.0,0.0,0.0,0.0,0.0,0.0,0.0,0.0,0.0,0.0,0.0,0.0,0.0,0.0,0.0,0.0,0.0,0.0,0.0,0.0,0.0,0.0,0.0,0.0,0.0,0.0,0.0,0.0,0.0,0.0,0.0,0.0,0.0,0.0,0.0,0.0,0.0,0.0,0.0,0.0,0.0,0.0,0.0,0.0,0.0,0.0,0.0,0.0,0.0,0.0,0.0,0.0,0.0,0.0,0.0,0.0,0.0,0.0,0.0,0.0,0.0,0.0,0.0,0.0,0.0,0.0,0.0,0.0,0.0,0.0,0.0,0.0,0.0,0.0,0.0,0.0,0.0,0.0,0.0,0.0,0.0,0.0,0.0,0.0,0.0,0.0,0.0,0.0,0.0,0.0,0.0,0.0,0.0,0.0,0.0,0.0,0.0,0.0,0.0,0.0,0.0,0.0,0.0,0.0,0.0,0.0,0.0,0.0,0.0,0.0,0.0,0.0,0.0,0.0,0.0,0.0,0.0,0.0,0.0,0.0,0.0,0.0,0.0,0.0,0.0,0.0,0.0,0.0,0.0,0.0,0.0,0.0,0.0,0.0,0.0,0.0,0.0,0.0,0.0,0.0,0.0,0.0,0.0,0.0,0.0,0.0,0.0,0.0,0.0,0.0,0.0,0.0,0.0,0.0,0.0,0.0,0.0,0.0,0.0,0.0,0.0,0.0,0.0,0.0,0.0,0.0,0.0,0.0,0.0,0.0,0.0,0.0,0.0,0.0,0.0,0.0,0.0,0.0,0.0,0.0,0.0,0.0,0.0,0.0,0.0,0.0,0.0,0.0,0.0,0.0,0.0,0.0,0.0,0.0,0.0,0.0,0.0,0.0,0.0,0.0,0.0,0.0,0.0,0.0,0.0,0.0,0.0,0.0,0.0,0.0,0.0,0.0,0.0,0.0,0.0,0.0,0.0,0.0,0.0,0.0,0.0,0.0,0.0,0.0,0.0,0.0,0.0,0.0,0.0,0.0,0.0,0.0,0.0,0.0,0.0,0.0,0.0,0.0,0.0,0.0,0.0,0.0,0.0,0.0,0.0,0.0,0.0,0.0,0.0,0.0,0.0,0.0,0.0,0.0,0.0,0.0,0.0,0.0,0.0,0.0,0.0,0.0,0.0,0.0,0.0,0.0,0.0,0.0,0.0,0.0,0.0,0.0,0.0,0.0,0.0,0.0,0.0,0.0,0.0,0.0,0.0,0.0,0.0,0.0,0.0,0.0,0.0,0.0,0.0,0.0,0.0,0.0,0.0,0.0,0.0,0.0,0.0,0.0,0.0,0.0,0.0,0.0,0.0,0.0,0.0,0.0,0.0,0.0,0.0,0.0,0.0,0.0,0.0,0.0,0.0,0.0,0.0,0.0,0.2512,0.0,0.0,0.0,0.0,0.0,0.0,0.0,0.0,0.0,0.0,0.0,0.0,0.0,0.0,0.0,0.0,0.0,0.0,0.0,0.0,0.0,0.0,0.0,0.0,0.0,0.0,0.0,0.0,0.0,0.0,0.0,0.0,0.0,0.0,0.0,1.8449,1.8305,1.8175,1.7999,1.8773,2.0394,2.2805,2.2712,2.3085,2.3707,0.0,0.0,0.0,0.0,0.0,0.0,0.0,0.0,0.0,0.0,0.0,0.0,0.0,0.0,0.0,0.0,0.0,0.0,0.0,0.0,0.0,0.0,0.0,0.0,0.0,0.0,0.0,0.0,0.0,0.0,0.0,0.0,0.0,0.0,0.0,0.0,0.0,0.0,0.0,0.0,0.0,0.0,0.0,0.0,0.0,0.0,0.0,0.0,0.0,0.0,0.0,0.0,0.0,0.0,0.0,0.0,0.0,0.0,0.0,0.0,0.0,0.0,0.0,0.0,0.0,0.0,0.0,0.0,0.0,0.0,0.0,-0.2274,0.0,0.0,0.0,0.0,0.0,0.0,0.0,0.0,0.0,0.0,0.0,0.0,0.0,0.0,0.0,0.0,0.0,0.0,0.0,0.0,0.0,0.0,0.0,1.7194,1.6907,1.7424,1.7349,1.7691,1.8717,1.7947,1.7751,1.8367,1.8344,1.8305,1.8248,1.8014,1.7928,1.7952,1.9554,2.1372,2.3379,2.4056,2.432,2.4198,2.2998,0.0,0.0,0.0,0.0,0.0,0.0,0.0,0.0,0.0,0.0,0.0,0.0,0.0,0.0,0.0,0.0,0.0,0.0,0.0,0.0,0.0,0.0,0.0,0.0,0.0,0.0,0.0,0.0,0.0,0.0,0.0,0.0,0.0,0.0,0.0,0.0,0.0,0.0,0.0,0.0,0.0,0.0,0.0,0.0,0.0,0.0,0.0,0.0,0.0,0.0,0.0,0.0,0.0,0.0,0.0,0.0,0.0,0.0,0.0,0.0,0.0,0.0,0.0,-0.9663,-1.0547,-0.7635,-0.7855,-0.6853,-0.5297,-1.201,-0.8075,0.2996,0.0,0.0,0.0,0.0,0.0,0.0,0.0,0.0,0.0,0.0,0.0,0.0,0.0,0.0,0.0,0.0,0.0,0.0,0.0,0.0,0.0,0.0,1.8331,1.8203,1.8168,1.8717,1.8709,1.7912,1.7983,1.8075,1.8073,1.7777,1.7496,1.7191,1.7166,1.7328,1.7749,2.12,2.3577,2.4847,2.505,2.4891,2.4429,2.3489,2.2399,2.1166,0.0,0.0,0.0,0.0,0.0,0.0,0.0,0.0,0.0,0.0,0.0,0.0,0.0,0.0,0.0,0.0,0.0,0.0,0.0,0.0,0.0,0.0,0.0,0.0,0.0,0.0,0.0,0.0,0.0,0.0,0.0,0.0,0.0,0.0,0.0,0.0,0.0,0.0,0.0,0.0,0.0,0.7825,0.7648,0.0,0.0,0.0,0.0,0.0,0.0,0.0,0.0,0.0,0.0,0.0,0.0,0.0,-0.4716,-0.3795,-0.8981,-1.1419,-1.1129,-1.7245,-1.985,-1.9121,-1.4357,-1.0869,-0.8699,-1.0264,0.0,-0.1705,-0.5129,0.0,0.0,0.0,0.0,0.0,0.0,0.0,0.0,0.0,0.0,0.0,0.0,0.0,0.0,0.0,0.0,0.0,0.0,0.0,0.0,0.0,1.9041,1.9194,1.8979,2.0141,2.0311,1.9037,1.8887,1.8562,1.7866,1.7622,1.7427,1.7273,1.7499,1.8529,2.0392,2.2654,2.4506,2.6,2.6059,2.5689,2.4996,2.4611,2.3023,2.0589,2.028,0.0,0.0,0.0,0.0,0.0,0.0,0.0,0.0,0.0,0.0,0.0,0.0,0.0,0.0,0.0,0.0,0.0,0.0,0.0,0.0,0.0,0.0,0.0,0.0,0.0,0.0,0.0,0.0,0.0,0.0,0.0,0.0,0.0,0.0,0.0,0.0,0.0,0.0,0.0,1.1541,0.7804,1.3677,0.7867,0.47,0.0,0.0,0.0,0.0,0.0,0.0,0.0,0.0,0.0,-1.4278,-1.4694,-1.4656,-1.4191,-1.7038,-1.8189,-1.763,-2.0301,-2.1795,-2.2093,-1.9593,-1.6103,-1.2168,-1.4296,-1.1642,-0.5954,-0.7481,-0.5664,-0.1806,0.0,0.0,0.0,0.0,-0.6566,-0.7901,0.0,0.0,0.0,0.0,0.0,0.0,0.0,0.0,0.0,0.0,0.0,0.0,1.9247,2.0264,2.08,2.0522,2.1639,2.1715,2.0243,1.9686,1.8853,1.7589,1.7417,1.7338,1.7265,1.8182,1.9897,2.2361,2.3538,2.4933,2.6444,2.6212,2.5798,2.5264,2.4734,2.3024,2.0527,2.0194,1.8604,1.6338,0.0,0.0,0.0,0.0,0.0,0.0,0.0,0.0,0.0,0.0,0.0,0.0,0.0,0.0,0.0,0.0,0.0,0.0,0.0,0.0,0.0,0.0,0.0,0.0,0.0,0.0,0.0,0.0,0.0,0.0,0.0,0.0,0.0,0.0,0.0,0.0,0.0,0.6104,0.3188,1.2794,0.2699,-0.2405,0.0,0.0,0.0,0.0,0.0,0.0,-1.5215,-1.5625,-1.7844,-2.2555,-2.2809,-2.2823,-2.2765,-2.2689,-2.2546,-2.2373,-2.2018,-2.2246,-2.298,-2.2799,-1.9381,-1.3893,-1.7941,-1.5269,-0.8138,-0.9086,-0.8236,-0.6188,-0.4333,-0.4966,-0.6961,-0.7408,-0.8436,-0.9651,0.0,0.0,0.0,0.0,0.0,0.0,0.0,0.0,0.0,0.0,0.0,2.086,2.0809,2.2521,2.3576,2.323,2.3286,2.2609,2.088,1.997,1.8753,1.7109,1.7018,1.6892,1.6649,1.8957,2.0778,2.2027,2.3684,2.4912,2.5749,2.4822,2.4661,2.4918,2.2878,2.1815,2.1483,2.0716,1.9024,1.6701,1.5088,0.0,0.0,0.0,0.0,0.0,0.0,0.0,0.0,0.0,0.0,0.0,0.0,0.0,0.0,0.0,0.0,0.0,0.0,0.0,0.0,0.0,0.0,0.0,0.0,0.0,0.0,0.0,0.0,0.0,0.0,0.0,0.0,0.0,0.0,0.0,0.0,0.0,0.0,-0.7734,-0.8585,0.0,0.0,0.0,0.0,-1.3129,-1.3785,-1.6776,-2.3442,-2.4098,-2.4298,-2.4376,-2.4754,-2.4827,-2.4584,-2.4631,-2.4488,-2.4154,-2.3253,-2.3139,-2.3723,-2.3017,-1.8857,-1.2544,-1.8718,-1.5747,-0.6952,-1.1412,-1.1333,-0.8555,-0.976,-0.8758,-0.6754,-0.7766,-0.8691,-0.9266,0.0,0.0,0.0,0.0,0.0,0.0,0.0,0.0,1.9476,1.9448,2.0279,2.0824,2.0718,2.3051,2.4314,2.3601,2.459,2.4377,2.2282,2.1017,1.9668,1.8161,1.7395,1.7455,1.8378,2.0681,2.2118,2.2716,2.4325,2.5253,2.5434,2.5118,2.4846,2.464,2.3894,2.2719,2.125,1.9915,1.8127,1.607,1.5226,1.3609,0.0,0.0,0.0,0.0,0.0,0.0,0.0,0.0,0.0,0.0,0.0,0.0,0.0,0.0,0.0,0.0,0.0,0.0,0.0,0.0,0.0,0.0,0.0,0.0,0.0,0.0,0.0,0.0,0.0,0.0,0.0,0.0,0.0,0.0,0.0,0.0,0.0,-0.6614,-1.3905,0.0,-1.0664,-1.5023,-1.8829,-2.0194,-2.0802,-2.1986,-2.4026,-2.4339,-2.4569,-2.4806,-2.5047,-2.5019,-2.4701,-2.4642,-2.4492,-2.4304,-2.3916,-2.3917,-2.4247,-2.3842,-2.1996,-1.9146,-2.0026,-1.7912,-1.384,-1.3968,-1.2936,-1.1169,-1.0583,-0.9791,-0.8928,-0.8956,-0.924,-0.9514,0.0,0.0,0.0,0.0,0.0,0.0,0.0,0.0,1.9399,1.9632,2.0592,2.1447,2.1965,2.4087,2.5292,2.4832,2.5665,2.5163,2.2757,2.1375,1.9891,1.8145,1.742,1.7823,1.9495,2.1374,2.2465,2.2796,2.4284,2.5145,2.5275,2.485,2.4667,2.4684,2.3631,2.2352,2.0846,1.8871,1.7277,1.5884,1.5087,1.3765,1.1343,0.0,0.0,0.0,0.0,0.0,0.0,0.0,0.0,0.0,0.0,0.0,0.0,0.0,0.0,0.0,0.0,0.0,0.0,0.0,0.0,0.0,0.0,0.0,0.0,0.0,0.0,0.0,0.0,0.0,0.0,0.0,0.0,0.0,0.0,0.0,-1.4499,-0.9196,-1.8434,-2.2666,-1.6203,-2.2059,-2.5881,-2.4951,-2.4819,-2.4819,-2.4858,-2.4714,-2.4764,-2.5088,-2.5184,-2.509,-2.4793,-2.4687,-2.4569,-2.4409,-2.4028,-2.4092,-2.4487,-2.4072,-2.3326,-2.2257,-2.0829,-1.9086,-1.7035,-1.4511,-1.3385,-1.3044,-1.0985,-1.0214,-1.0089,-0.9156,-0.8845,-0.8845,0.0,0.0,0.0,0.0,0.0,0.0,0.0,1.9196,1.9552,2.0286,2.1369,2.275,2.4539,2.5742,2.6572,2.6977,2.639,2.487,2.2184,2.0978,1.932,1.6921,1.7139,1.8111,1.9798,2.1041,2.1859,2.2271,2.3509,2.4529,2.5262,2.3955,2.3976,2.4945,2.1975,2.0673,2.0457,1.7791,1.6589,1.6357,1.4802,1.3471,1.2104,0.0,0.0,0.0,0.0,0.0,0.0,0.0,0.0,0.0,0.0,0.0,0.0,0.0,0.0,0.0,0.0,0.0,0.0,0.0,0.0,0.0,0.0,0.0,0.0,0.0,0.0,0.0,0.0,0.0,0.0,0.0,0.0,0.0,-2.5466,-2.5635,-2.3439,-1.747,-2.2637,-2.4041,-1.7337,-2.2071,-2.6006,-2.714,-2.5806,-2.5414,-2.6533,-2.5869,-2.5405,-2.5302,-2.5303,-2.5194,-2.4993,-2.4934,-2.4807,-2.4585,-2.3685,-2.3691,-2.4484,-2.3696,-2.252,-2.1096,-2.1004,-1.9061,-1.5798,-1.3089,-1.2849,-1.3931,-1.1207,-1.0166,-1.006,-0.8365,-0.7539,-0.7278,0.0,0.0,0.0,0.0,0.0,0.0,0.0,1.8998,1.927,2.001,2.1103,2.2221,2.3295,2.5415,2.631,2.517,2.5762,2.5004,2.2136,2.0604,1.9051,1.731,1.8886,2.0083,2.0655,2.2359,2.3366,2.3529,2.4383,2.4762,2.4563,2.4569,2.4529,2.4339,2.3234,2.2005,2.0776,1.9008,1.7345,1.5696,1.4111,1.2755,1.1164,0.0,0.0,0.0,0.0,0.0,0.0,0.0,0.0,0.0,0.0,0.0,0.0,0.0,0.0,0.0,0.0,0.0,0.0,0.0,0.0,0.0,0.0,0.0,0.0,0.0,0.0,0.0,0.0,0.0,0.0,0.0,0.0,-2.3955,-2.5968,-2.6432,-2.6148,-2.5089,-2.7175,-2.7784,-2.5444,-2.7311,-2.8379,-2.7693,-2.7811,-2.7519,-2.6578,-2.6403,-2.6028,-2.5327,-2.5351,-2.5225,-2.4939,-2.4905,-2.4813,-2.4674,-2.4454,-2.4549,-2.4926,-2.462,-2.3921,-2.2858,-2.1157,-1.9564,-1.793,-1.5261,-1.3295,-1.1747,-0.9229,-0.9451,-1.0922,-0.9104,-0.8141,-0.7905,0.0,0.0,0.0,0.0,0.0,0.0,0.0,1.8662,1.9164,2.0354,2.108,2.2135,2.3804,2.4893,2.5221,2.4488,2.4328,2.3346,2.1131,1.9673,1.8838,1.8747,2.0019,2.0946,2.1443,2.2723,2.3392,2.342,2.4015,2.433,2.4362,2.4434,2.4243,2.3872,2.315,2.1958,2.0286,1.8906,1.7078,1.5012,1.3346,1.2398,1.158,0.6849,0.4778,0.356,-0.2891,-0.4707,-0.4931,-1.0633,0.0,0.0,0.0,0.0,0.0,0.0,0.0,0.0,0.0,0.0,0.0,0.0,0.0,0.0,0.0,0.0,0.0,0.0,0.0,0.0,0.0,0.0,0.0,0.0,-2.3567,-2.4769,-2.6827,-2.7015,-2.7255,-2.809,-2.8969,-2.9347,-2.9012,-2.9311,-2.9312,-2.8842,-2.86,-2.8135,-2.7375,-2.7087,-2.6654,-2.6032,-2.5997,-2.5888,-2.5704,-2.564,-2.5595,-2.5536,-2.5409,-2.5442,-2.5595,-2.5151,-2.4335,-2.3192,-2.1344,-1.9937,-1.8589,-1.4239,-1.2213,0.0,0.0,0.0,0.0,0.0,-0.8378,-0.8283,0.0,0.0,0.0,0.0,0.0,0.0,0.0,1.831,1.9135,2.0914,2.1162,2.222,2.4986,2.4363,2.3929,2.4397,2.2711,2.1042,1.9686,1.8724,1.8924,2.0485,2.0814,2.1357,2.2271,2.26,2.2775,2.2876,2.3215,2.3622,2.4164,2.391,2.3613,2.334,2.232,2.1013,1.9468,1.7854,1.6118,1.4324,1.2497,1.2085,1.2348,1.0154,0.8817,0.7368,0.1674,-0.0836,-0.2107,-0.639,0.0,0.0,0.0,0.0,0.0,0.0,0.0,0.0,0.0,0.0,0.0,0.0,0.0,0.0,0.0,0.0,0.0,0.0,0.0,0.0,0.0,0.0,0.0,0.0,-2.4778,-2.6084,-2.7724,-2.742,-2.7358,-2.8198,-2.8926,-2.94,-2.9471,-2.9206,-2.9323,-3.0023,-2.8638,-2.7935,-2.8345,0.0,0.0,0.0,0.0,-2.6711,-2.6711,-2.6562,-2.6546,-2.6589,-2.6242,-2.6099,-2.6151,-2.5368,-2.4251,-2.2784,-2.1615,-2.0282,-1.8385,-1.2184,-1.0681,-1.2286,-1.1525,-0.9773,-0.7736,-0.8092,-0.8317,-0.8407,0.0,0.0,0.0,0.0,0.0,0.0,0.0,1.8266,1.9012,2.0661,2.0909,2.175,2.3819,2.4316,2.4195,2.3525,2.271,2.1269,1.9033,1.9733,2.0239,2.0189,2.2066,2.3251,2.3557,2.3511,2.3879,2.4704,2.4488,2.3861,2.2921,2.4,2.3773,2.2241,2.1397,2.0515,1.9402,1.6818,1.5092,1.395,1.1854,1.0927,1.0534,0.8713,0.8241,0.8205,0.547,0.5231,0.5265,-0.1357,-0.6225,-1.0382,-1.5371,0.0,0.0,0.0,0.0,0.0,0.0,0.0,0.0,0.0,0.0,0.0,0.0,0.0,0.0,0.0,0.0,0.0,0.0,0.0,0.0,-2.4241,-2.5132,-2.6158,-2.7436,-2.7374,-2.767,-2.8863,-2.8763,-2.8787,-2.9285,-2.9232,-2.9214,-2.9374,-2.898,-2.8386,-2.7569,-2.7382,-2.6953,-2.6209,-2.6123,-2.6072,-2.6072,-2.5986,-2.5968,-2.5968,0.0,0.0,-2.5408,-2.5219,-2.4668,-2.3745,-2.19,-2.0449,-1.9101,-1.5549,-1.2279,-0.9535,-0.9375,-0.9131,-0.8833,-0.8595,-0.829,-0.7999,0.0,0.0,0.0,0.0,0.0,0.0,0.0,1.8014,1.856,1.9843,1.9991,2.0533,2.195,2.2259,2.2129,2.1531,2.0952,2.0172,1.9154,2.0017,2.0879,2.1605,2.2802,2.3413,2.3325,2.3453,2.3751,2.4296,2.3709,2.3167,2.2603,2.3164,2.2444,2.0617,2.0611,1.9317,1.7179,1.5857,1.4008,1.1715,1.0518,0.9311,0.8111,0.7695,0.7731,0.7741,0.6191,0.6105,0.6142,0.2454,-0.2109,-0.686,-1.038,-1.5986,-2.0992,0.0,0.0,0.0,0.0,0.0,0.0,0.0,0.0,0.0,0.0,0.0,0.0,0.0,0.0,-2.2514,-2.3433,0.0,-2.4516,-2.5825,-2.6534,-2.734,-2.8493,-2.8115,-2.793,-2.8543,-2.8282,-2.8228,-2.8537,-2.8764,-2.8901,-2.8901,-2.8835,-2.8517,-2.7852,-2.7749,-2.7452,-2.6936,-2.6808,-2.6747,-2.6747,-2.6677,-2.6667,-2.6703,-2.6513,-2.6311,-2.6115,-2.5314,-2.4743,-2.4293,-2.2332,-2.1234,-2.0492,-1.7227,-1.4198,-1.1547,-1.1547,-1.0189,-0.8261,-0.8901,-0.8718,-0.8158,0.0,0.0,0.0,0.0,0.0,0.0,0.0,1.7766,1.8065,1.9007,1.9028,1.9335,2.0285,2.0127,1.984,1.9491,1.9119,1.909,1.9467,2.0203,2.1397,2.3153,2.3083,2.2998,2.2931,2.3029,2.3145,2.3178,2.2551,2.225,2.2115,2.2001,2.0923,1.9144,1.9645,1.8037,1.5039,1.4925,1.2786,0.952,0.9043,0.7806,0.6097,0.6472,0.6691,0.6529,0.5211,0.4712,0.4525,0.4239,0.0137,-0.5057,-0.5707,-1.1663,-1.8126,-1.7183,-1.8097,0.0,0.0,0.0,0.0,0.0,0.0,0.0,0.0,0.0,-2.23,-2.2461,-2.2452,-2.2886,-2.4306,-2.4816,-2.5575,-2.7262,-2.7984,-2.8567,-2.9383,-2.8669,-2.8047,-2.7929,-2.7861,-2.7816,-2.7929,-2.8296,-2.8506,-2.8456,-2.8431,-2.8322,-2.8057,-2.7921,-2.777,-2.7595,-2.7474,-2.7413,-2.7413,-2.7369,-2.7369,-2.7413,-2.7085,-2.6891,-2.6774,-2.5508,-2.4831,-2.4516,-2.2637,-2.163,-2.102,-1.746,-1.5286,-1.4135,-1.4038,-1.1713,-0.8572,-0.9721,-0.9819,-0.9214,0.0,0.0,0.0,0.0,0.0,0.0,0.0,0.0,1.7769,1.8721,1.8692,1.891,1.9858,1.9917,1.9469,1.8296,1.8881,1.9357,1.9432,2.0942,2.2249,2.3229,2.28,2.2844,2.3541,2.2794,2.2347,2.2268,2.2491,2.1729,2.0063,2.0822,2.0275,1.8506,1.8192,1.7086,1.5302,1.3606,1.1677,0.9527,0.8262,0.6914,0.5555,0.4485,0.4375,0.4732,0.3088,0.2772,0.3108,0.2073,-0.14,-0.5424,-0.5895,-0.9465,-1.3657,-1.5121,0.0,-1.5241,-1.7091,-1.915,-2.0803,-2.0872,-2.1796,-2.2729,0.0,0.0,-2.3348,-2.4151,-2.4168,-2.4343,-2.5347,-2.6061,-2.6689,-2.73,-2.8306,-2.8815,-2.8347,-2.8086,-2.7871,-2.7772,-2.7705,-2.7869,-2.8273,-2.8317,-2.821,-2.7897,-2.784,-2.7577,-2.7087,-2.7055,-2.6973,-2.6825,-2.6825,-2.6791,-2.6791,-2.6791,-2.6791,-2.6791,-2.6758,-2.635,-2.5689,-2.5799,-2.5289,-2.4255,-2.237,-2.0495,-1.8582,-1.5519,-1.4013,-1.3527,-1.2978,-1.2808,-1.2744,-1.2388,-1.2381,-1.2011,0.0,0.0,0.0,0.0,0.0,0.0,0.0,0.0,0.0,1.8,1.7896,1.7922,1.8244,1.7955,1.7465,1.6784,1.7868,1.8929,1.9826,2.1179,2.2505,2.3717,2.3098,2.2844,2.3187,2.2579,2.2101,2.1757,2.1474,2.0525,1.9021,1.8653,1.7518,1.5846,1.5128,1.3926,1.2227,1.1159,0.9216,0.6705,0.6046,0.4724,0.3217,0.2424,0.2336,0.2527,0.1862,0.1837,0.0,0.1793,-0.0472,-0.2973,-0.259,-0.697,-1.226,-1.2203,-1.4607,0.0,-1.8793,-2.0013,0.0,0.0,-2.2694,-2.3079,-2.3514,-2.3738,-2.4045,-2.4833,-2.4929,-2.5354,-2.6832,-2.705,-2.7425,0.0,-2.8793,-2.869,-2.8942,-2.825,-2.7711,-2.7719,-2.7367,-2.7352,-2.7961,-2.7961,-2.8099,-2.8411,-2.8024,-2.7774,-2.7853,-2.7407,-2.7038,-2.6825,-2.6742,-2.6742,-2.6825,-2.6825,-2.6892,-2.6989,-2.6791,-2.6674,-2.664,-2.6162,-2.5484,-2.4628,-2.3802,-2.2917,-2.1963,-2.0907,-2.0227,-1.9814,-1.9568,-1.9484,-1.9089,-1.5789,-1.4464,-1.4136,0.0,0.0,0.0,0.0,0.0,0.0,0.0,0.0,0.0,0.0,1.6994,1.6751,1.6596,1.6059,1.5636,1.5564,1.662,1.8002,1.9615,2.0708,2.1963,2.3472,2.279,2.2398,2.2456,2.1781,2.1246,2.0751,1.9999,1.8982,1.759,1.675,1.5274,1.3338,1.2644,1.1184,0.9237,0.8895,0.6997,0.4148,0.4166,0.2966,0.1132,0.0967,0.075,0.0561,0.048,0.0605,0.0767,0.0203,-0.0789,-0.1732,-0.1452,-0.5285,-0.9986,-1.0038,-1.3989,-1.8587,-1.9682,0.0,0.0,-2.3273,-2.3787,-2.4004,-2.4346,-2.4441,-2.4579,-2.5124,-2.5121,-2.5481,-2.7039,-2.7096,0.0,-2.9215,-2.8865,-2.849,-2.8894,-2.8207,-2.7581,-2.7308,-2.6944,-2.6923,-2.7522,-2.7552,-2.7779,-2.8369,-2.7927,-2.7766,-2.8056,-2.7506,-2.7117,-2.6926,-2.6825,-2.6825,-2.6926,-2.6926,-2.6975,-2.7038,-2.6808,-2.6791,-2.6971,-2.6266,-2.5615,-2.5051,-2.5163,-2.5022,-2.4732,-2.4835,-2.4603,-2.4172,-2.4112,-2.3813,-2.3024,-1.9336,-1.7381,-1.6258,0.0,0.0,0.0,0.0,0.0,0.0,0.0,0.0,0.0,0.0,0.0,0.0,0.0,1.4727,1.4495,1.4898,1.5322,1.6408,1.8411,1.929,2.0457,2.202,2.1329,2.1128,2.1515,2.0039,1.9102,1.88,1.8391,1.7164,1.5348,1.5591,1.4271,1.1641,1.1454,0.9889,0.7433,0.7256,0.5385,0.2655,0.3353,0.2257,0.0174,0.0414,0.0,-0.0773,-0.1472,-0.1353,-0.128,-0.3766,-0.3719,-0.2943,-0.4716,-0.5036,0.0,-0.9084,-1.262,-1.5916,0.0,0.0,-2.198,-2.3756,-2.5205,-2.6086,-2.5639,-2.5244,-2.4998,-2.507,-2.4625,-2.4453,-2.5256,-2.5722,-2.643,-2.7576,-2.8343,-2.842,-2.7418,-2.7688,-2.7553,-2.6393,-2.6505,-2.6825,0.0,-2.7166,-2.7135,-2.7152,-2.7198,-2.7152,-2.696,-2.6992,-2.6992,-2.6893,-2.6959,-2.6975,-2.6992,-2.6992,-2.6876,-2.6606,-2.6606,-2.6312,-2.5758,-2.5921,-2.5795,-2.5486,-2.5845,-2.553,-2.4748,-2.4434,-2.4046,-2.3588,-2.3351,-2.2976,-2.266,-2.2822,-2.1558,-1.8672,0.0,0.0,0.0,0.0,0.0,0.0,0.0,0.0,0.0,0.0,0.0,0.0,0.0,0.0,0.0,0.0,1.4507,1.5464,1.6936,1.8247,1.9308,2.0025,1.9795,1.942,1.8994,1.8021,1.6886,1.5541,1.5373,1.4164,1.191,1.1272,1.0179,0.8708,0.7375,0.6345,0.5604,0.5078,0.3568,0.1604,0.1806,0.075,-0.0884,-0.1163,-0.1566,-0.2025,0.0,-0.3318,-0.3071,-0.4304,-0.5193,-0.5752,-0.5563,-0.7084,-0.9443,-1.2591,-1.6011,-1.9155,-2.0754,0.0,-2.4503,-2.5517,-2.6022,-2.6053,-2.544,-2.4896,-2.4626,-2.5029,-2.3955,-2.3288,-2.438,-2.4369,-2.4558,-2.5743,-2.6116,-2.6463,-2.6927,-2.6765,-2.6496,-2.622,-2.633,0.0,0.0,0.0,0.0,-2.7999,-2.7678,-2.7594,-2.7873,-2.7457,-2.7135,-2.6975,-2.7087,-2.7184,-2.7247,-2.7152,-2.7135,-2.7261,-2.7215,-2.7006,-2.6657,-2.7401,-2.7555,-2.7332,-2.7836,-2.762,-2.6885,-2.6504,-2.5675,-2.4577,-2.4528,-2.3821,-2.2857,-2.3236,-2.0411,-1.6173,0.0,0.0,0.0,0.0,0.0,0.0,0.0,0.0,0.0,0.0,0.0,0.0,0.0,0.0,0.0,0.0,0.0,1.3939,1.4858,1.602,1.6764,1.6846,1.6886,1.6584,1.5914,1.4738,1.3575,1.2482,1.219,1.1007,0.9005,0.8349,0.7409,0.6136,0.4651,0.379,0.3423,0.2734,0.1396,-0.0162,-0.0155,-0.1194,-0.2668,-0.2972,-0.3392,0.0,-0.5026,-0.5304,-0.5247,-0.5768,-0.654,-0.7396,-0.7529,-0.9409,-1.2017,-1.4213,-1.7111,-2.001,-2.1789,-2.3808,-2.5681,-2.6512,-2.6544,-2.6121,-2.5224,-2.4601,-2.4229,-2.4344,-2.3025,-2.2117,-2.2915,-2.2925,-2.3079,-2.4013,-2.4528,-2.5179,-2.6287,-2.6122,-2.6069,-2.6531,-2.664,0.0,0.0,0.0,0.0,-2.7839,-2.773,-2.7713,-2.7806,-2.731,-2.6989,-2.6842,-2.694,-2.7038,-2.712,-2.7006,-2.7158,-2.7612,-2.7465,-2.7333,-2.7199,-2.767,-2.7839,-2.7823,-2.8316,-2.8268,-2.7836,-2.7635,-2.6521,-2.5034,-2.5275,-2.4366,-2.2947,-2.3427,-1.997,-1.4985,0.0,0.0,0.0,0.0,0.0,0.0,0.0,0.0,0.0,0.0,0.0,0.0,0.0,0.0,0.0,0.0,0.0,0.0,1.2171,1.2786,1.2955,1.2579,1.2878,1.2819,1.241,1.0359,0.9439,0.9577,0.8703,0.7703,0.6513,0.6792,0.5847,0.395,0.3135,0.2124,0.1087,0.0303,-0.1032,-0.2647,-0.251,-0.351,-0.5082,-0.4951,-0.5349,-0.6108,-0.6744,-0.7279,-0.7752,-0.8032,-0.7913,-0.809,-1.0462,-1.1872,-1.2919,-1.3922,-1.6001,-1.85,-2.1177,-2.3421,-2.5337,-2.6468,-2.6651,-2.6228,-2.5014,-2.4297,-2.3724,-2.3151,-2.1915,-2.0995,0.0,0.0,-2.1835,-2.2425,-2.3617,-2.4742,-2.5556,-2.5852,-2.6332,0.0,0.0,0.0,0.0,0.0,0.0,-2.6756,0.0,-2.7536,-2.6843,-2.6741,-2.6689,-2.6689,-2.6741,-2.6724,-2.6724,-2.6793,-2.7113,-2.766,-2.7478,-2.7408,-2.7414,-2.6975,-2.6927,-2.7186,-2.7487,-2.7622,-2.7694,-2.776,-2.6632,-2.4935,-2.5473,-2.4557,-2.3,-2.3584,-2.0428,-1.5224,0.0,0.0,0.0,0.0,0.0,0.0,0.0,0.0,0.0,0.0,0.0,0.0,0.0,0.0,0.0,0.0,0.0,0.0,0.9347,1.0083,1.0291,0.9703,1.0198,0.9758,0.8119,0.7518,0.6411,0.4861,0.4617,0.3829,0.2485,0.2002,0.1392,0.0688,-0.0192,-0.0985,-0.1618,-0.198,-0.2967,-0.4322,-0.4409,-0.5054,-0.6,-0.6494,-0.6913,-0.73,-0.784,-0.8324,0.0,0.0,0.0,0.0,0.0,-1.2666,-1.3262,-1.4326,-1.6367,-1.8561,-1.99,-2.1645,-2.3327,-2.4569,-2.4511,-2.4047,-2.3789,-2.3287,-2.2677,-2.1991,-2.0642,-1.9607,0.0,0.0,0.0,-2.1295,-2.3012,0.0,-2.6089,-2.6814,0.0,0.0,0.0,-2.8029,-2.7729,-2.8795,0.0,0.0,-2.798,-2.8367,-2.8292,-2.8076,-2.8002,-2.8092,-2.8258,-2.8366,-2.8383,-2.842,-2.8414,-2.8431,-2.8471,-2.8313,-2.7998,-2.8747,-2.8724,-2.8201,-2.8818,-2.8916,-2.8682,-2.8018,-2.7046,-2.5952,-2.5567,-2.4609,-2.3517,-2.3543,-2.0195,-1.4941,0.0,0.0,0.0,0.0,0.0,0.0,0.0,0.0,0.0,0.0,0.0,0.0,0.0,0.0,0.0,0.0,0.0,0.0,0.0,0.7247,0.7005,0.6039,0.623,0.5655,0.4155,0.373,0.2821,0.1429,0.1452,0.1065,0.0206,-0.021,-0.0485,-0.067,-0.1368,-0.2119,-0.2873,-0.3252,-0.4309,0.0,0.0,-0.6678,-0.7427,-0.7884,-0.8204,-0.8475,-0.8789,0.0,0.0,0.0,0.0,-1.1024,-1.1888,-1.2969,-1.4143,-1.5061,0.0,-2.0286,-2.1108,-2.2536,-2.3941,-2.4311,-2.3869,-2.3053,-2.2055,-2.1779,-2.1299,-1.9772,-1.8948,0.0,0.0,0.0,0.0,0.0,0.0,0.0,-2.533,-2.6134,-2.6945,0.0,-2.8313,0.0,-2.8383,-2.9178,-2.947,0.0,-2.877,-2.8655,-2.8417,-2.8307,-2.8268,-2.8323,-2.8455,-2.8569,-2.8645,-2.9022,-2.9038,-2.8716,-2.887,-2.8676,-2.8219,-2.8664,-2.8655,-2.8315,0.0,-2.8798,-2.8671,-2.8103,-2.725,-2.6295,-2.6143,-2.5208,-2.3954,-2.41,-1.923,-1.2482,0.0,0.0,0.0,0.0,0.0,0.0,0.0,0.0,0.0,0.0,0.0,0.0,0.0,0.0,0.0,0.0,0.0,0.0,0.0,0.0,0.3603,0.2434,0.2101,0.1526,0.0743,-0.0053,-0.0667,-0.1101,-0.104,-0.1134,-0.1326,-0.1371,-0.1366,-0.1409,-0.1997,-0.2826,-0.3818,-0.4398,-0.555,-0.6988,-0.7532,-0.8182,-0.8919,0.0,0.0,0.0,0.0,0.0,0.0,0.0,-1.122,-1.1192,-1.1551,-1.3159,-1.5074,-1.5877,-1.8797,-2.1862,-2.255,-2.365,-2.4535,-2.4112,-2.3272,-2.2105,-2.0223,-2.0158,-1.992,-1.7652,0.0,-1.7738,-1.7221,0.0,-1.8758,-1.9546,0.0,-2.2419,-2.442,-2.512,-2.6163,-2.8231,-2.8578,-2.8834,-2.9406,-2.9669,-2.9879,-2.9973,-2.944,-2.8829,-2.8241,-2.8249,-2.8249,-2.8305,-2.8217,-2.8225,-2.827,-2.8982,-2.9052,-2.8548,-2.8777,-2.8583,-2.8134,-2.7722,-2.767,-2.7897,-2.7869,0.0,-2.8129,-2.802,-2.7331,-2.6375,-2.6721,-2.5914,-2.4515,-2.4774,-1.8483,-1.0448,0.0,0.0,0.0,0.0,0.0,0.0,0.0,0.0,0.0,0.0,0.2214,0.2755,0.0,0.0,0.0,0.0,0.0,0.0,0.0,0.0,0.0,0.0666,0.0542,-0.0108,-0.1268,-0.1502,-0.2156,0.0,0.0,-0.3499,-0.3965,-0.4239,-0.4359,-0.4485,-0.534,-0.6123,-0.6821,-0.7412,-0.8072,-0.8764,-0.8978,-0.9172,-0.9334,-0.9703,0.0,0.0,0.0,0.0,0.0,0.0,-1.1866,-1.234,-1.3086,-1.4064,-1.5149,-1.6524,-1.7702,-1.8696,-1.9171,-1.8969,-1.8872,-1.9963,-1.9384,-1.8729,-1.9597,-1.9746,0.0,0.0,0.0,-1.8797,-1.8295,-1.8593,0.0,-2.0828,0.0,0.0,0.0,0.0,-2.7769,0.0,0.0,0.0,0.0,0.0,0.0,0.0,0.0,-2.9539,-2.977,-2.9658,-2.9658,-2.9812,-2.9828,-2.945,-2.8705,-2.8844,-2.8576,-2.7882,-2.8012,-2.7932,-2.7703,-2.7792,-2.7689,-2.7409,-2.747,0.0,-2.7829,-2.7504,-2.7265,-2.7005,-2.5995,-2.5805,-2.592,-2.4518,-2.0344,-1.5491,0.0,0.0,0.0,0.0,0.0,0.0,0.0,-0.2164,-0.233,-0.2548,-0.185,-0.0691,0.1033,0.1222,0.1284,0.0,0.0,0.0,0.0,0.0,0.0,0.0,0.0,0.0,0.0,0.0,0.0,0.0,0.0,0.0,0.0,0.0,0.0,0.0,0.0,0.0,-0.7942,-0.8235,-0.8851,-0.9629,-0.9681,-0.9836,0.0,0.0,0.0,0.0,0.0,0.0,0.0,0.0,-1.2182,-1.3063,-1.3275,-1.4312,-1.5571,-1.6457,-1.7754,-1.8953,-1.9338,-1.9279,-1.9252,-1.9981,-1.932,-1.8474,-1.8455,0.0,0.0,0.0,0.0,-1.8232,-1.803,0.0,0.0,0.0,0.0,0.0,0.0,0.0,0.0,0.0,0.0,0.0,0.0,0.0,0.0,0.0,0.0,-3.0023,-2.9858,-2.9886,-2.9989,-3.0103,-2.9957,-2.9648,-2.9205,-2.8705,-2.8057,-2.7377,-2.7435,-2.7254,-2.6887,-2.7289,-2.7437,-2.7348,-2.7396,0.0,-2.7829,-2.7624,-2.7457,-2.7309,-2.6784,-2.6542,-2.6016,-2.2157,-1.7468,-1.3374,0.0,0.0,0.0,0.0,0.0,0.0,0.0,-0.445,-0.4787,-0.516,-0.4827,-0.3515,-0.0855,-0.0601,-0.0495,0.0,0.0,0.0,0.0,0.0,0.0,0.0,0.0,0.0,0.0,0.0,0.0,0.0,0.0,0.0,0.0,0.0,0.0,0.0,0.0,0.0,0.0,-0.8524,-0.9133,0.0,0.0,0.0,0.0,0.0,0.0,0.0,0.0,0.0,0.0,0.0,-1.2264,-1.3149,-1.2986,-1.42,-1.5713,-1.6145,-1.7705,-1.9398,-1.9878,-2.0016,-2.0136,-2.0348,-1.9595,-1.8465,-1.7536,-1.7501,0.0,0.0,-1.6707,-1.7746,-1.7772,0.0,0.0,0.0,0.0,0.0,0.0,0.0,0.0,0.0,0.0,0.0,0.0,0.0,0.0,0.0,0.0,0.0,-2.9518,-2.971,-2.9842,-2.9798,-2.9633,-2.9492,-2.9287,-2.8389,-2.7683,-2.7142,-2.6988,-2.6679,-2.6267,-2.6805,-2.709,-2.7178,-2.7178,0.0,0.0,-2.7636,-2.7487,-2.7317,-2.7473,-2.7186,-2.6085,-2.1326,-1.5309,-1.0215,0.0,0.0,0.0,0.0,0.0,0.0,0.0,-0.5437,-0.5214,-0.5588,-0.516,-0.4824,-0.4776,-0.3481,-0.2447,0.0,0.0,0.0,0.0,0.0,0.0,0.0,0.0,0.0,0.0,0.0,0.0,0.0,0.0,0.0,0.0,0.0,0.0,0.0,0.0,0.0,0.0,0.0,0.0,0.0,0.0,0.0,0.0,0.0,0.0,0.0,0.0,0.0,0.0,0.0,0.0,-1.2159,-1.2657,-1.3697,-1.4883,-1.5632,0.0,0.0,-1.8343,-1.8018,-1.7664,-1.8657,-1.7756,-1.6783,-1.751,0.0,0.0,-1.7177,-1.7897,-1.8581,-1.8602,-1.8846,0.0,0.0,0.0,0.0,0.0,0.0,0.0,0.0,0.0,0.0,0.0,0.0,0.0,0.0,0.0,0.0,-2.9382,-2.935,-2.9243,-2.8997,-2.9409,-2.9207,-2.8343,-2.7671,-2.7313,-2.7201,-2.6891,-2.6625,-2.6405,-2.6765,-2.6743,-2.6418,-2.6521,0.0,0.0,-2.7007,-2.7007,-2.7036,-2.6813,-2.6871,-2.6964,-2.5592,-1.8322,-1.0013,0.0,0.0,0.0,0.0,0.0,0.0,-0.6853,-0.6838,-0.6934,-0.7272,-0.7117,-0.6897,-0.6666,-0.6063,-0.519,-0.4045,0.0,0.0,0.0,0.0,0.0,0.0,0.0,0.0,0.0,0.0,0.0,0.0,0.0,0.0,0.0,0.0,0.0,0.0,0.0,0.0,0.0,0.0,0.0,0.0,0.0,0.0,0.0,0.0,0.0,0.0,0.0,0.0,0.0,0.0,0.0,0.0,-1.1386,-1.21,0.0,0.0,-1.5257,-1.6331,-1.6963,-1.7571,-1.8191,-1.8649,-1.7838,-1.7027,-1.7144,0.0,-1.6507,-1.6375,-1.7006,-1.7747,-1.8341,-1.863,-1.9098,0.0,0.0,0.0,0.0,0.0,0.0,0.0,0.0,0.0,0.0,0.0,0.0,0.0,0.0,0.0,-2.9211,-2.9327,-2.9227,-2.8795,-2.8779,-2.8638,-2.8249,-2.7409,-2.7009,-2.6964,-2.6847,-2.6587,-2.6222,-2.6682,-2.6722,-2.6434,-2.652,0.0,0.0,-2.6589,-2.6742,-2.697,-2.6691,-2.707,-2.6765,-1.8701,-1.301,-0.9128,0.0,0.0,0.0,0.0,0.0,-0.7853,-0.8025,-0.8125,-0.8283,-0.8626,-0.8474,-0.8309,-0.8184,-0.8019,-0.7528,-0.6592,-0.6763,0.0,0.0,0.0,0.0,0.0,0.0,0.0,0.0,0.0,0.0,-0.903,0.0,0.0,0.0,0.0,0.0,0.0,0.0,0.0,0.0,0.0,0.0,0.0,0.0,0.0,0.0,0.0,0.0,0.0,0.0,0.0,0.0,0.0,0.0,0.0,0.0,0.0,0.0,0.0,-1.3841,-1.5016,-1.5754,-1.6885,-1.7868,-1.8151,-1.7549,-1.6717,0.0,0.0,-1.5665,-1.559,-1.6472,-1.7456,-1.8182,-1.8655,-1.9124,-1.969,0.0,-2.0694,0.0,0.0,0.0,0.0,0.0,0.0,0.0,0.0,0.0,0.0,0.0,0.0,0.0,-2.9323,-2.9061,-2.8415,-2.8352,-2.8304,-2.8352,-2.7504,-2.7194,-2.7405,-2.7254,-2.6945,-2.6459,-2.6779,-2.6759,-2.6485,-2.6589,0.0,0.0,-2.6572,-2.6708,-2.6987,-2.6905,-2.6043,-2.3801,-1.4873,-0.956,-0.6026,0.0,0.0,0.0,0.0,0.0,0.0,-0.971,-0.919,-0.8935,-0.9361,-0.8685,-0.858,-0.9658,-0.9295,-0.9183,-0.971,-0.8271,0.0,0.0,0.0,0.0,0.0,0.0,0.0,0.0,0.0,-1.0914,-1.0762,-1.104,-1.1091,0.0,0.0,0.0,0.0,0.0,0.0,0.0,0.0,0.0,0.0,0.0,0.0,0.0,0.0,0.0,0.0,0.0,0.0,0.0,0.0,0.0,0.0,0.0,-1.0778,-1.0469,0.0,-1.2345,-1.3431,-1.4749,-1.5392,-1.5909,-1.6727,-1.616,-1.533,0.0,0.0,-1.553,-1.535,-1.691,-1.8305,-1.8305,-1.9072,-1.9726,-1.9797,-1.9975,0.0,0.0,0.0,0.0,0.0,0.0,0.0,0.0,0.0,0.0,0.0,0.0,0.0,0.0,-2.9295,-2.8627,-2.764,-2.8076,-2.8352,-2.8511,-2.8008,-2.8155,-2.8889,-2.8229,-2.7671,-2.7259,-2.7023,-2.6759,0.0,0.0,0.0,0.0,-2.7087,-2.7055,-2.704,-2.7373,-2.3329,-1.7316,-1.7474,-1.0149,-0.017,0.0,0.0,0.0,0.0,0.0,0.0,0.0,-1.019,-1.0138,-0.9836,-0.9888,-0.9932,-0.9917,-1.002,-1.0328,-1.0838,-1.034,0.0,0.0,0.0,0.0,0.0,0.0,0.0,0.0,0.0,-1.1292,-1.171,-1.1351,-1.1601,-1.2304,-1.1968,0.0,0.0,0.0,0.0,0.0,0.0,0.0,0.0,0.0,0.0,0.0,0.0,0.0,0.0,0.0,0.0,0.0,0.0,0.0,0.0,0.0,0.0,0.0,-1.0309,-1.1449,-1.2923,-1.3704,-1.4488,-1.5147,-1.5378,-1.5106,-1.4672,-1.454,0.0,-1.4384,-1.4763,-1.5582,-1.6621,-1.7771,-1.8496,-1.9169,-1.9848,-2.0289,0.0,0.0,0.0,0.0,0.0,0.0,0.0,0.0,0.0,0.0,0.0,0.0,0.0,0.0,-2.9741,-2.9252,-2.883,-2.8177,-2.8072,-2.8556,-2.8132,-2.7811,-2.7593,-2.7842,-2.749,-2.6614,-2.6795,-2.6611,0.0,0.0,0.0,0.0,-2.6158,-2.6437,-2.6757,-2.6888,-2.3232,-1.7252,-1.2775,-0.6261,0.0998,0.0,0.0,0.0,0.0,0.0,0.0,0.0,-1.0812,-1.0769,-1.0462,-1.0514,-1.0557,-1.0592,-1.0889,-1.1342,-1.1792,-1.2021,0.0,0.0,0.0,0.0,0.0,0.0,0.0,0.0,-1.2276,-1.257,-1.2929,-1.257,-1.2716,-1.343,-1.3084,-1.2967,-1.3054,-1.2919,0.0,0.0,0.0,0.0,0.0,0.0,0.0,-1.0069,0.0,0.0,0.0,0.0,0.0,0.0,0.0,0.0,0.0,0.0,0.0,0.0,0.0,-1.0675,-1.1913,0.0,-1.3506,-1.4225,-1.4327,-1.4137,0.0,0.0,0.0,-1.3879,-1.4295,-1.5323,-1.648,-1.7611,-1.8496,-1.9207,-1.9726,-2.015,0.0,0.0,0.0,0.0,0.0,0.0,0.0,0.0,0.0,0.0,0.0,0.0,0.0,0.0,-2.9684,-2.9325,-2.9456,-2.8278,-2.7784,-2.8203,-2.8001,-2.7694,-2.7285,-2.738,-2.7123,-2.6522,-2.6458,-2.629,0.0,0.0,0.0,0.0,-2.5924,-2.6193,-2.659,-2.664,-2.1522,-1.3606,-0.9468,-0.289,0.452,0.0,0.0,0.0,0.0,0.0,0.0,0.0,-1.1226,-1.0972,-1.1124,-1.0761,-1.0761,-1.1469,-1.1832,-1.2209,-1.2657,0.0,0.0,0.0,0.0,0.0,0.0,0.0,0.0,-1.3658,-1.4071,-1.4305,-1.4305,-1.4305,-1.4305,-1.4294,-1.4294,-1.4376,-1.4503,-1.4154,-1.3805,-1.3371,-1.1516,-1.0471,-1.0032,-0.9333,-0.9674,0.0,0.0,0.0,0.0,0.0,0.0,0.0,0.0,0.0,0.0,0.0,0.0,0.0,0.0,0.0,0.0,0.0,-1.2461,-1.3137,-1.3368,-1.333,-1.3161,0.0,0.0,0.0,-1.404,-1.5896,-1.7531,-1.7733,-1.8855,-1.969,-1.9493,0.0,0.0,0.0,0.0,0.0,0.0,0.0,0.0,0.0,0.0,0.0,0.0,0.0,0.0,0.0,-2.9241,-2.8876,-2.949,-2.8248,-2.764,-2.7685,-2.7755,-2.7775,-2.77,-2.6934,-2.666,-2.6776,-2.5997,-2.5824,0.0,0.0,0.0,0.0,-2.6156,-2.6243,-2.6537,-2.6572,-1.8789,-0.7573,-0.758,-0.0328,0.9685,0.0,0.0,0.0,0.0,0.0,0.0,0.0,0.0,0.0,0.0,-1.1569,-1.166,-1.1981,-1.2365,-1.2909,0.0,0.0,0.0,0.0,0.0,0.0,0.0,0.0,0.0,-1.4118,-1.4258,-1.4305,-1.4305,-1.4305,-1.434,-1.4457,-1.4457,-1.456,-1.4801,-1.4351,-1.345,-1.2231,-1.1482,-1.0765,-1.0075,-0.9904,-0.9828,0.0,0.0,0.0,0.0,-1.0534,-1.0525,0.0,0.0,0.0,0.0,0.0,0.0,0.0,0.0,-0.943,-1.0068,-1.0567,0.0,-1.1776,-1.1826,-1.2124,-1.2464,0.0,0.0,0.0,0.0,0.0,-1.6704,-1.7301,-1.8316,-1.9049,0.0,0.0,0.0,0.0,0.0,0.0,0.0,0.0,0.0,0.0,0.0,0.0,0.0,0.0,0.0,0.0,-2.9295,-2.8614,-2.8711,-2.8008,-2.7829,-2.8353,-2.7996,-2.7534,-2.7037,-2.7179,-2.6789,-2.5904,-2.5964,-2.5679,0.0,0.0,0.0,-2.5029,-2.5481,-2.5742,-2.5921,-2.626,-1.8587,-0.7392,-0.7567,0.0054,1.0408,0.0,0.0,0.0,0.0,0.0,0.0,0.0,0.0,0.0,0.0,0.0,-1.1968,-1.2147,-1.253,0.0,0.0,0.0,0.0,0.0,0.0,0.0,0.0,0.0,-1.4071,-1.4082,-1.434,-1.4433,-1.4398,-1.464,-1.472,-1.4606,-1.4801,-1.4858,-1.4858,-1.4294,-1.3408,-1.2376,-1.1611,-1.0937,-1.0346,-1.0002,0.0,0.0,0.0,0.0,0.0,-1.0205,-1.0206,0.0,-1.028,-0.9697,-0.8846,0.0,0.0,0.0,0.0,-0.9151,-0.9902,-1.0269,-1.0874,-1.1411,-1.1702,-1.197,-1.2332,-1.3048,0.0,0.0,0.0,0.0,0.0,-1.7218,0.0,0.0,0.0,0.0,0.0,0.0,0.0,0.0,0.0,0.0,0.0,0.0,0.0,0.0,0.0,0.0,0.0,-3.0088,-2.8846,-2.8077,-2.7936,-2.7682,-2.7652,-2.804,-2.7784,-2.741,-2.7051,-2.7043,-2.6411,-2.5288,-2.5481,-2.5139,0.0,0.0,0.0,-2.4806,-2.5346,-2.5497,-2.5476,-2.6066,-2.024,-1.1525,-1.1885,-0.5992,0.2389,0.0,0.0,0.0,0.0,0.0,0.0,0.0,0.0,0.0,0.0,0.0,0.0,0.0,0.0,0.0,0.0,0.0,0.0,0.0,0.0,0.0,0.0,-1.3941,-1.4129,-1.3952,-1.4433,-1.4663,-1.464,-1.5119,-1.5198,-1.4983,-1.5334,-1.5289,-1.4903,-1.4294,-1.3627,-1.2938,-1.1959,-1.1259,-1.0732,-1.0048,0.0,0.0,0.0,0.0,0.0,0.0,0.0,0.0,-1.0027,-0.9405,-0.8513,-0.8553,0.0,0.0,0.0,0.0,0.0,-1.0173,-1.0898,-1.1613,-1.2124,-1.2316,-1.2589,-1.3408,0.0,0.0,0.0,0.0,0.0,0.0,0.0,0.0,0.0,0.0,0.0,0.0,0.0,0.0,0.0,0.0,0.0,0.0,0.0,0.0,0.0,0.0,0.0,-2.943,-2.8248,-2.7539,-2.7386,-2.735,-2.735,-2.735,-2.735,-2.735,-2.7335,-2.6633,-2.5761,-2.482,-2.4685,-2.4265,-2.3701,0.0,0.0,-2.4799,-2.5246,-2.5285,-2.5091,-2.5795,-2.2055,-1.6306,-1.686,-1.3212,-0.727,0.0,0.0,0.0,0.0,0.0,0.0,0.0,0.0,0.0,0.0,0.0,0.0,0.0,0.0,0.0,0.0,0.0,0.0,0.0,0.0,0.0,-1.3915,-1.4093,-1.4305,-1.4571,-1.4663,-1.4892,-1.5334,-1.5424,-1.5691,-1.612,-1.6219,-1.5824,-1.5062,-1.496,-1.4201,-1.3016,-1.2802,-1.2139,-1.1185,-1.0696,0.0,0.0,0.0,0.0,0.0,0.0,0.0,0.0,-0.9457,-0.8977,-0.8439,-0.8185,0.0,0.0,0.0,0.0,0.0,-0.9368,-1.065,-1.2005,-1.2018,-1.2557,-1.3133,0.0,0.0,0.0,0.0,0.0,0.0,0.0,0.0,0.0,0.0,0.0,0.0,0.0,0.0,0.0,0.0,0.0,0.0,0.0,0.0,0.0,0.0,0.0,0.0,-2.8742,-2.7906,-2.7386,-2.7233,-2.7233,-2.7196,-2.7055,-2.7181,-2.7233,-2.7233,-2.6221,-2.5286,-2.4445,-2.3717,-2.2932,-2.2289,0.0,-2.3563,-2.342,-2.4354,-2.4719,-2.4704,-2.4918,-2.1162,-1.5629,-1.6306,-1.2599,-0.7025,0.0,0.0,0.0,0.0,0.0,0.0,0.0,0.0,0.0,0.0,0.0,0.0,0.0,0.0,0.0,0.0,0.0,0.0,0.0,0.0,-1.4686,-1.4408,-1.4186,-1.4035,-1.4014,-1.4351,-1.4628,-1.4823,-1.4823,-1.496,-1.5322,-1.504,-1.4674,-1.4269,-1.4269,-1.3931,-1.3314,-1.3112,-1.2578,-1.1891,0.0,0.0,0.0,0.0,0.0,0.0,0.0,0.0,0.0,0.0,-0.8975,-0.8398,-0.839,0.0,0.0,0.0,0.0,0.0,-0.9802,-1.077,-1.1747,-1.1774,-1.2435,-1.3141,0.0,0.0,0.0,0.0,0.0,0.0,0.0,0.0,0.0,0.0,0.0,0.0,0.0,0.0,0.0,0.0,0.0,0.0,0.0,0.0,0.0,0.0,0.0,0.0,-2.8367,-2.7691,-2.7248,-2.7093,-2.6669,-2.639,-2.6258,-2.5892,-2.6162,-2.6974,-2.6289,-2.5133,-2.3612,-2.3705,-2.2775,-2.1148,0.0,-2.2605,-2.2257,-2.3171,-2.3083,-2.2494,-2.3023,-2.1298,-1.8616,-1.9088,-1.5263,-0.9739,0.0,0.0,0.0,0.0,0.0,0.0,0.0,0.0,0.0,0.0,0.0,0.0,0.0,0.0,0.0,0.0,0.0,0.0,0.0,0.0,-1.4697,-1.472,-1.4419,-1.4046,-1.3647,-1.3988,-1.4233,-1.4233,-1.4233,-1.4373,-1.4558,-1.4129,-1.3894,-1.381,-1.381,-1.3716,-1.3563,-1.3107,-1.2688,-1.227,0.0,0.0,0.0,0.0,0.0,0.0,0.0,0.0,0.0,0.0,0.0,0.0,0.0,0.0,0.0,-0.8084,-0.8783,-0.9563,-0.9916,-1.0709,-1.1338,-1.1105,0.0,0.0,0.0,0.0,0.0,0.0,0.0,0.0,0.0,0.0,0.0,0.0,0.0,0.0,0.0,0.0,0.0,0.0,0.0,0.0,0.0,0.0,0.0,0.0,0.0,0.0,-2.7645,-2.7107,-2.6688,-2.6495,-2.5774,-2.5383,-2.5259,-2.4627,-2.5036,-2.6433,-2.5779,-2.4476,-2.2831,-2.3125,-2.2128,-2.0233,-2.1356,-2.1664,-2.1394,-2.1913,-2.155,-2.0656,-2.1209,-2.1251,-2.0962,-2.1079,-1.7547,-1.277,0.0,0.0,0.0,0.0,0.0,0.0,0.0,0.0,0.0,0.0,0.0,0.0,0.0,0.0,0.0,0.0,0.0,0.0,0.0,0.0,-1.4708,-1.4697,-1.4926,-1.4789,-1.4326,-1.3905,-1.3905,-1.4384,-1.4384,-1.4605,-1.5062,-1.5017,-1.4743,-1.4326,-1.4326,-1.4093,-1.3542,-1.2852,-1.2329,-1.1881,-1.1022,0.0,0.0,0.0,0.0,0.0,0.0,0.0,0.0,0.0,0.0,0.0,0.0,0.0,-0.7574,-0.791,-0.8516,-0.8972,-0.8731,-0.9956,-1.1024,-0.9775,-1.1578,0.0,-1.3773,-1.4812,0.0,0.0,0.0,0.0,0.0,0.0,0.0,0.0,0.0,0.0,0.0,0.0,0.0,0.0,0.0,0.0,0.0,0.0,0.0,0.0,0.0,0.0,-2.6003,-2.5828,-2.5478,-2.4889,-2.4542,-2.4285,-2.4302,-2.3981,-2.4399,-2.5508,-2.3642,-2.2674,-2.2444,-2.0819,-1.9848,-1.9562,-1.9907,-2.0425,-2.0926,-2.0812,-2.0695,-2.0548,-2.0171,-2.0129,-2.0136,-1.9504,-1.7427,-1.4788,0.0,0.0,0.0,0.0,0.0,0.0,0.0,0.0,0.0,0.0,0.0,0.0,0.0,0.0,0.0,0.0,0.0,0.0,0.0,-1.5017,-1.5017,-1.5198,-1.4971,-1.4789,-1.4582,-1.4398,-1.4387,-1.4582,-1.4466,-1.4326,-1.4176,-1.4176,-1.4082,-1.3905,-1.3905,-1.381,-1.3563,-1.3293,-1.2977,-1.2644,-1.1899,-1.1472,0.0,0.0,0.0,0.0,0.0,0.0,0.0,0.0,-0.8344,-0.81,-0.7921,-0.7845,-0.7968,-0.8701,-0.9156,-0.9531,-1.0035,-1.0588,-1.098,-1.0681,-1.1717,0.0,0.0,-1.4523,0.0,0.0,0.0,0.0,0.0,0.0,0.0,0.0,0.0,0.0,0.0,0.0,0.0,0.0,0.0,0.0,0.0,0.0,0.0,0.0,0.0,0.0,0.0,-2.4297,-2.4205,-2.3783,-2.2944,-2.2566,-2.2589,-2.1543,-2.1372,-2.2154,-2.2589,-2.2246,-2.1225,-2.068,-1.983,-1.8794,-1.8978,-1.8912,-1.8694,-1.862,-1.8354,-1.7901,-1.763,-1.6924,-1.6088,-1.6148,-1.4864,-1.3001,0.0,0.0,0.0,0.0,0.0,0.0,0.0,0.0,0.0,0.0,0.0,0.0,0.0,0.0,0.0,0.0,0.0,0.0,-1.488,-1.5017,-1.5198,-1.5379,-1.5017,-1.4823,-1.4812,-1.4766,-1.4571,-1.434,-1.4222,-1.3952,-1.3621,-1.3621,-1.3621,-1.361,-1.3467,-1.3409,-1.3409,-1.3077,-1.2897,-1.2793,-1.2044,-1.1752,0.0,0.0,0.0,0.0,0.0,0.0,0.0,0.0,-0.837,-0.8134,-0.8032,-0.7974,-0.807,-0.9005,-0.938,-0.9707,-1.0471,-1.0929,-1.123,0.0,0.0,0.0,-1.3946,0.0,0.0,0.0,0.0,0.0,0.0,0.0,0.0,0.0,0.0,0.0,0.0,0.0,0.0,0.0,0.0,0.0,0.0,0.0,0.0,0.0,0.0,0.0,0.0,-2.294,-2.2789,-2.224,-2.1317,-2.0888,-2.0972,-1.9732,-1.9245,-1.9506,-2.0819,-2.0949,-2.0011,-1.9924,-1.9258,-1.8118,-1.7986,-1.7752,-1.7431,-1.711,-1.6606,-1.5911,-1.5618,-1.4741,-1.3571,-1.3533,-1.2692,-1.1472,0.0,0.0,0.0,0.0,0.0,0.0,0.0,0.0,0.0,0.0,0.0,0.0,0.0,0.0,0.0,0.0,0.0,0.0,-1.4373,-1.4834,-1.5108,-1.5108,-1.5108,-1.5108,-1.5108,-1.4834,-1.4326,-1.3621,-1.3621,-1.3621,-1.3621,-1.3621,-1.3621,-1.3563,-1.317,-1.3016,-1.2938,-1.195,-1.1739,-1.2049,-1.1357,-1.1205,-1.1255,0.0,0.0,0.0,0.0,0.0,0.0,0.0,-0.8854,-0.8618,-0.8136,-0.7846,-0.7843,-0.8494,-0.8942,-0.9261,-0.9564,-1.0736,-1.1802,0.0,0.0,0.0,0.0,0.0,0.0,0.0,0.0,0.0,0.0,0.0,0.0,0.0,0.0,0.0,0.0,0.0,0.0,0.0,0.0,0.0,0.0,0.0,0.0,0.0,0.0,0.0,0.0,-2.1653,-2.1225,-2.0237,-1.972,-1.9491,-1.9488,-1.901,-1.8517,-1.7955,-1.8006,-1.83,-1.8962,-1.8176,-1.7685,-1.7456,-1.7009,-1.7062,-1.7435,-1.6461,-1.572,-1.5118,-1.4468,-1.3892,-1.3371,-1.2124,-1.1431,-1.0986,0.0,0.0,0.0,0.0,0.0,0.0,0.0,0.0,0.0,0.0,0.0,0.0,0.0,0.0,0.0,0.0,0.0,0.0,-1.4373,-1.4834,-1.5108,-1.5108,-1.4789,-1.4651,-1.4834,-1.443,-1.4104,-1.3868,-1.3668,-1.3621,-1.3621,-1.3621,-1.3621,-1.3573,-1.3266,-1.316,-1.3112,-1.2667,-1.2454,-1.2363,-1.2143,-1.1833,-1.1424,0.0,0.0,0.0,0.0,0.0,0.0,0.0,0.0,0.0,-0.8032,-0.7911,-0.8112,-0.9131,-0.9509,-0.9777,-1.0488,-1.1637,0.0,0.0,0.0,0.0,0.0,0.0,0.0,0.0,0.0,0.0,0.0,0.0,0.0,0.0,0.0,0.0,0.0,0.0,0.0,0.0,0.0,0.0,0.0,0.0,0.0,0.0,0.0,0.0,0.0,-1.9274,-1.9227,-1.8669,-1.8148,-1.7877,-1.7949,-1.7168,-1.6705,-1.6502,-1.6519,-1.6957,-1.7759,-1.7193,-1.6896,-1.6806,-1.6386,-1.6206,-1.6191,-1.5663,-1.5196,-1.4796,-1.4211,-1.3378,-1.2448,-1.1921,-1.1205,-1.0465,0.0,0.0,0.0,0.0,0.0,0.0,0.0,0.0,0.0,0.0,-1.2421,-1.2578,0.0,0.0,0.0,0.0,0.0,0.0,0.0,-1.4593,-1.4858,-1.4834,-1.4558,-1.4466,-1.4569,-1.4186,-1.3905,-1.3668,-1.3467,-1.342,-1.361,-1.3286,-1.3286,-1.342,-1.2987,-1.2696,-1.2588,-1.2378,-1.2082,-1.178,-1.1884,-1.1547,-1.1084,0.0,0.0,0.0,0.0,0.0,0.0,0.0,0.0,0.0,-0.816,-0.8118,-0.837,-0.9381,-0.9743,-1.0115,-1.1123,0.0,0.0,0.0,0.0,0.0,0.0,0.0,0.0,0.0,0.0,0.0,0.0,0.0,0.0,0.0,0.0,0.0,0.0,0.0,0.0,0.0,0.0,0.0,0.0,0.0,0.0,0.0,0.0,0.0,0.0,-1.8038,-1.7956,-1.7603,-1.7094,-1.6857,-1.6884,-1.6219,-1.5914,-1.5914,-1.5856,-1.6103,-1.6522,-1.6276,-1.6098,-1.6039,-1.5674,-1.5439,-1.5313,-1.5079,-1.4843,-1.451,-1.3914,-1.316,-1.2321,-1.1825,-1.1205,-1.0587,0.0,0.0,-0.9614,-0.9614,0.0,0.0,0.0,0.0,0.0,0.0,-1.2175,-1.2175,0.0,0.0,0.0,-1.248,-1.3266,-1.3684,-1.3716,-1.4154,-1.4387,-1.4326,-1.4337,-1.4326,-1.428,-1.4071,-1.3684,-1.317,-1.3064,-1.3218,-1.3573,-1.2958,-1.2852,-1.3218,-1.2501,-1.202,-1.1733,-1.1451,-1.113,-1.0777,-1.0929,-1.0758,-1.0419,-1.0545,0.0,0.0,0.0,0.0,0.0,0.0,0.0,0.0,-0.8618,-0.8496,-0.8658,-0.9387,-0.9789,-1.0288,0.0,0.0,0.0,0.0,0.0,0.0,0.0,0.0,0.0,0.0,0.0,0.0,0.0,0.0,0.0,0.0,0.0,0.0,0.0,0.0,0.0,0.0,0.0,0.0,0.0,0.0,0.0,0.0,0.0,0.0,0.0,-1.7545,-1.7257,-1.6899,-1.6457,-1.6239,-1.6239,-1.5961,-1.5856,-1.5798,-1.5682,-1.5546,-1.5352,-1.5362,-1.5313,-1.5156,-1.5029,-1.4902,-1.4715,-1.4715,-1.4547,-1.4231,-1.3625,-1.311,-1.2671,-1.1825,-1.1316,-1.1039,0.0,0.0,-0.9614,-0.9614,0.0,0.0,0.0,0.0,0.0,0.0,0.0,0.0,0.0,-1.2332,0.0,-1.248,-1.2832,-1.3006,-1.3016,-1.3494,-1.38,-1.3752,-1.3752,-1.3658,-1.3457,-1.3409,-1.3228,-1.2968,-1.3084,-1.3314,-1.3621,-1.3631,-1.3631,-1.3515,-1.3122,-1.2745,-1.228,-1.1713,-1.1425,-1.1398,-1.1093,-1.0801,-1.0545,-1.0596,-1.0452,0.0,0.0,0.0,0.0,0.0,0.0,0.0,-0.943,-0.935,-0.9386,-0.9622,-0.9891,-1.0326,0.0,0.0,0.0,0.0,0.0,0.0,0.0,0.0,0.0,0.0,0.0,0.0,0.0,0.0,0.0,0.0,0.0,0.0,0.0,0.0,0.0,0.0,0.0,0.0,0.0,0.0,0.0,0.0,0.0,0.0,-1.6306,-1.6296,-1.6239,-1.6134,-1.5961,-1.572,-1.5584,-1.5439,-1.5274,0.0,-1.5147,-1.5147,-1.5088,-1.5205,-1.5147,-1.5039,-1.5029,-1.4902,-1.4706,-1.4597,-1.4428,-1.4231,-1.3526,-1.2905,-1.2372,-1.199,-1.1432,-1.0878,0.0,0.0,0.0,0.0,0.0,0.0,0.0,0.0,0.0,0.0,0.0,0.0,0.0,-1.2274,0.0,0.0,-1.2939,-1.3064,-1.3016,-1.3266,-1.3362,-1.3218,-1.3218,-1.316,-1.3016,-1.3016,-1.2977,-1.2852,-1.3074,-1.3314,-1.3621,-1.361,-1.3563,-1.3467,-1.316,-1.2607,-1.1855,-1.15,-1.1137,-1.0807,-1.0634,-1.0533,-1.0454,-1.0343,-1.028,-1.0205,-1.0059,0.0,0.0,0.0,0.0,0.0,0.0,0.0,-0.9515,-0.9812,-1.0137,-1.0663,0.0,0.0,0.0,0.0,0.0,0.0,0.0,0.0,0.0,0.0,0.0,0.0,0.0,0.0,0.0,0.0,0.0,0.0,0.0,0.0,0.0,0.0,0.0,0.0,0.0,0.0,0.0,0.0,0.0,-1.5914,-1.5914,-1.5856,-1.5798,-1.5798,-1.5662,-1.5488,-1.5313,-1.5205,-1.5156,-1.497,-1.497,-1.497,-1.4843,-1.4902,-1.4911,-1.4743,-1.4684,-1.4616,-1.4488,-1.4309,-1.4189,-1.4001,-1.3433,-1.2999,-1.2582,-1.2213,-1.1791,-1.1387,0.0,0.0,0.0,0.0,0.0,0.0,0.0,0.0,0.0,0.0,0.0,0.0,0.0,-1.2224,-1.2627,0.0,0.0,0.0,-1.3025,-1.3025,-1.2977,-1.2861,-1.2774,-1.2725,-1.2812,-1.2725,-1.2677,-1.2677,-1.2967,-1.3266,-1.3467,-1.3409,-1.3409,-1.3467,-1.3064,-1.2289,-1.1306,-1.123,-1.0766,-1.0115,-1.0117,-1.0166,-1.0244,-1.0098,-1.001,-1.0019,-0.9867,-0.9895,-0.9916,-0.9747,0.0,0.0,0.0,0.0,-0.9551,-1.0059,-1.0431,-1.1003,0.0,0.0,0.0,0.0,0.0,0.0,0.0,0.0,0.0,0.0,0.0,0.0,0.0,0.0,0.0,0.0,0.0,0.0,0.0,0.0,0.0,0.0,0.0,0.0,0.0,0.0,0.0,0.0,0.0,-1.5798,-1.5798,-1.5672,-1.5556,-1.5556,-1.543,-1.5245,-1.5088,-1.5088,-1.5029,-1.4911,-1.4911,-1.4793,-1.4656,-1.4597,-1.4547,-1.4455,-1.4327,-1.4267,-1.4207,-1.401,-1.389,-1.37,-1.339,-1.3094,-1.2805,-1.2305,-1.2058,-1.1934,0.0,0.0,0.0,0.0,0.0,0.0,0.0,0.0,0.0,0.0,-1.1099,-1.1868,0.0,-1.2116,-1.2686,-1.2725,-1.2676,-1.2569,-1.2421,0.0,0.0,-1.2967,-1.2598,-1.2501,-1.2764,-1.2393,-1.2166,-1.2166,-1.2628,-1.2861,-1.2909,-1.3695,-1.3941,-1.3716,-1.3314,-1.2616,-1.1686,-1.1363,-1.097,-1.0586,-1.0351,-1.0166,-1.0059,-1.0088,-0.9971,-0.9869,-1.0173,-1.0418,-1.0574,-1.0533,-1.0615,0.0,0.0,0.0,0.0,-1.0459,-1.0556,-1.0862,0.0,0.0,0.0,0.0,0.0,0.0,0.0,0.0,0.0,0.0,0.0,0.0,0.0,0.0,0.0,0.0,0.0,0.0,0.0,0.0,0.0,0.0,0.0,0.0,0.0,0.0,0.0,0.0,-1.5449,-1.5274,-1.5274,-1.5156,-1.5088,-1.5088,-1.5088,-1.4961,-1.4775,-1.4775,-1.4725,-1.4575,-1.4446,-1.4387,-1.4327,-1.4189,-1.4198,-1.4327,-1.4139,-1.401,-1.401,-1.389,-1.364,-1.3338,-1.3103,-1.2674,-1.2182,-1.2127,-1.1934,-1.1622,0.0,0.0,0.0,0.0,0.0,0.0,0.0,0.0,0.0,0.0,0.0,-1.151,0.0,-1.2166,-1.2832,-1.2832,-1.2783,-1.2627,-1.2431,-1.2421,-1.2471,-1.2598,-1.2471,-1.2471,-1.2647,-1.2421,-1.2471,-1.2745,-1.2919,-1.316,0.0,-1.3647,-1.3658,-1.3467,-1.3266,-1.2649,-1.1701,-1.1508,-1.1045,-1.0457,-1.0204,-1.0242,-1.0371,-1.0077,-1.0091,-1.0258,-1.0223,-1.0451,-1.0745,-1.0625,-1.0648,-1.0682,-1.0378,0.0,0.0,0.0,0.0,0.0,0.0,0.0,0.0,0.0,0.0,0.0,0.0,0.0,0.0,0.0,0.0,0.0,0.0,0.0,0.0,0.0,0.0,0.0,0.0,0.0,0.0,0.0,0.0,0.0,0.0,0.0,0.0,0.0,-1.5156,-1.5098,-1.5098,-1.5029,-1.497,-1.497,-1.497,-1.4902,-1.4715,-1.4715,-1.4606,-1.4396,-1.4198,-1.4139,-1.4139,-1.395,-1.395,-1.4139,-1.395,-1.3761,-1.358,-1.3407,-1.3155,-1.285,-1.2613,-1.2313,-1.2058,-1.1747,-1.156,-1.1373,0.0,0.0,0.0,0.0,0.0,0.0,0.0,0.0,0.0,0.0,0.0,0.0,0.0,0.0,0.0,0.0,-1.2881,-1.2832,-1.2627,-1.2578,-1.248,-1.2382,-1.248,-1.2529,-1.2421,-1.248,-1.2666,-1.3035,-1.3035,0.0,-1.36,-1.3324,-1.3132,0.0,-1.3132,-1.2619,-1.1763,-1.1655,-1.1243,-1.0636,-1.0339,-1.0428,-1.0766,-1.0245,-1.0241,-1.0454,-1.0294,-1.0512,0.0,0.0,0.0,0.0,0.0,0.0,0.0,0.0,0.0,0.0,0.0,0.0,0.0,0.0,0.0,0.0,0.0,0.0,0.0,0.0,0.0,0.0,0.0,0.0,0.0,0.0,0.0,0.0,0.0,0.0,0.0,0.0,0.0,0.0,0.0,0.0,0.0,0.0,-1.497,-1.4911,-1.4911,-1.4911,-1.4862,-1.4862,-1.4862,-1.4793,-1.4666,-1.4606,-1.4488,-1.4267,-1.4079,-1.395,-1.395,-1.3761,-1.3709,-1.3769,-1.3649,-1.3459,-1.3216,-1.2981,-1.2674,-1.2367,-1.2182,-1.2058,-1.1934,-1.1498,-1.1373,-1.124,0.0,0.0,0.0,0.0,0.0,0.0,0.0,0.0,0.0,0.0,0.0,0.0,-1.2076,-1.2578,-1.2881,-1.2881,-1.2881,-1.2881,-1.2881,-1.2783,-1.2627,-1.248,-1.2627,0.0,-1.2323,-1.2421,-1.2529,-1.252,0.0,0.0,-1.2578,-1.2578,-1.2627,-1.2725,-1.2871,-1.2627,-1.2168,0.0,0.0,0.0,-1.1023,-1.0899,-1.1051,0.0,0.0,0.0,0.0,0.0,0.0,0.0,0.0,0.0,0.0,0.0,0.0,0.0,0.0,0.0,0.0,0.0,0.0,0.0,0.0,0.0,0.0,0.0,0.0,0.0,0.0,0.0,0.0,0.0,0.0,0.0,0.0,0.0,0.0,0.0,0.0,0.0,0.0,0.0,0.0,0.0,0.0,0.0,-1.4843,-1.4715,-1.4715,-1.4616,-1.4515,-1.4515,-1.4515,-1.4515,-1.4506,-1.4387,-1.4327,-1.4267,-1.3959,-1.383,-1.383,-1.3631,-1.3338,-1.3042,-1.305,-1.3042,-1.2981,-1.2666,-1.2367,-1.212,-1.2127,-1.1941,-1.1622,-1.156,-1.1435,-1.1303,0.0,0.0,0.0,0.0,0.0,0.0,0.0,0.0,0.0,0.0,0.0,0.0,0.0,-1.151,-1.1968,-1.2323,-1.2676,-1.2881,-1.2783,-1.2832,-1.2783,-1.2627,-1.2783,-1.2783,-1.2686,-1.2627,-1.2676,-1.2783,0.0,-1.2676,-1.2783,-1.2783,-1.2628,-1.2376,-1.2657,-1.2424,-1.1787,-1.1728,0.0,0.0,0.0,0.0,0.0,0.0,0.0,0.0,0.0,0.0,0.0,0.0,0.0,0.0,0.0,0.0,0.0,0.0,0.0,0.0,0.0,0.0,0.0,0.0,0.0,0.0,0.0,0.0,0.0,0.0,0.0,0.0,0.0,0.0,0.0,0.0,0.0,0.0,0.0,0.0,0.0,0.0,0.0,0.0,0.0,0.0,0.0,0.0,0.0,-1.4556,-1.4556,-1.4506,-1.4515,-1.4515,-1.4515,-1.4455,-1.4387,-1.4079,-1.3959,-1.3959,-1.37,-1.3631,-1.3631,-1.3511,-1.3338,-1.2981,-1.2797,-1.2552,-1.2428,-1.2305,-1.2058,-1.1747,-1.1747,-1.1685,-1.156,-1.1435,-1.131,-1.1122,0.0,0.0,0.0,0.0,0.0,0.0,0.0,0.0,0.0,-0.9873,0.0,0.0,0.0,0.0,-1.1719,-1.2323,-1.2676,-1.2881,-1.2774,-1.2832,-1.2832,-1.2735,-1.2832,-1.2881,-1.2832,-1.2783,-1.2832,-1.2881,-1.2832,-1.2832,0.0,-1.2734,-1.251,-1.219,-1.2279,-1.2141,0.0,0.0,0.0,-1.1606,0.0,0.0,-1.1625,0.0,0.0,0.0,0.0,0.0,0.0,0.0,0.0,0.0,0.0,0.0,0.0,0.0,0.0,0.0,0.0,0.0,0.0,0.0,0.0,0.0,0.0,0.0,0.0,0.0,0.0,0.0,0.0,0.0,0.0,0.0,0.0,0.0,0.0,0.0,0.0,0.0,0.0,0.0,0.0,0.0,0.0,0.0,0.0,0.0,-1.4515,-1.4515,-1.4455,-1.4446,-1.4446,-1.4336,-1.4198,-1.395,-1.383,-1.383,-1.358,-1.345,-1.3338,-1.3338,-1.3094,-1.2674,-1.249,-1.2243,-1.2058,-1.2003,-1.1809,-1.1622,-1.1622,-1.1622,-1.156,-1.1373,-1.1247,-1.1059,0.0,0.0,0.0,0.0,0.0,0.0,0.0,0.0,0.0,-1.0403,0.0,0.0,0.0,0.0,0.0,-1.2832,-1.2881,-1.2881,-1.2881,-1.2881,-1.2832,-1.2676,-1.2783,-1.2832,-1.2686,-1.2832,-1.2881,-1.2881,-1.2881,-1.2881,-1.2871,-1.2432,-1.218,-1.2141,-1.1738,-1.1787,-1.2141,0.0,-1.207,-1.2618,0.0,-1.1718,-1.1846,0.0,0.0,0.0,-1.1293,-1.1335,0.0,0.0,0.0,0.0,0.0,0.0,0.0,0.0,0.0,0.0,0.0,0.0,0.0,0.0,0.0,0.0,0.0,0.0,0.0,0.0,0.0,0.0,0.0,0.0,0.0,0.0,0.0,0.0,0.0,0.0,0.0,0.0,0.0,0.0,0.0,0.0,0.0,0.0,-1.4506,-1.4515,-1.4515,-1.4515,-1.4455,-1.4267,-1.4267,-1.4207,-1.401,-1.389,-1.3769,-1.3769,-1.3571,-1.3338,-1.2989,-1.2989,-1.2683,-1.2127,-1.2127,-1.2058,-1.2065,-1.1747,-1.1622,-1.1622,-1.1622,-1.1622,-1.156,-1.1373,-1.1185,-1.1059,0.0,0.0,0.0,0.0,0.0,0.0,-0.9614,-0.9718,-0.9821,0.0,0.0,0.0,-1.06,-1.1519,-1.2175,-1.2332,-1.2676,-1.2735,-1.2332,-1.2323,-1.2116,-1.166,-1.2067,-1.2274,-1.2283,-1.2578,-1.2783,-1.2881,-1.2783,-1.2783,-1.2871,-1.2432,-1.2051,-1.1728,-1.098,-1.0845,-1.1183,-1.1151,0.0,0.0,-1.1262,-1.1384,0.0,0.0,0.0,0.0,0.0,-1.1507,0.0,0.0,-1.1309,-1.1107,0.0,0.0,0.0,0.0,0.0,0.0,-1.2494,0.0,0.0,0.0,0.0,0.0,0.0,-1.2615,0.0,0.0,0.0,0.0,0.0,0.0,0.0,0.0,0.0,0.0,0.0,0.0,0.0,0.0,0.0,0.0,0.0,0.0,0.0,0.0,-1.4028,-1.413,-1.413,-1.413,-1.413,-1.407,-1.4019,-1.389,-1.389,-1.37,-1.3571,-1.3571,-1.3511,-1.3338,-1.2989,-1.2989,-1.2683,-1.2127,-1.2127,-1.1941,-1.1747,-1.1622,-1.1622,-1.1622,-1.1622,-1.1498,-1.1365,-1.1303,-1.08,-1.0155,0.0,0.0,-0.9614,-0.9614,0.0,-0.9614,-0.9614,-0.9614,-0.9614,0.0,0.0,0.0,-1.0344,-1.1006,-1.1469,-1.1719,-1.2017,-1.2067,-1.1719,-1.1719,-1.156,-1.12,-1.1769,-1.2076,-1.2076,-1.2529,-1.2832,-1.2881,-1.2832,-1.2735,-1.2569,-1.2092,-1.1611,-1.1158,-1.048,-1.0392,0.0,0.0,0.0,0.0,-1.119,0.0,0.0,-1.1833,-1.1788,0.0,0.0,0.0,-1.1774,-1.1671,-1.1453,0.0,0.0,0.0,0.0,0.0,0.0,0.0,0.0,0.0,0.0,0.0,0.0,0.0,-1.2156,-1.2221,-1.269,0.0,0.0,0.0,0.0,0.0,0.0,0.0,0.0,0.0,0.0,0.0,0.0,0.0,0.0,0.0,0.0,-1.2977,-1.3352,-1.3504,-1.3678,-1.3832,-1.4001,-1.401,-1.395,-1.395,-1.383,-1.3761,-1.37,-1.3571,-1.3511,-1.3511,-1.3511,-1.3268,-1.2797,-1.2797,-1.249,-1.1872,-1.1872,-1.1622,-1.131,-1.1498,-1.1622,-1.156,-1.1498,-1.124,-1.0856,-1.073,-1.0091,-0.932,0.0,0.0,-0.9614,-0.9614,-0.9614,-0.9614,-0.9614,-0.9614,-0.9614,0.0,-0.9666,-0.9873,-1.0352,-1.0446,-1.0702,-1.115,-1.125,-1.1259,-1.1099,-1.1158,-1.115,-1.1049,-1.161,-1.1927,-1.1927,-1.2431,-1.2725,-1.2725,-1.2725,-1.248,-1.1968,-1.1511,-1.1066,-1.0603,-1.0145,-1.0141,-1.0477,0.0,0.0,-1.1562,-1.1353,-1.1481,0.0,0.0,-1.1837,0.0,-1.2321,-1.2398,-1.2278,-1.1899,-1.1447,0.0,0.0,0.0,0.0,0.0,-1.1253,0.0,0.0,0.0,0.0,0.0,0.0,0.0,-1.2816,-1.2627,-1.2614,0.0,0.0,0.0,0.0,0.0,0.0,0.0,0.0,0.0,0.0,0.0,0.0,0.0,0.0,0.0,-1.2166,-1.2502,-1.2808,-1.3134,-1.3296,-1.3526,-1.3923,-1.3941,-1.389,-1.3769,-1.3769,-1.37,-1.3511,-1.345,-1.345,-1.345,-1.339,-1.3086,-1.2482,-1.2482,-1.2112,-1.1498,-1.1498,-1.1178,-1.0737,-1.1185,-1.1373,-1.1365,-1.124,-1.0724,-1.0078,-0.9767,-0.9192,-0.8544,-0.9614,-0.9614,-0.9614,-0.9614,-0.9614,-0.9614,-0.9614,-0.9614,-0.9614,-0.9614,-0.9984,-1.0293,-1.0403,-1.0804,-1.1108,-1.12,-1.166,-1.1519,-1.06,-1.0956,-1.0795,-0.9976,-1.0446,-1.0753,-1.0753,-1.1259,-1.151,-1.151,-1.151,-1.146,-1.1351,-1.0954,-1.0716,-1.0556,-0.9766,-0.9619,-0.9906,0.0,0.0,-1.04,-1.0883,0.0,-1.1705,-1.2463,-1.2214,-1.1591,-1.2544,-1.2475,-1.1882,0.0,-1.1939,-1.1959,0.0,0.0,0.0,0.0,0.0,0.0,0.0,0.0,0.0,0.0,0.0,0.0,-1.2337,-1.228,-1.2528,0.0,0.0,0.0,0.0,0.0,0.0,0.0,0.0,0.0,0.0,0.0,0.0,0.0,0.0,0.0,-1.1124,-1.1336,-1.1577,-1.1643,-1.2555,-1.3243,-1.3554,-1.3571,-1.3571,-1.3571,-1.3571,-1.3511,-1.3511,-1.3216,-1.3103,-1.3103,-1.2789,-1.2482,-1.2182,-1.2182,-1.1747,-1.0933,-1.0933,-1.0667,-1.0148,-0.9964,-0.9901,-0.9964,-1.0338,-0.9888,-0.8994,-0.893,-0.842,-0.7712,-0.9614,-0.9614,-0.9614,-0.9614,-0.9614,-0.9614,-0.9614,-0.9614,-0.9614,-0.9614,-0.9821,-0.9984,-0.9984,-1.0233,-1.0379,-1.0379,-1.0694,-1.0744,-1.0403,-1.0651,-1.0541,-1.0035,-1.0498,-1.0651,-1.0403,-1.0956,-1.12,-1.12,-1.12,-1.1057,-1.0795,-1.0606,-1.0268,0.0,-0.9543,-0.9418,0.0,0.0,-1.0013,-1.0546,-1.0429,0.0,-1.1128,-1.2006,-1.1842,-1.1383,-1.2747,-1.2886,-1.2295,-1.149,-1.1627,0.0,0.0,-1.1261,-1.1913,0.0,-1.1701,-1.1543,0.0,0.0,0.0,-1.2282,0.0,0.0,0.0,-1.2391,-1.2287,0.0,0.0,0.0,0.0,0.0,0.0,0.0,0.0,0.0,0.0,0.0,0.0,0.0,0.0,0.0,-1.0233,-1.0431,-1.081,-1.1256,-1.2216,-1.2872,-1.3245,-1.3408,-1.339,-1.3277,-1.3277,-1.3155,-1.3025,-1.2597,-1.2405,-1.2405,-1.1965,-1.1593,-1.1288,-1.1288,-1.0975,-1.0408,-1.0408,-1.0091,-0.9646,-0.9518,-0.9134,-0.8554,-0.925,-0.8988,-0.8221,-0.8096,-0.7582,-0.6937,-0.9614,-0.9614,-0.9614,-0.9614,-0.9614,-0.9614,-0.9614,-0.9614,-0.9614,-0.9614,-0.9614,-0.9614,-0.9614,-0.9614,-0.9614,-0.9614,-0.9718,-0.9873,0.0,0.0,0.0,-1.0241,-1.0643,-1.0694,-1.0241,-1.0643,-1.0897,-1.0897,-1.0897,-1.0643,-1.0241,-1.0241,0.0,0.0,0.0,0.0,0.0,0.0,0.0,-1.0679,0.0,-1.0094,-1.0639,-1.1441,-1.1435,-1.1182,-1.2846,-1.3271,-1.2886,-1.1593,0.0,-1.1761,-1.0757,-1.0842,0.0,0.0,0.0,0.0,0.0,0.0,0.0,0.0,0.0,-1.2521,0.0,0.0,0.0,0.0,0.0,0.0,0.0,0.0,0.0,0.0,0.0,0.0,0.0,0.0,0.0,0.0,0.0,0.0,0.0,-0.9592,-1.0181,-1.1121,-1.1839,-1.2413,-1.2872,-1.3135,-1.3147,-1.292,-1.292,-1.2797,-1.2482,-1.1905,-1.1643,-1.171,-1.1085,-1.0649,-1.0395,-1.0395,-1.0205,-0.9831,-0.9761,-0.9512,-0.9017,-0.9005,-0.8361,-0.7456,-0.8226,-0.8091,-0.7451,-0.7326,-0.6937,-0.642,-0.9614,-0.9614,-0.9614,-0.9614,-0.9614,-0.9614,-0.9614,-0.9614,-0.9614,-0.9614,-0.9614,-0.9614,0.0,0.0,0.0,0.0,0.0,0.0,-0.9718,0.0,0.0,-0.9718,-0.9769,-0.9769,-0.9666,-0.9769,-0.9769,-0.9769,-0.9769,-0.9769,-0.9666,-0.9666,0.0,0.0,-0.8689,0.0,0.0,0.0,-0.9054,0.0,-0.9562,-1.0154,0.0,-1.1737,-1.1555,-1.1191,-1.2547,-1.3211,-1.3374,0.0,-1.2603,-1.2355,0.0,-1.1494,0.0,0.0,0.0,0.0,0.0,0.0,0.0,0.0,-1.1882,0.0,0.0,0.0,0.0,0.0,0.0,0.0,0.0,0.0,0.0,0.0,0.0,0.0,0.0,0.0,0.0,0.0,0.0,0.0,0.0,-0.8754,-0.9312,-1.0275,-1.0936,-1.1618,-1.248,-1.2603,-1.2605,-1.2552,-1.2552,-1.2544,-1.2482,-1.1488,-1.1131,-1.1358,-1.0335,-0.991,-1.0078,-1.0078,-0.9831,-0.9332,-0.9,-0.8549,-0.8117,-0.7466,-0.7073,-0.7012,-0.7582,-0.7321,-0.6548,-0.6548,-0.6482,-0.642,-0.9614,-0.9614,-0.9614,-0.9614,-0.9614,-0.9614,-0.9614,-0.9614,-0.9614,-0.9614,-0.9614,0.0,0.0,0.0,0.0,0.0,0.0,-0.9984,0.0,0.0,0.0,0.0,0.0,0.0,0.0,-0.9614,-0.9614,-0.9614,-0.9614,-0.9614,-0.9614,-0.9614,0.0,0.0,-0.8994,0.0,-0.9322,0.0,0.0,0.0,0.0,0.0,0.0,-1.0602,-1.1294,-1.1921,-1.2266,-1.2901,-1.3357,0.0,-1.2256,0.0,0.0,0.0,0.0,0.0,0.0,0.0,0.0,0.0,0.0,0.0,0.0,0.0,-1.1963,0.0,-1.1551,0.0,0.0,0.0,0.0,0.0,0.0,0.0,0.0,0.0,0.0,0.0,0.0,0.0,0.0,0.0,0.0,0.0,0.0,0.0,-0.9611,-1.0217,-1.0989,-1.1581,-1.1873,-1.2001,-1.2196,-1.2058,-1.1553,-1.0781,-1.0283,-1.0161,-0.9352,-0.9041,-0.9145,-0.9145,-0.8888,-0.8565,-0.8366,-0.8042,-0.7657,-0.7138,-0.6881,-0.6881,-0.6937,-0.6741,-0.642,-0.642,-0.642,-0.642,-0.9614,0.0,0.0,0.0,0.0,-0.9614,-0.9614,-0.9614,0.0,0.0,0.0,0.0,-0.9614,-0.9614,0.0,0.0,0.0,-0.9769,0.0,0.0,-1.019,0.0,0.0,0.0,0.0,0.0,-0.9614,-0.9614,-0.9614,-0.9614,-0.9614,-0.9614,-0.9465,0.0,0.0,-0.9025,-0.9015,0.0,0.0,-0.9263,-0.9884,-0.9723,-0.9161,-0.9904,-1.0947,-1.202,-1.2097,-1.2597,-1.3049,-1.1977,-1.1985,0.0,-1.1697,0.0,0.0,0.0,0.0,0.0,-1.0324,0.0,0.0,0.0,0.0,0.0,0.0,0.0,0.0,0.0,0.0,0.0,0.0,0.0,0.0,0.0,0.0,0.0,0.0,0.0,0.0,0.0,0.0,0.0,0.0,0.0,0.0,0.0,0.0,-0.9005,-0.9791,-1.0605,-1.113,-1.1383,-1.1744,-1.156,-1.0807,-1.0203,-0.9699,-0.9274,-0.8698,-0.8452,-0.8517,-0.8382,-0.8247,-0.7987,-0.7792,-0.7531,-0.733,-0.6942,-0.6749,-0.6749,-0.6486,-0.642,-0.642,-0.642,-0.642,-0.642,-0.9614,-0.9614,0.0,0.0,0.0,0.0,0.0,0.0,0.0,0.0,0.0,0.0,0.0,0.0,0.0,0.0,0.0,-0.9614,-0.9614,0.0,-0.9614,0.0,0.0,-0.9614,0.0,0.0,0.0,0.0,0.0,-0.9614,-0.9614,-0.9614,-0.9614,0.0,0.0,-0.8827,-0.9707,-0.881,-0.8775,-0.9314,-0.932,-0.9134,-0.8977,0.0,-1.084,-1.1024,-1.2104,0.0,0.0,-1.2496,-1.232,0.0,0.0,0.0,0.0,0.0,0.0,0.0,0.0,0.0,0.0,-1.0308,0.0,0.0,0.0,0.0,-1.0403,0.0,0.0,0.0,0.0,0.0,0.0,0.0,0.0,0.0,0.0,0.0,0.0,0.0,0.0,0.0,0.0,0.0,0.0,0.0,0.0,0.0,-0.9282,-0.9847,-1.0363,-1.0836,-1.1365,-1.1373,-1.0807,-1.0076,-0.9581,-0.9268,-0.8583,-0.8285,-0.8517,-0.8182,-0.7987,-0.7987,-0.7274,-0.6946,-0.6881,-0.6552,-0.642,-0.642,-0.642,-0.642,-0.642,-0.642,-0.642,-0.642,0.0,0.0,0.0,0.0,0.0,0.0,0.0,-0.9936,0.0,0.0,0.0,0.0,0.0,0.0,-0.9848,0.0,0.0,-0.9614,-0.9614,-0.9819,0.0,0.0,0.0,-1.0053,0.0,0.0,0.0,0.0,0.0,0.0,0.0,0.0,0.0,0.0,0.0,-0.9133,0.0,0.0,0.0,0.0,0.0,-0.8426,-0.8248,0.0,0.0,-1.0899,-1.1483,-1.205,0.0,-1.2482,-1.2305,-1.2104,-1.2287,-1.185,-1.1234,-1.1366,-1.0977,0.0,0.0,0.0,-1.0589,-1.0534,0.0,0.0,0.0,0.0,0.0,0.0,0.0,0.0,0.0,0.0,0.0,0.0,0.0,0.0,0.0,0.0,0.0,0.0,0.0,0.0,0.0,0.0,0.0,0.0,0.0,0.0,0.0,-0.8457,-0.9093,-0.9708,-1.0272,-1.0281,-0.9786,-0.9566,-0.9186,-0.877,-0.8495,-0.8431,-0.8517,-0.8182,-0.7852,-0.7657,-0.7138,-0.6749,-0.6552,-0.642,-0.642,-0.642,-0.642,-0.642,-0.642,-0.642,-0.642,-0.6416,-0.9936,0.0,0.0,0.0,0.0,0.0,0.0,0.0,0.0,0.0,-1.0587,0.0,-1.0141,0.0,-0.9972,0.0,-0.9614,-0.9665,-0.9782,-0.998,0.0,-0.9965,-1.0368,0.0,0.0,0.0,0.0,0.0,0.0,-0.9614,0.0,0.0,0.0,0.0,0.0,0.0,0.0,0.0,-0.8932,0.0,0.0,-0.8304,0.0,0.0,-0.9881,-1.0512,0.0,-1.1747,-1.2174,-1.2174,-1.2058,-1.1934,-1.212,-1.1783,-1.1306,-1.1548,-1.1197,-1.0806,-1.1019,-1.0929,0.0,-1.0468,-1.0334,0.0,-0.9717,0.0,0.0,0.0,0.0,0.0,0.0,0.0,0.0,0.0,0.0,0.0,0.0,-0.6079,0.0,0.0,0.0,0.0,0.0,0.0,0.0,0.0,0.0,0.0,0.0,0.0,-0.8407,-0.9098,-0.9662,-0.9773,-0.9274,-0.9274,-0.9022,-0.8517,-0.8517,-0.8447,-0.8317,-0.7982,-0.7657,-0.7265,-0.6876,-0.6618,-0.642,-0.642,-0.642,-0.642,-0.642,-0.642,-0.642,-0.642,-0.642,-0.6416,0.0,0.0,0.0,0.0,-1.0404,0.0,0.0,0.0,-1.0616,0.0,-1.0638,-1.0507,-1.0163,-1.0126,-0.9987,-0.9643,-0.9614,0.0,-1.0053,-1.0089,0.0,0.0,-1.0587,-1.0448,-1.0111,0.0,0.0,0.0,0.0,0.0,0.0,0.0,0.0,0.0,-0.9614,0.0,-0.8732,-0.8959,-0.8765,-0.8269,-0.8651,-0.8898,-0.9015,-0.9463,-0.9701,-0.9897,-1.1126,-1.156,-1.1622,-1.1622,-1.1622,-1.1622,-1.1622,-1.1622,-1.1622,-1.1622,-1.1341,-1.1099,-1.1099,-1.0631,-1.0148,-1.0148,-0.9899,0.0,0.0,0.0,-0.9501,0.0,0.0,0.0,0.0,0.0,0.0,0.0,0.0,0.0,0.0,0.0,0.0,0.0,0.0,0.0,0.0,0.0,0.0,0.0,0.0,0.0,0.0,0.0,-0.8143,-0.8851,-0.9562,-0.9709,-0.9274,-0.9274,-0.9022,-0.8517,-0.8517,-0.8317,-0.7987,-0.7657,-0.7265,-0.6881,-0.6552,-0.642,-0.642,-0.642,-0.642,-0.642,-0.642,-0.642,-0.642,-0.642,-0.642,-0.642,-1.0572,-1.0785,-1.1004,0.0,-1.0858,-1.0667,0.0,0.0,0.0,0.0,-1.1311,-1.1092,-1.0521,-1.0463,-1.0236,-0.9665,-0.9614,0.0,0.0,0.0,0.0,-0.987,-1.0558,-1.0682,-1.0111,-1.0338,0.0,-0.9972,0.0,0.0,-0.9614,0.0,0.0,0.0,0.0,0.0,-0.8719,-0.8795,-0.8762,-0.8724,-0.9035,-0.9307,0.0,0.0,-1.0356,-1.0316,-1.0816,-1.1247,-1.1622,-1.1622,-1.1622,-1.1622,-1.1622,-1.1622,-1.1622,-1.1622,-1.1564,-1.1497,-1.1497,-1.1136,-1.0821,-1.0821,-1.058,-1.0224,0.0,0.0,0.0,0.0,0.0,0.0,0.0,0.0,0.0,0.0,0.0,0.0,0.0,0.0,0.0,-0.6299,0.0,0.0,0.0,0.0,0.0,0.0,0.0,0.0,0.0,0.0,0.0,-0.805,-0.8606,-0.8829,-0.8705,-0.8705,-0.8641,-0.8517,-0.8517,-0.8317,-0.7987,-0.7657,-0.7265,-0.6881,-0.6552,-0.642,-0.642,-0.642,-0.642,-0.642,-0.642,-0.642,-0.642,-0.642,-0.642,-0.642,-1.0799,0.0,0.0,-1.1564,0.0,0.0,-1.126,0.0,0.0,-1.16,-1.1622,0.0,-1.0858,-1.0675,-1.0382,-0.987,-0.9694,0.0,0.0,0.0,0.0,-1.0038,-1.0565,-1.0624,-1.0111,-1.0419,0.0,-0.9892,0.0,0.0,-0.9614,0.0,0.0,0.0,0.0,-0.9295,0.0,-0.8907,-0.897,-0.9101,-0.9556,0.0,0.0,-1.0718,-1.0951,-1.093,-1.1114,-1.131,-1.1622,-1.1622,-1.1622,-1.1622,-1.1622,-1.1622,-1.1622,-1.1622,-1.1622,-1.1622,-1.1622,-1.1387,-1.1077,-1.1077,-1.0653,-1.0136,-0.9742,-0.9552,-0.933,0.0,0.0,0.0,0.0,0.0,0.0,0.0,0.0,0.0,0.0,0.0,0.0,0.0,0.0,0.0,0.0,0.0,0.0,0.0,0.0,0.0,0.0,0.0,0.0,-0.7785,-0.8161,-0.8307,-0.8204,-0.8175,-0.8159,-0.8106,-0.7973,-0.7767,-0.7531,-0.7335,-0.7007,-0.6683,-0.6482,-0.642,-0.642,-0.642,-0.642,-0.642,-0.642,-0.642,-0.642,-0.642,-0.642,-0.642,0.0,0.0,0.0,0.0,0.0,0.0,0.0,-1.1622,0.0,-1.1681,0.0,-1.1497,-1.1114,-1.0785,-1.0455,-1.0126,0.0,-0.9738,-1.0016,-1.0075,-1.0228,-1.0514,-1.0602,-1.0499,-1.017,-1.0485,0.0,0.0,0.0,0.0,0.0,0.0,0.0,0.0,0.0,0.0,0.0,-0.9035,-0.9097,-0.9219,-0.9926,-1.0275,-1.0518,-1.0888,-1.1311,-1.1622,-1.1622,-1.1622,-1.1622,-1.1622,-1.1622,-1.1622,-1.1622,-1.1622,-1.1622,-1.1622,-1.1622,-1.1622,-1.1622,-1.1417,-1.1136,-1.1076,-1.0509,-0.989,-0.9733,-0.9408,-0.8955,-0.8504,-0.8699,-0.8777,0.0,0.0,0.0,0.0,0.0,0.0,0.0,0.0,0.0,0.0,0.0,0.0,0.0,0.0,0.0,0.0,0.0,0.0,0.0,0.0,0.0,-0.7742,-0.8072,-0.811,-0.7844,-0.7762,-0.7694,-0.7641,-0.739,-0.7099,-0.6881,-0.6881,-0.6749,-0.642,-0.642,-0.642,-0.642,-0.642,-0.642,-0.642,-0.635,-0.635,-0.635,-0.6218,-0.6218,-0.6218,0.0,0.0,0.0,0.0,0.0,-1.1428,-1.156,-1.1622,-1.1655,-1.1919,-1.1721,-1.1497,-1.1114,-1.0785,-1.0455,-1.0126,-0.9797,0.0,0.0,0.0,0.0,-1.0185,-1.0704,-1.0836,-1.0514,-1.0821,-1.0667,0.0,0.0,0.0,0.0,0.0,0.0,0.0,0.0,0.0,-0.8724,-0.8601,0.0,-0.8967,-0.9355,-0.9964,-1.0725,-1.085,-1.1135,-1.1622,-1.1622,-1.1622,-1.1622,-1.1622,-1.1622,-1.1622,-1.1622,-1.1622,-1.1622,-1.1622,-1.1622,-1.1622,-1.1622,-1.1586,-1.141,-1.0975,-1.0746,-1.0334,-0.9297,-0.9172,-0.9074,-0.8371,-0.8436,-0.8576,-0.8611,0.0,0.0,0.0,0.0,0.0,0.0,0.0,0.0,0.0,0.0,0.0,0.0,0.0,0.0,0.0,0.0,0.0,0.0,0.0,0.0,0.0,-0.7925,0.0,0.0,0.0,-0.7926,-0.7926,-0.7603,-0.7233,-0.6881,-0.6881,-0.6749,-0.642,-0.642,-0.642,-0.642,-0.642,-0.642,-0.6354,-0.5885,-0.6017,-0.6284,-0.5415,-0.5216,-0.5352,0.0,0.0,0.0,0.0,0.0,0.0,0.0,-1.167,0.0,-1.1772,-1.1655,-1.1564,-1.1402,-1.088,-1.0521,-1.0368,-0.9899,-0.9687,-0.9855,-1.0009,-1.0177,-1.0346,-1.0814,0.0,-1.0843,-1.1158,-1.1092,-1.0602,0.0,0.0,0.0,0.0,0.0,0.0,0.0,-0.9456,0.0,0.0,0.0,-0.9474,-0.992,-1.0358,-1.0807,-1.1122,-1.1373,-1.1622,-1.1622,-1.1435,-1.1247,-1.1498,-1.1622,-1.1622,-1.1622,-1.1622,-1.1622,-1.1622,-1.1622,-1.1622,-1.1622,-1.1622,-1.1498,-1.0933,-1.0604,-1.0186,-0.9304,-0.8995,-0.8796,-0.8424,-0.8431,-0.85,-0.8505,-0.8319,0.0,0.0,0.0,0.0,0.0,0.0,0.0,0.0,0.0,0.0,0.0,0.0,0.0,0.0,0.0,0.0,0.0,0.0,0.0,0.0,0.0,0.0,-0.779,0.0,-0.7631,-0.7228,-0.7133,-0.6916,-0.654,-0.6637,-0.6552,-0.642,-0.642,-0.642,-0.635,-0.6083,-0.6017,-0.5951,-0.5415,-0.5348,-0.5481,-0.5014,-0.4749,-0.4686,0.0,-1.0678,0.0,0.0,-1.156,0.0,-1.1897,-1.1721,-1.1645,-1.1655,-1.1667,-1.1622,-1.1622,-1.1041,-1.0697,-1.0697,-1.0155,-0.9929,-1.0185,-1.0272,-1.0419,-1.0682,-1.107,-1.1216,-1.1077,-1.1524,-1.1502,0.0,0.0,0.0,0.0,0.0,0.0,0.0,0.0,0.0,0.0,0.0,-0.9999,-0.997,-1.0421,-1.0674,-1.087,-1.1247,-1.1498,-1.1622,-1.1622,-1.1247,-1.087,-1.131,-1.1435,-1.1435,-1.156,-1.1622,-1.1622,-1.1622,-1.1622,-1.1622,-1.1622,-1.1498,-1.131,-1.0737,-1.0218,-0.9709,-0.921,-0.8835,-0.8517,-0.8517,-0.8517,-0.8458,-0.8321,-0.8245,0.0,0.0,0.0,0.0,0.0,0.0,0.0,0.0,0.0,0.0,0.0,0.0,0.0,0.0,0.0,0.0,0.0,0.0,0.0,0.0,0.0,-0.7544,-0.7354,0.0,-0.7191,-0.6556,-0.663,-0.6523,-0.6273,-0.6355,-0.635,-0.6218,-0.6218,-0.6152,-0.6017,-0.5617,-0.5415,-0.5348,-0.4818,-0.4683,-0.4749,-0.455,-0.4353,-0.409,0.0,0.0,0.0,0.0,0.0,0.0,-1.1604,-1.1645,-1.1663,-1.1955,-1.1736,-1.1622,-1.1622,-1.1238,-1.1026,-1.1026,-1.0704,-1.0514,-1.0536,-1.0821,-1.0997,-1.1026,-1.1619,-1.167,-1.1085,-1.197,-1.1838,0.0,0.0,0.0,0.0,0.0,0.0,0.0,0.0,0.0,0.0,-1.054,-1.0425,-1.0021,-1.0021,-1.0345,-1.0807,-1.087,-1.1185,-1.1622,-1.1622,-1.1247,-1.0807,-1.087,-1.0863,-1.0933,-1.1435,-1.1622,-1.1622,-1.1622,-1.1622,-1.1622,-1.1622,-1.1247,-1.0737,-1.0218,-0.9709,-0.921,-0.8705,-0.8517,-0.8517,-0.8517,-0.8517,-0.8511,-0.8484,-0.8296,-0.8131,0.0,0.0,0.0,0.0,0.0,0.0,0.0,0.0,0.0,0.0,-0.7209,0.0,0.0,0.0,0.0,0.0,0.0,0.0,-0.7415,-0.7198,-0.7165,-0.7284,-0.6974,-0.6786,-0.6867,-0.6572,-0.6392,-0.6392,-0.6412,-0.6148,-0.5683,-0.5683,-0.5415,-0.4948,-0.4882,-0.4882,-0.4815,-0.4289,-0.4356,-0.4683,-0.3689,-0.3424,-0.3433,0.0,0.0,0.0,0.0,0.0,0.0,0.0,-1.2014,-1.2043,-1.178,-1.1641,-1.1622,-1.1622,-1.1328,-1.1077,-1.1077,-1.0777,-1.0667,-1.0865,-1.1004,-1.1165,-1.1417,-1.1984,-1.2204,-1.1948,-1.2321,-1.227,0.0,0.0,0.0,0.0,0.0,0.0,0.0,0.0,-1.1262,-1.1084,-1.1101,-1.085,-1.0524,-1.0745,-1.0766,-1.087,-1.1185,-1.1435,-1.1622,-1.1622,-1.1045,-1.0345,-1.0674,-1.0604,-1.0345,-1.0598,-1.0661,-1.0661,-1.0661,-1.0661,-1.0661,-1.0661,-1.0471,-1.0218,-0.9709,-0.946,-0.9145,-0.8641,-0.8517,-0.8517,-0.8517,-0.8517,-0.8517,-0.8517,-0.8436,-0.8291,-0.8048,0.0,0.0,0.0,0.0,0.0,0.0,0.0,0.0,0.0,0.0,0.0,0.0,0.0,0.0,0.0,0.0,0.0,-0.7592,0.0,-0.6856,-0.7012,-0.7173,-0.6818,-0.6029,-0.6137,-0.6061,-0.5807,-0.5485,-0.527,-0.5147,-0.5147,-0.5014,-0.4749,-0.4422,-0.4289,-0.4289,-0.3758,-0.3625,-0.3763,-0.3423,-0.3237,-0.2979,-1.1145,0.0,-1.1869,0.0,-1.2365,-1.2445,-1.2211,-1.2372,-1.2321,-1.1772,-1.1699,-1.1663,-1.1637,-1.1417,-1.1277,-1.1277,-1.1004,-1.0975,-1.1202,-1.1277,-1.1319,-1.1615,-1.2087,0.0,-1.2241,-1.2423,-1.2431,-1.2241,-1.1875,0.0,0.0,0.0,0.0,0.0,-1.1838,-1.1984,-1.1887,-1.1843,-1.1661,-1.1403,-1.1441,-1.1388,-1.1178,-1.1471,-1.1622,-1.1622,-1.1622,-1.0982,-1.0281,-1.0478,-1.0218,-0.9831,-0.9958,-1.0015,-1.0015,-1.0015,-1.0015,-1.0015,-1.0015,-0.9894,-0.9709,-0.9396,-0.921,-0.8958,-0.8576,-0.8517,-0.8517,-0.8517,-0.8517,-0.8517,-0.8517,-0.8517,-0.8431,-0.8251,0.0,0.0,0.0,0.0,0.0,0.0,0.0,-0.7284,-0.6738,0.0,0.0,0.0,0.0,0.0,0.0,0.0,0.0,0.0,0.0,0.0,-0.6361,-0.6622,-0.6241,-0.541,-0.5583,-0.5513,-0.5199,-0.4748,-0.4537,-0.4553,-0.442,-0.4353,-0.4287,-0.3892,-0.3761,-0.3763,-0.3391,-0.325,-0.3242,-0.336,-0.3244,-0.2963,-1.1646,-1.1775,-1.1948,-1.2393,-1.2519,-1.2519,-1.2519,-1.2519,-1.2401,-1.2072,-1.2028,-1.1911,-1.1659,-1.1622,-1.1622,-1.1622,-1.1615,-1.1615,-1.1615,-1.1622,-1.1622,0.0,0.0,-1.1889,-1.1645,-1.2197,-1.2211,-1.1637,0.0,0.0,-1.0602,0.0,-1.1582,-1.2519,-1.2848,-1.2819,-1.2541,-1.2862,-1.2811,-1.2429,-1.2102,-1.1971,-1.1927,-1.1677,-1.1622,-1.1622,-1.1622,-1.1247,-1.0737,-1.0212,-0.9709,-0.9396,-0.9831,-1.0015,-1.0015,-1.0015,-1.0015,-1.0015,-1.0015,-0.9646,-0.9338,-0.9274,-0.8894,-0.8517,-0.8517,-0.8517,-0.8517,-0.8517,-0.8517,-0.8517,-0.8517,-0.8517,-0.8431,-0.8251,0.0,0.0,0.0,0.0,0.0,0.0,-0.67,-0.6684,-0.6592,0.0,0.0,0.0,0.0,0.0,0.0,0.0,0.0,-0.5706,-0.521,0.0,-0.5321,-0.4847,-0.481,-0.5084,-0.4882,-0.4812,-0.4812,-0.4223,-0.4028,-0.3961,-0.3426,-0.3226,-0.3226,-0.3226,-0.3226,-0.3236,-0.3328,-0.3307,-0.3248,-0.3432,-0.3442,-0.3319,-1.1819,-1.2327,-1.2662,-1.2833,-1.3038,-1.3111,-1.2884,-1.2855,-1.2738,-1.2409,-1.2175,-1.1992,-1.1897,-1.1692,-1.1622,0.0,-1.1622,-1.1622,0.0,-1.1622,-1.1622,-1.1622,-1.1867,-1.1984,-1.1882,-1.2087,-1.2087,-1.1882,0.0,0.0,0.0,-1.1911,-1.2226,-1.2533,-1.2862,-1.2826,-1.2541,-1.287,-1.2819,-1.2533,-1.265,-1.2431,-1.1956,-1.1926,-1.175,-1.1622,-1.1622,-1.1247,-1.0737,-1.0148,-0.9709,-0.9274,-0.9017,-0.8952,-0.8952,-0.8952,-0.8952,-0.8952,-0.8952,-0.8894,-0.8765,-0.8765,-0.8641,-0.8517,-0.8517,-0.8517,-0.8517,-0.8517,-0.8517,-0.8517,-0.8517,-0.8517,-0.8431,-0.8251,-0.7711,0.0,0.0,0.0,0.0,0.0,-0.607,-0.6013,0.0,-0.5635,0.0,0.0,0.0,0.0,0.0,0.0,0.0,0.0,-0.5079,0.0,-0.4942,-0.5041,-0.4833,-0.4359,-0.4208,-0.3973,-0.3651,-0.3529,-0.3426,-0.3426,-0.3293,-0.3226,-0.3226,-0.3226,-0.3262,-0.3316,-0.3283,-0.3328,-0.342,-0.3479,-0.3518,-0.3487,-1.2102,-1.2548,-1.2899,-1.3148,-1.336,-1.3426,-1.3221,-1.3192,-1.3031,-1.2577,-1.2343,-1.2123,-1.1882,-1.1677,0.0,-1.1622,-1.167,-1.1736,-1.1736,-1.1736,-1.1794,-1.1919,-1.1992,-1.2094,-1.2211,-1.2219,0.0,-1.2219,-1.1897,-1.1838,-1.1971,-1.2241,-1.2401,-1.2533,-1.2738,-1.2782,-1.2716,-1.2921,-1.2958,-1.2892,-1.298,-1.2694,-1.2219,-1.2219,-1.1941,-1.1659,-1.1831,-1.1574,-1.101,-1.0604,-1.0053,-0.946,-0.8958,-0.8641,-0.8517,-0.8517,-0.8517,-0.8517,-0.8517,-0.8517,-0.8517,-0.8517,-0.8517,-0.8517,-0.8517,-0.8517,-0.8517,-0.8517,-0.8517,-0.8517,-0.8517,-0.8517,-0.8463,-0.8312,-0.7629,-0.6948,-0.6555,0.0,0.0,0.0,0.0,0.0,0.0,-0.5115,-0.504,0.0,0.0,0.0,0.0,0.0,0.0,-0.5102,-0.4464,-0.4151,-0.4352,-0.4467,-0.4299,-0.3828,-0.3694,-0.3468,-0.3144,-0.3201,-0.3226,-0.3226,-0.3226,-0.3226,-0.3226,-0.3226,-0.3281,-0.3362,-0.3338,-0.3399,-0.3507,-0.3352,-0.3387,-0.3262,-1.2298,-1.2436,-1.2655,0.0,-1.3477,0.0,-1.3492,-1.3477,-1.325,-1.2665,-1.2548,-1.2299,-1.1792,-1.1703,-1.1626,-1.1626,0.0,0.0,0.0,-1.1999,-1.2138,-1.2438,-1.2167,-1.2145,-1.2445,-1.2475,-1.2497,-1.2519,-1.2219,-1.208,-1.2036,-1.2036,-1.2262,-1.2555,-1.2555,-1.2716,-1.298,-1.3001,-1.3184,-1.344,-1.3155,-1.2848,-1.2555,-1.2555,-1.2167,-1.177,-1.2306,-1.2138,-1.1607,-1.1393,-1.0763,-0.9951,-0.9514,-0.9009,-0.8554,-0.8522,-0.8517,-0.8517,-0.8517,-0.8517,-0.8517,-0.8533,-0.8554,-0.8565,-0.8565,-0.8565,-0.856,-0.8544,-0.8538,-0.8533,-0.8517,-0.8517,-0.8511,-0.8447,-0.7256,-0.6335,-0.6152,0.0,0.0,0.0,0.0,0.0,-0.4761,-0.4738,-0.4491,0.0,0.0,0.0,0.0,0.0,-0.4206,-0.3722,-0.3534,-0.3458,-0.362,-0.3425,-0.3342,-0.3498,-0.3295,-0.3226,-0.3226,-0.3226,-0.3226,-0.3226,-0.3226,-0.3226,-0.3226,-0.3226,-0.3285,-0.3381,-0.346,-0.3501,-0.3465,-0.3237,-0.3091,-0.2968,0.0,0.0,-1.2438,-1.2848,-1.3114,-1.3346,-1.3499,-1.3287,-1.3155,-1.325,-1.2833,-1.2555,-1.2658,-1.2445,-1.2292,-1.2292,-1.1911,-1.167,-1.167,-1.167,-1.1706,-1.1787,-1.1714,-1.1706,-1.1787,-1.2028,-1.227,-1.2519,-1.2445,-1.2533,-1.2775,-1.2775,-1.2819,-1.2892,-1.2892,-1.2797,-1.265,-1.2899,-1.3053,-1.314,-1.3309,-1.3184,-1.2892,-1.2892,-1.2643,-1.2314,-1.2467,-1.2423,-1.224,-1.185,-1.1215,-1.0609,-1.006,-0.9514,-0.8969,-0.8619,-0.8517,-0.8517,-0.8517,-0.8517,-0.856,-0.8737,-0.8915,-0.9039,-0.9039,-0.9039,-0.899,-0.8818,-0.8781,-0.8727,-0.8549,-0.8517,-0.8317,-0.7787,-0.6994,-0.6144,-0.553,-0.4714,0.0,0.0,-0.429,-0.4333,-0.4401,-0.4318,-0.4198,0.0,0.0,0.0,-0.3979,-0.3931,-0.3946,-0.3951,-0.3624,-0.3506,-0.3529,-0.3462,-0.3407,-0.3295,-0.3226,-0.3226,-0.3226,-0.3226,-0.3226,-0.3226,-0.3226,-0.3226,-0.3226,-0.3226,-0.3322,-0.3462,-0.3416,-0.3522,-0.3697,-0.3516,-0.3536,-0.3501,-1.1588,-1.1966,-1.2305,-1.2553,-1.2841,-1.3078,-1.3067,-1.2899,-1.2797,-1.2826,-1.265,-1.2533,-1.2562,-1.2541,-1.2519,-1.2519,-1.2336,-1.2226,-1.2226,-1.208,-1.2065,-1.2219,-1.1941,-1.1845,-1.1999,-1.2167,-1.227,-1.2299,-1.2299,-1.2387,-1.2562,-1.2562,-1.2562,-1.257,-1.2716,-1.2687,-1.2541,-1.287,-1.3097,-1.325,-1.3426,-1.3301,-1.3023,-1.3177,-1.2936,-1.2562,-1.2855,-1.2775,-1.2473,-1.2351,-1.1895,-1.1224,-1.0667,-1.0037,-0.95,-0.8972,-0.8829,-0.8829,-0.8829,-0.8829,-0.8861,-0.8985,-0.9114,-0.9206,-0.9206,-0.9206,-0.9168,-0.9044,-0.9017,-0.8947,-0.8716,-0.8673,-0.8438,-0.7606,-0.685,-0.6049,-0.5332,-0.4562,0.0,-0.4118,-0.4167,-0.4227,-0.4295,-0.424,-0.42,-0.42,-0.4151,0.0,-0.4102,-0.3911,-0.3818,-0.3823,-0.3538,-0.3362,-0.3362,-0.3362,-0.3295,-0.3226,-0.3226,-0.3226,-0.3226,-0.3226,-0.3226,-0.3226,-0.3226,-0.3226,-0.323,-0.3273,-0.3373,-0.3499,-0.3487,-0.3597,-0.3759,-0.3477,-0.3413,-0.3374,-1.133,-1.1762,-1.2116,-1.2183,-1.2579,-1.2771,-1.2562,-1.2519,-1.2423,-1.208,-1.2394,-1.2489,-1.2211,-1.2475,-1.2665,-1.2665,-1.2921,-1.3038,-1.2943,-1.2672,-1.2643,-1.2921,-1.2358,-1.2189,-1.2511,-1.257,-1.246,-1.2182,-1.2182,-1.216,-1.2109,-1.216,-1.2182,-1.2197,-1.2519,-1.2665,-1.2687,-1.2965,-1.3243,-1.3492,-1.3492,-1.3331,-1.3111,-1.3389,-1.3148,-1.2738,-1.3294,-1.314,-1.2709,-1.2987,-1.255,-1.1847,-1.1216,-1.0651,-1.0084,-0.945,-0.9314,-0.9297,-0.9222,-0.9233,-0.926,-0.926,-0.9287,-0.9314,-0.9314,-0.9314,-0.9303,-0.9265,-0.9233,-0.9136,-0.8904,-0.8834,-0.8527,-0.7442,-0.6676,-0.5931,-0.5101,0.0,-0.4118,-0.4118,-0.4227,-0.43,-0.43,-0.4317,-0.4319,-0.4303,-0.4221,-0.42,-0.427,-0.3994,-0.3749,-0.3608,-0.3379,-0.3228,-0.3226,-0.3226,-0.3226,-0.3226,-0.3226,-0.3226,-0.3226,-0.3226,-0.3234,-0.3246,-0.3232,-0.3242,-0.3273,-0.3338,-0.3426,-0.3526,-0.3597,-0.3681,-0.3765,-0.3374,-0.3217,-0.3141,-1.0862,-1.118,-1.1452,-1.1584,-1.191,-1.2237,-1.2465,-1.2519,-1.2504,-1.2453,-1.2731,-1.2914,-1.2862,-1.3148,-1.3345,-1.3345,-1.3389,-1.3184,-1.2636,-1.2548,-1.2548,-1.2592,-1.2241,-1.2189,-1.2511,-1.2797,-1.2906,-1.2855,-1.2855,-1.2716,-1.2453,-1.2731,-1.2855,-1.287,-1.3199,-1.3345,-1.3353,-1.3397,-1.3448,-1.3492,-1.3492,-1.347,-1.3426,-1.3477,-1.3433,-1.336,-1.3455,-1.3433,-1.3353,-1.3404,-1.3013,-1.239,-1.1799,-1.1138,-1.0547,-0.9952,-0.9809,-0.9717,-0.9314,-0.9362,-0.9523,-0.9523,-0.9669,-0.9809,-0.9809,-0.9809,-0.9755,-0.9561,-0.9351,-0.9136,-0.8904,-0.87,-0.8096,-0.6646,-0.627,-0.57,-0.4282,0.0,-0.4118,-0.4118,-0.4227,-0.43,-0.43,-0.4387,-0.4404,-0.4308,-0.4371,-0.4336,-0.4156,-0.4025,-0.3893,-0.3798,-0.3577,-0.3362,-0.3226,-0.3226,-0.3226,-0.3226,-0.3226,-0.3226,-0.3226,-0.3226,-0.3269,-0.3338,-0.326,-0.3316,-0.3452,-0.3389,-0.3458,-0.3607,-0.362,-0.3681,-0.3763,-0.3684,-0.3686,-0.3606,-1.0681,-1.0982,-1.1269,-1.1297,-1.1593,-1.1874,-1.1833,-1.1869,-1.1869,-1.1869,-1.2085,-1.2212,-1.2354,-1.2726,-1.3021,-1.3093,-1.3245,-1.3216,-1.3067,-1.2884,-1.2782,-1.2782,-1.2475,-1.2365,-1.2519,-1.2665,-1.2745,-1.2745,-1.2745,-1.276,-1.2782,-1.2943,-1.3009,-1.3023,-1.3353,-1.3397,-1.3243,-1.3418,-1.3492,-1.3492,-1.3492,-1.3492,-1.3492,-1.3492,-1.3492,-1.3492,-1.3492,-1.3492,-1.3492,-1.3492,-1.3346,-1.2973,-1.2378,-1.2003,-1.1558,-1.0663,-1.0143,-0.9873,-0.9653,-0.9674,-0.9766,-0.9766,-0.9841,-0.9922,-0.9922,-0.9922,-0.989,-0.9782,-0.9669,-0.9518,-0.9292,-0.9157,-0.8548,-0.68,-0.6473,0.0,-0.433,-0.4181,-0.4238,-0.43,-0.4417,-0.4463,-0.4398,-0.4439,-0.4423,-0.4308,-0.4406,-0.4423,-0.4314,-0.4292,-0.4162,-0.4043,-0.3701,-0.3455,-0.3301,-0.325,-0.3252,-0.3299,-0.325,-0.3252,-0.3301,-0.3301,-0.335,-0.3436,-0.3393,-0.3422,-0.3499,-0.3503,-0.3552,-0.3632,-0.3681,-0.3726,-0.3763,-0.3763,-0.3763,-0.3763,-1.0624,-1.087,-1.1081,-1.1038,-1.1319,-1.1525,-1.1283,-1.124,-1.124,-1.124,-1.1389,-1.1579,-1.1717,-1.2147,-1.248,-1.262,-1.2771,-1.3006,-1.323,-1.2933,-1.2895,-1.3111,-1.2884,-1.2716,-1.2636,-1.2709,-1.2709,-1.2636,-1.2636,-1.2723,-1.2899,-1.2972,-1.3009,-1.3023,-1.3353,-1.336,-1.314,-1.3389,-1.3492,-1.3492,-1.3492,-1.3492,-1.3492,-1.3492,-1.3492,-1.3492,-1.3492,-1.3419,-1.3273,-1.3273,-1.32,-1.2973,-1.2378,-1.215,-1.2003,-1.0887,-1.0293,-0.9922,-0.9922,-0.9922,-0.9922,-0.9922,-0.9922,-0.9922,-0.9922,-0.9922,-0.9922,-0.9922,-0.9879,-0.9787,-0.961,-0.9384,-0.8704,-0.7074,0.0,-0.587,-0.454,-0.4341,-0.4382,-0.4499,-0.4665,-0.4687,-0.4523,-0.4539,-0.4507,-0.439,-0.449,-0.4542,-0.4512,-0.4515,-0.4362,-0.406,-0.3685,-0.3476,-0.3432,-0.3273,-0.3273,-0.3432,-0.3291,-0.3307,-0.3395,-0.3395,-0.3444,-0.3528,-0.3507,-0.3524,-0.3565,-0.3607,-0.3638,-0.3665,-0.3736,-0.3763,-0.3763,-0.3763,-0.3763,-0.3763,-1.0624,-1.0638,-1.0708,-1.0807,-1.0821,-1.0954,-1.1066,-1.1122,-1.1122,-1.1122,-1.1325,-1.1514,-1.1514,-1.1815,-1.2018,-1.2079,-1.2107,-1.2241,-1.253,-1.2255,-1.2479,-1.3433,-1.3433,-1.3279,-1.298,-1.3265,-1.3272,-1.2972,-1.2972,-1.2833,-1.2562,-1.2862,-1.3009,-1.3023,-1.3353,-1.3484,-1.3462,-1.3484,-1.3492,-1.3492,-1.3492,-1.3492,-1.3492,-1.3492,-1.3492,-1.3492,-1.3492,-1.3119,-1.2673,-1.2673,-1.2298,-1.1706,-1.1111,-1.0962,-1.0812,-1.0143,-0.9922,-0.9922,-0.9922,-0.9922,-0.9922,-0.9922,-0.9922,-0.9922,-0.9922,-0.9922,-0.9922,-0.9922,-0.975,-0.9599,-0.9583,-0.8811,-0.7817,-0.6919,0.0,0.0,-0.4593,-0.4458,-0.4501,-0.4695,-0.472,-0.472,-0.4712,-0.4741,-0.4757,-0.4706,-0.4738,-0.476,-0.4718,-0.4426,-0.4092,-0.3639,-0.3546,-0.3476,-0.3432,-0.3273,-0.3273,-0.3434,-0.3356,-0.3401,-0.3489,-0.3489,-0.3536,-0.3612,-0.3534,-0.3593,-0.3738,-0.3658,-0.3677,-0.3754,-0.3761,-0.3763,-0.3763,-0.3763,-0.3763,-0.3763,-1.0624,-1.0624,-1.0624,-1.0807,-1.0807,-1.0807,-1.087,-1.0933,-1.0933,-1.0933,-1.0903,-1.0978,-1.1035,-1.1245,-1.143,-1.1563,-1.1729,-1.1888,-1.2151,-1.2046,-1.2241,-1.2813,-1.3165,-1.3215,-1.3165,-1.3353,-1.3433,-1.3309,-1.3309,-1.3171,-1.2913,-1.3179,-1.3237,-1.3172,-1.3368,-1.3492,-1.3492,-1.3492,-1.3492,-1.3492,-1.3492,-1.3492,-1.3492,-1.3492,-1.3492,-1.3492,-1.3492,-1.3346,-1.3119,-1.2753,-1.2452,-1.215,-1.1558,-1.1335,-1.126,-1.0663,-1.0218,-0.9922,-0.9922,-0.9922,-0.9922,-0.9922,-0.9922,-0.9922,-0.9922,-0.9922,-0.9922,-0.9922,-0.9852,-0.9787,-0.9787,-0.949,-0.869,-0.7326,0.0,-0.614,-0.484,-0.4694,-0.4741,-0.4863,-0.4879,-0.4849,-0.4773,-0.4809,-0.4784,-0.4734,-0.4765,-0.4814,-0.4768,-0.4543,-0.4227,-0.3818,-0.3726,-0.3624,-0.3448,-0.3413,-0.344,-0.3526,-0.3473,-0.3493,-0.3577,-0.3577,-0.3628,-0.371,-0.3677,-0.3701,-0.3761,-0.3726,-0.3732,-0.3763,-0.3763,-0.3763,-0.3763,-0.3763,-0.3763,-0.3763,-1.0624,-1.0624,-1.0624,-1.0744,-1.0744,-1.0744,-1.0744,-1.0744,-1.0744,-1.0744,-1.0698,-1.0759,-1.088,-1.1021,-1.1196,-1.1329,-1.1512,-1.1744,-1.1978,-1.2075,-1.2249,-1.2509,-1.2884,-1.3119,-1.3119,-1.3273,-1.3346,-1.3419,-1.3346,-1.3346,-1.3273,-1.3346,-1.3346,-1.3273,-1.3419,-1.3492,-1.3419,-1.3492,-1.3492,-1.3419,-1.3492,-1.3492,-1.3492,-1.3492,-1.3492,-1.3492,-1.3492,-1.3346,-1.3127,-1.2746,-1.2378,-1.1929,-1.1558,-1.126,-1.1037,-1.0663,-1.0218,-0.9922,-0.9922,-0.9922,-0.9922,-0.9922,-0.9922,-0.9922,-0.9922,-0.9922,-0.9922,-0.9922,-0.9922,-0.9922,-0.9922,-0.969,-0.903,-0.7609,-0.7139,-0.6468,-0.5042,-0.4893,-0.4923,-0.5007,-0.5018,-0.4985,-0.4901,-0.4893,-0.4857,-0.4773,-0.4844,-0.4814,-0.4738,-0.4584,-0.4263,-0.3931,-0.3821,-0.3715,-0.354,-0.3514,-0.3542,-0.3624,-0.3567,-0.3585,-0.3669,-0.3669,-0.3703,-0.3763,-0.3763,-0.3763,-0.3763,-0.3763,-0.3763,-0.3763,-0.3763,-0.3763,-0.3763,-0.3763,-0.3763,-0.3763,-1.0624,-1.0624,-1.0624,-1.0624,-1.0624,-1.0624,-1.0624,-1.0624,-1.0624,-1.0624,-1.0815,-1.0995,-1.0995,-1.1249,-1.1423,-1.1423,-1.1423,-1.155,-1.1844,-1.2138,-1.239,-1.2459,-1.2732,-1.29,-1.29,-1.29,-1.2973,-1.32,-1.2973,-1.3119,-1.3492,-1.3273,-1.3273,-1.3492,-1.3492,-1.3419,-1.32,-1.3419,-1.3346,-1.3193,-1.3419,-1.3492,-1.3492,-1.3492,-1.3492,-1.3492,-1.3492,-1.3119,-1.2599,-1.2599,-1.1781,-1.0812,-1.0812,-1.0368,-0.9922,-0.9922,-0.9922,-0.9922,-0.9922,-0.9922,-0.9922,-0.9922,-0.9922,-0.9922,-0.9922,-0.9922,-0.9922,-0.9922,-0.9922,-0.9922,-0.9922,-0.9236,-0.847,-0.7617,-0.6777,-0.5938,-0.5093,-0.5018,-0.5018,-0.5018,-0.5018,-0.5018,-0.5018,-0.5018,-0.5018,-0.5018,-0.5018,-0.4937,-0.4698,-0.454,-0.426,-0.3936,-0.3872,-0.372,-0.3628,-0.3544,-0.3544,-0.3628,-0.3628,-0.3675,-0.3763,-0.3763,-0.3763,-0.3763,-0.3763,-0.3763,-0.3763,-0.3763,-0.3763,-0.3763,-0.3763,-0.3763,-0.3763,-0.3763,-0.3763,-0.3763,-1.0624,-1.0624,-1.0624,-1.0624,-1.0624,-1.0624,-1.0624,-1.0624,-1.0624,-1.0624,-1.0815,-1.0995,-1.0995,-1.1249,-1.1423,-1.1423,-1.1423,-1.1463,-1.155,-1.183,-1.2029,-1.209,-1.2442,-1.2673,-1.2673,-1.282,-1.29,-1.2973,-1.29,-1.29,-1.29,-1.2973,-1.2973,-1.29,-1.3046,-1.3119,-1.32,-1.3273,-1.3346,-1.3419,-1.3499,-1.3492,-1.3492,-1.3492,-1.3492,-1.3492,-1.3492,-1.3346,-1.3193,-1.2746,-1.2305,-1.1706,-1.0887,-1.0293,-0.9922,-0.9922,-0.9922,-0.9922,-0.9922,-0.9922,-0.9922,-0.9922,-0.9922,-0.9922,-0.9922,-0.9922,-0.9922,-0.9922,-0.9922,-0.9922,-0.9922,-0.9284,-0.8558,-0.7638,-0.6872,-0.6086,-0.5214,-0.5067,-0.5048,-0.5127,-0.5064,-0.5018,-0.5018,-0.5089,-0.5135,-0.5135,-0.4981,-0.4673,-0.4134,-0.4194,-0.4064,-0.3801,-0.3826,-0.375,-0.3722,-0.3697,-0.3697,-0.3722,-0.3722,-0.3736,-0.3763,-0.3763,-0.3763,-0.3763,-0.3763,-0.3763,-0.3763,-0.3763,-0.3763,-0.3763,-0.3763,-0.3763,-0.3763,-0.3763,-0.3722,-0.3667,-1.0728,-1.0822,-1.0902,-1.0902,-1.0808,-1.0768,-1.0882,-1.0808,-1.0775,-1.0889,-1.1156,-1.1343,-1.1343,-1.1597,-1.177,-1.177,-1.177,-1.177,-1.177,-1.2051,-1.2164,-1.2044,-1.2472,-1.2648,-1.2452,-1.2483,-1.2629,-1.2746,-1.2673,-1.2618,-1.2573,-1.2691,-1.2684,-1.258,-1.2771,-1.29,-1.2973,-1.3046,-1.3119,-1.3127,-1.32,-1.3346,-1.3346,-1.3273,-1.3346,-1.3346,-1.3273,-1.3273,-1.32,-1.2826,-1.2526,-1.2077,-1.0887,-1.0368,-1.0218,-0.9997,-0.9922,-0.9922,-0.9922,-0.9922,-0.9922,-0.9922,-0.9922,-0.9922,-0.9922,-0.9922,-0.9949,-1.0046,-1.0067,-1.0067,-1.0067,-0.9473,-0.8722,-0.7658,-0.6917,-0.6131,-0.5203,-0.5061,-0.5042,-0.511,-0.5059,-0.5018,-0.5018,-0.508,-0.5099,-0.4972,-0.4693,-0.4402,-0.4089,-0.4065,-0.396,-0.3919,-0.3841,-0.3763,-0.3763,-0.3728,-0.3728,-0.3763,-0.3763,-0.3763,-0.3763,-0.3763,-0.3763,-0.3763,-0.3763,-0.3763,-0.3761,-0.3724,-0.373,-0.3761,-0.3724,-0.3732,-0.3759,-0.3722,-0.3673,-0.362,-1.1035,-1.1223,-1.1403,-1.1456,-1.1223,-1.1129,-1.1416,-1.1243,-1.1156,-1.1396,-1.1683,-1.187,-1.187,-1.2131,-1.2305,-1.2305,-1.2305,-1.2305,-1.2305,-1.2559,-1.2585,-1.2311,-1.2538,-1.2552,-1.2305,-1.2044,-1.2182,-1.2599,-1.2378,-1.2383,-1.2487,-1.2549,-1.2528,-1.2501,-1.2774,-1.2746,-1.2599,-1.282,-1.2746,-1.2673,-1.282,-1.3046,-1.3127,-1.2973,-1.3046,-1.3127,-1.2973,-1.29,-1.29,-1.29,-1.2599,-1.2077,-1.0962,-1.0651,-1.064,-1.0062,-0.9906,-0.99,-0.9943,-0.9954,-0.996,-0.9981,-0.9981,-0.9976,-0.996,-0.997,-1.0046,-1.025,-1.0293,-1.0288,-1.0266,-0.9572,-0.8698,-0.77,-0.6871,-0.5981,-0.5143,-0.5048,-0.5048,-0.5048,-0.5037,-0.5037,-0.5048,-0.5059,-0.4935,-0.466,-0.4343,-0.4182,-0.4261,-0.4042,-0.3932,-0.4088,-0.3934,-0.3771,-0.3763,-0.3679,-0.3679,-0.3763,-0.3748,-0.3748,-0.3763,-0.3754,-0.3756,-0.3763,-0.3754,-0.375,-0.3744,-0.3652,-0.3669,-0.3742,-0.3658,-0.3601,-0.3663,-0.3581,-0.3465,-0.3367,-1.1329,-1.1196,-1.1236,-1.169,-1.153,-1.143,-1.173,-1.1717,-1.1617,-1.145,-1.1683,-1.187,-1.187,-1.2131,-1.2305,-1.2305,-1.2305,-1.2305,-1.2305,-1.2365,-1.2371,-1.2305,-1.2144,-1.2138,-1.2298,-1.2238,-1.2238,-1.2378,-1.2298,-1.2345,-1.2357,-1.2345,-1.2345,-1.2357,-1.2425,-1.2526,-1.2599,-1.2673,-1.2753,-1.2826,-1.29,-1.29,-1.2973,-1.29,-1.29,-1.2973,-1.29,-1.29,-1.29,-1.29,-1.2599,-1.215,-1.1409,-1.0899,-1.0487,-1.0018,-0.9793,-0.9733,-1.011,-1.0213,-1.0256,-1.0433,-1.0482,-1.0433,-1.0256,-1.0353,-1.0444,-1.032,-1.0293,-1.0234,-1.004,-0.8988,-0.8012,-0.7628,-0.6558,-0.5597,-0.5309,-0.5292,-0.5292,-0.5292,-0.5208,-0.5186,-0.5284,-0.5379,-0.5218,-0.469,-0.4741,-0.4547,-0.4008,-0.3989,-0.4005,-0.3951,-0.3871,-0.3836,-0.3765,-0.3742,-0.3742,-0.3761,-0.3624,-0.363,-0.3761,-0.3689,-0.3695,-0.3759,-0.3687,-0.3654,-0.3648,-0.3563,-0.3577,-0.3652,-0.3634,-0.326,-0.2895,-0.2803,-0.236,-0.1708,-1.2058,-1.2051,-1.2151,-1.2458,-1.2258,-1.2111,-1.2265,-1.2164,-1.2017,-1.1864,-1.1977,-1.2078,-1.2078,-1.2211,-1.2305,-1.2305,-1.2305,-1.2305,-1.2305,-1.2438,-1.2452,-1.2311,-1.2291,-1.2291,-1.2305,-1.2305,-1.2305,-1.2305,-1.2305,-1.2231,-1.2098,-1.2238,-1.2231,-1.2098,-1.2238,-1.2452,-1.2668,-1.2668,-1.2832,-1.303,-1.288,-1.2893,-1.2947,-1.2728,-1.2673,-1.2732,-1.2514,-1.217,-1.182,-1.1575,-1.1545,-1.1484,-1.0887,-1.0732,-1.0726,-1.0067,-0.9997,-1.0116,-1.0256,-1.0374,-1.0487,-1.0606,-1.0719,-1.0713,-1.0374,-1.039,-1.0471,-1.046,-1.0455,-1.0449,-1.0433,-0.9151,-0.8086,-0.7817,-0.6512,-0.551,-0.5385,-0.5368,-0.5349,-0.529,-0.5224,-0.5211,-0.5276,-0.5258,-0.502,-0.4714,-0.4552,-0.4365,-0.3901,-0.3944,-0.3948,-0.3901,-0.3899,-0.3877,-0.3828,-0.3785,-0.3808,-0.3891,-0.3712,-0.365,-0.3695,-0.3648,-0.363,-0.3634,-0.3587,-0.3567,-0.3485,-0.3107,-0.2975,-0.2965,-0.2636,-0.2277,-0.2004,-0.193,-0.1606,-0.1072,-1.2903,-1.2986,-1.3166,-1.3267,-1.3026,-1.2903,-1.2903,-1.2619,-1.2418,-1.2318,-1.2345,-1.2378,-1.2378,-1.2378,-1.2358,-1.2305,-1.2305,-1.2325,-1.2378,-1.2559,-1.2585,-1.2385,-1.2565,-1.2552,-1.2305,-1.2305,-1.2305,-1.2305,-1.2305,-1.2178,-1.1951,-1.2191,-1.2171,-1.1951,-1.2191,-1.2472,-1.2822,-1.2822,-1.2926,-1.3186,-1.2926,-1.2903,-1.3022,-1.2627,-1.2533,-1.2648,-1.2257,-1.1518,-1.0731,-1.0183,-1.033,-1.0605,-1.0051,-1.0351,-1.0875,-1.0149,-1.0137,-1.0466,-1.0444,-1.0552,-1.0697,-1.0697,-1.0842,-1.0869,-1.0449,-1.0417,-1.0519,-1.0665,-1.0697,-1.074,-1.0896,-0.9662,-0.8566,-0.8089,-0.6766,-0.5709,-0.5417,-0.5417,-0.5385,-0.5262,-0.5268,-0.5271,-0.5252,-0.5107,-0.4956,-0.4707,-0.4382,-0.4131,-0.3963,-0.3967,-0.3961,-0.3946,-0.3946,-0.3938,-0.3922,-0.3848,-0.3885,-0.4034,-0.3881,-0.3763,-0.3673,-0.3656,-0.3612,-0.3542,-0.3366,-0.3287,-0.322,-0.2398,-0.2129,-0.2119,-0.1424,-0.1146,-0.1025,-0.0878,-0.073,-0.0584,-1.3146,-1.2966,-1.2973,-1.3494,-1.334,-1.3146,-1.3146,-1.3113,-1.2899,-1.2371,-1.2525,-1.2761,-1.2761,-1.2761,-1.2585,-1.2325,-1.2305,-1.2412,-1.2741,-1.2485,-1.2458,-1.2755,-1.2478,-1.2345,-1.2305,-1.2305,-1.2305,-1.2305,-1.2305,-1.2278,-1.2245,-1.2285,-1.2278,-1.2245,-1.2285,-1.2472,-1.2822,-1.2822,-1.2926,-1.3206,-1.3166,-1.3146,-1.314,-1.31,-1.3093,-1.3086,-1.3046,-1.2228,-1.1132,-1.0698,-1.0568,-1.0434,-0.9836,-0.9927,-1.0188,-0.9946,-0.9797,-0.9925,-1.0701,-1.0912,-1.0939,-1.0939,-1.0961,-1.0912,-1.0649,-1.0912,-1.1155,-1.0972,-1.0939,-1.0885,-1.0713,-1.003,-0.9137,-0.832,-0.744,-0.6533,-0.5628,-0.5616,-0.5638,-0.5515,-0.5594,-0.5619,-0.5513,-0.551,-0.5393,-0.4949,-0.4934,-0.4669,-0.4244,-0.4244,-0.4212,-0.4138,-0.4136,-0.4097,-0.4018,-0.4006,-0.4012,-0.4036,-0.401,-0.395,-0.3859,-0.3781,-0.3738,-0.3718,-0.2895,-0.2581,-0.247,-0.1603,-0.1271,-0.1274,-0.1242,-0.0809,-0.0075,0.0602,0.0891,0.088,-1.3701,-1.3587,-1.3581,-1.3848,-1.3788,-1.3647,-1.348,-1.3313,-1.3053,-1.2605,-1.2518,-1.2498,-1.2498,-1.2498,-1.2512,-1.2545,-1.2552,-1.2679,-1.2986,-1.2879,-1.2866,-1.2999,-1.2879,-1.2812,-1.2812,-1.2812,-1.2812,-1.2812,-1.2472,-1.2305,-1.2305,-1.2305,-1.2392,-1.2552,-1.2552,-1.2812,-1.3247,-1.3247,-1.342,-1.3687,-1.352,-1.3454,-1.3434,-1.3273,-1.3213,-1.3127,-1.2718,-1.1419,-0.993,-0.9926,-0.9893,-0.9772,-0.9168,-0.9607,-1.0124,-0.9629,-0.9674,-0.9888,-1.0129,-1.0488,-1.0719,-1.0679,-1.0916,-1.1128,-1.0885,-1.1101,-1.1278,-1.1036,-1.0982,-1.0993,-1.1025,-1.0344,-0.9456,-0.8504,-0.7618,-0.6766,-0.5747,-0.57,-0.5689,-0.5478,-0.5513,-0.5521,-0.5381,-0.5484,-0.5374,-0.4835,-0.4837,-0.4656,-0.43,-0.43,-0.4261,-0.4177,-0.4173,-0.4155,-0.4112,-0.4112,-0.4136,-0.4183,-0.366,-0.3549,-0.3822,-0.3308,-0.3013,-0.2855,-0.1982,-0.161,-0.1547,-0.0772,-0.0496,-0.0369,-0.0072,0.0292,0.0681,0.106,0.1214,0.1224]}]]